[[{"header":{"parameterUnit":"m.s-1","parameterCategory":1,"la1":30.6,"la2":28.766,"lo1":-90.7593,"lo2":-88.6598,"dy":0.0162,"dx":0.0183,"nx":116,"ny":114,"refTime":"2023-03-17T18:00:00:Z","depth":0,"parameterNumber":2,"parameterNumberName":"U-component_of_WINDS"},"data":[0.0,0.0,0.0,0.0,0.0,0.0,0.0,0.0,0.0,0.0,0.0,0.0,0.0,0.0,0.0,0.0,0.0,0.0,0.0,0.0,0.0,0.0,0.0,0.0,0.0,0.0,0.0,0.0,0.0,0.0,0.0,0.0,0.0,0.0,0.0,0.0,0.0,0.0,0.0,0.0,0.0,0.0,0.0,0.0,0.0,0.0,0.0,0.0,0.0,0.0,0.0,0.0,0.0,0.0,0.0,0.0,0.0,0.0,0.0,0.0,0.0,0.0,0.0,0.0,0.0,0.0,0.0,0.0,0.0,0.0,0.0,0.0,0.0,0.0,0.0,0.0,0.0,0.0,0.0,0.0,0.0,0.0,0.0,0.0,0.0,0.0,0.0,0.0,0.0,0.0,0.0,0.0,0.0,0.0,0.0,0.0,0.0,0.0,0.0,0.0,0.0,0.0,0.0,0.0,0.0,0.0,0.0,0.0,0.0,0.0,0.0,0.0,0.0,0.0,0.0,0.0,0.0,0.0,0.0,0.0,0.0,0.0,0.0,0.0,0.0,0.0,0.0,0.0,0.0,0.0,0.0,0.0,0.0,0.0,0.0,0.0,0.0,0.0,0.0,0.0,0.0,0.0,0.0,0.0,0.0,0.0,0.0,0.0,0.0,0.0,0.0,0.0,0.0,0.0,0.0,0.0,0.0,0.0,0.0,0.0,0.0,0.0,0.0,0.0,0.0,0.0,0.0,0.0,0.0,0.0,0.0,0.0,0.0,0.0,0.0,0.0,0.0,0.0,0.0,0.0,0.0,0.0,0.0,0.0,0.0,0.0,0.0,0.0,0.0,0.0,0.0,0.0,0.0,0.0,0.0,0.0,0.0,0.0,0.0,0.0,0.0,0.0,0.0,0.0,0.0,0.0,0.0,0.0,0.0,0.0,0.0,0.0,0.0,0.0,0.0,0.0,0.0,0.0,0.0,0.0,0.0,0.0,0.0,0.0,0.0,0.0,0.0,0.0,0.0,0.0,0.0,0.0,0.0,0.0,0.0,0.0,0.0,0.0,0.0,0.0,0.0,0.0,0.0,0.0,0.0,0.0,0.0,0.0,0.0,0.0,0.0,0.0,0.0,0.0,0.0,0.0,0.0,0.0,0.0,0.0,0.0,0.0,0.0,0.0,0.0,0.0,0.0,0.0,0.0,0.0,0.0,0.0,0.0,0.0,0.0,0.0,0.0,0.0,0.0,0.0,0.0,0.0,0.0,0.0,0.0,0.0,0.0,0.0,0.0,0.0,0.0,0.0,0.0,0.0,0.0,0.0,0.0,0.0,0.0,0.0,0.0,0.0,0.0,0.0,0.0,0.0,0.0,0.0,0.0,0.0,0.0,0.0,0.0,0.0,0.0,0.0,0.0,0.0,0.0,0.0,0.0,0.0,0.0,0.0,0.0,0.0,0.0,0.0,0.0,0.0,0.0,0.0,0.0,0.0,0.0,0.0,0.0,0.0,0.0,0.0,0.0,0.0,0.0,0.0,0.0,0.0,0.0,0.0,0.0,0.0,0.0,0.0,0.0,0.0,0.0,0.0,0.0,0.0,0.0,0.0,0.0,0.0,0.0,0.0,0.0,0.0,0.0,0.0,0.0,0.0,0.0,0.0,0.0,0.0,0.0,0.0,0.0,0.0,0.0,0.0,0.0,0.0,0.0,0.0,0.0,0.0,0.0,0.0,0.0,0.0,0.0,0.0,0.0,0.0,0.0,0.0,0.0,0.0,0.0,0.0,0.0,0.0,0.0,0.0,0.0,0.0,0.0,0.0,0.0,0.0,0.0,0.0,0.0,0.0,0.0,0.0,0.0,0.0,0.0,0.0,0.0,0.0,0.0,0.0,0.0,0.0,0.0,0.0,0.0,0.0,0.0,0.0,0.0,0.0,0.0,0.0,0.0,0.0,0.0,0.0,0.0,0.0,0.0,0.0,0.0,0.0,0.0,0.0,0.0,0.0,0.0,0.0,0.0,0.0,0.0,0.0,0.0,0.0,0.0,0.0,0.0,0.0,0.0,0.0,0.0,0.0,0.0,0.0,0.0,0.0,0.0,0.0,0.0,0.0,0.0,0.0,0.0,0.0,0.0,0.0,0.0,0.0,0.0,0.0,0.0,0.0,0.0,0.0,0.0,0.0,0.0,0.0,0.0,0.0,0.0,0.0,0.0,0.0,0.0,0.0,0.0,0.0,0.0,0.0,0.0,0.0,0.0,0.0,0.0,0.0,0.0,0.0,0.0,0.0,0.0,0.0,0.0,0.0,0.0,0.0,0.0,0.0,0.0,0.0,0.0,0.0,0.0,0.0,0.0,0.0,0.0,0.0,0.0,0.0,0.0,0.0,0.0,0.0,0.0,0.0,0.0,0.0,0.0,0.0,0.0,0.0,0.0,0.0,0.0,0.0,0.0,0.0,0.0,0.0,0.0,0.0,0.0,0.0,0.0,0.0,0.0,0.0,0.0,0.0,0.0,0.0,0.0,0.0,0.0,0.0,0.0,0.0,0.0,0.0,0.0,0.0,0.0,0.0,0.0,0.0,0.0,0.0,0.0,0.0,0.0,0.0,0.0,0.0,0.0,0.0,0.0,0.0,0.0,0.0,0.0,0.0,0.0,0.0,0.0,0.0,0.0,0.0,0.0,0.0,0.0,0.0,0.0,0.0,0.0,0.0,0.0,0.0,0.0,0.0,0.0,0.0,0.0,0.0,0.0,0.0,0.0,0.0,0.0,0.0,0.0,0.0,0.0,0.0,0.0,0.0,0.0,0.0,0.0,0.0,0.0,0.0,0.0,0.0,0.0,0.0,0.0,0.0,0.0,0.0,0.0,0.0,0.0,0.0,0.0,0.0,0.0,0.0,0.0,0.0,0.0,0.0,0.0,0.0,0.0,0.0,0.0,0.0,0.0,0.0,0.0,0.0,0.0,0.0,0.0,0.0,0.0,0.0,0.0,0.0,0.0,0.0,0.0,0.0,0.0,0.0,0.0,0.0,0.0,0.0,0.0,0.0,0.0,0.0,0.0,0.0,0.0,0.0,0.0,0.0,0.0,0.0,0.0,0.0,0.0,0.0,0.0,0.0,0.0,0.0,0.0,0.0,0.0,0.0,0.0,0.0,0.0,0.0,0.0,0.0,0.0,0.0,0.0,0.0,0.0,0.0,0.0,0.0,0.0,0.0,0.0,0.0,0.0,0.0,0.0,0.0,0.0,0.0,0.0,0.0,0.0,0.0,0.0,0.0,0.0,0.0,0.0,0.0,0.0,0.0,0.0,0.0,0.0,0.0,0.0,0.0,0.0,0.0,0.0,0.0,0.0,0.0,0.0,0.0,0.0,0.0,0.0,0.0,0.0,0.0,0.0,0.0,0.0,0.0,0.0,0.0,0.0,0.0,0.0,0.0,0.0,0.0,0.0,0.0,0.0,0.0,0.0,0.0,0.0,0.0,0.0,0.0,0.0,0.0,0.0,0.0,0.0,0.0,0.0,0.0,0.0,0.0,0.0,0.0,0.0,0.0,0.0,0.0,0.0,0.0,0.0,0.0,0.0,0.0,0.0,0.0,0.0,0.0,0.0,0.0,0.0,0.0,0.0,0.0,0.0,0.0,0.0,0.0,0.0,0.0,0.0,0.0,0.0,0.0,0.0,0.0,0.0,0.0,0.0,0.0,0.0,0.0,0.0,0.0,0.0,0.0,0.0,0.0,0.0,0.0,0.0,0.0,0.0,0.0,0.0,0.0,0.0,0.0,0.0,0.0,0.0,0.0,0.0,0.0,0.0,0.0,0.0,0.0,0.0,0.0,0.0,0.0,0.0,0.0,0.0,0.0,0.0,0.0,0.0,0.0,0.0,0.0,0.0,0.0,0.0,0.0,0.0,0.0,0.0,0.0,0.0,0.0,0.0,0.0,0.0,0.0,0.0,0.0,0.0,0.0,0.0,0.0,0.0,0.0,0.0,0.0,0.0,0.0,0.0,0.0,0.0,0.0,0.0,0.0,0.0,0.0,0.0,0.0,0.0,0.0,0.0,0.0,0.0,0.0,0.0,0.0,0.0,0.0,0.0,0.0,0.0,0.0,0.0,0.0,0.0,0.0,0.0,0.0,0.0,0.0,0.0,0.0,0.0,0.0,0.0,0.0,0.0,0.0,0.0,0.0,0.0,0.0,0.0,0.0,0.0,0.0,0.0,0.0,0.0,0.0,0.0,0.0,0.0,0.0,0.0,0.0,0.0,0.0,0.0,0.0,0.0,0.0,0.0,0.0,0.0,0.0,0.0,0.0,0.0,0.0,0.0,0.0,0.0,0.0,0.0,0.0,0.0,0.0,0.0,0.0,0.0,0.0,0.0,0.0,0.0,0.0,0.0,0.0,0.0,0.0,0.0,0.0,0.0,0.0,0.0,0.0,0.0,0.0,0.0,0.0,0.0,0.0,0.0,0.0,0.0,0.0,0.0,0.0,0.0,0.0,0.0,0.0,0.0,0.0,0.0,0.0,0.0,0.0,0.0,0.0,0.0,0.0,0.0,0.0,0.0,0.0,0.0,0.0,0.0,0.0,0.0,0.0,0.0,0.0,0.0,0.0,0.0,0.0,0.0,0.0,0.0,0.0,0.0,0.0,0.0,0.0,0.0,0.0,0.0,0.0,0.0,0.0,0.0,0.0,0.0,0.0,0.0,0.0,0.0,0.0,0.0,0.0,0.0,0.0,0.0,0.0,0.0,0.0,0.0,0.0,0.0,0.0,0.0,0.0,0.0,0.0,0.0,0.0,0.0,0.0,0.0,0.0,0.0,0.0,0.0,0.0,0.0,0.0,0.0,0.0,0.0,0.0,0.0,0.0,0.0,0.0,0.0,0.0,0.0,0.0,0.0,0.0,0.0,0.0,0.0,0.0,0.0,0.0,0.0,0.0,0.0,0.0,0.0,0.0,0.0,0.0,0.0,0.0,0.0,0.0,0.0,0.0,0.0,0.0,0.0,0.0,0.0,0.0,0.0,0.0,0.0,0.0,0.0,0.0,0.0,0.0,0.0,0.0,0.0,0.0,0.0,0.0,0.0,0.0,0.0,0.0,0.0,0.0,0.0,0.0,0.0,0.0,0.0,0.0,0.0,0.0,0.0,0.0,0.0,0.0,0.0,0.0,0.0,0.0,0.0,0.0,0.0,0.0,0.0,0.0,0.0,0.0,0.0,0.0,0.0,0.0,0.0,0.0,0.0,0.0,0.0,0.0,0.0,0.0,0.0,0.0,0.0,0.0,0.0,0.0,0.0,0.0,0.0,0.0,0.0,0.0,0.0,0.0,0.0,0.0,0.0,0.0,0.0,0.0,0.0,0.0,0.0,0.0,0.0,0.0,0.0,0.0,0.0,0.0,0.0,0.0,0.0,0.0,0.0,0.0,0.0,0.0,0.0,0.0,0.0,0.0,0.0,0.0,0.0,0.0,0.0,0.0,0.0,0.0,0.0,0.0,0.0,0.0,0.0,0.0,0.0,0.0,0.0,0.0,0.0,0.0,0.0,0.0,0.0,0.0,0.0,0.0,0.0,0.0,0.0,0.0,0.0,0.0,0.0,0.0,0.0,0.0,0.0,0.0,0.0,0.0,0.0,0.0,0.0,0.0,0.0,0.0,0.0,0.0,0.0,0.0,0.0,0.0,0.0,0.0,0.0,0.0,0.0,0.0,0.0,0.0,0.0,0.0,0.0,0.0,0.0,0.0,0.0,0.0,0.0,0.0,0.0,0.0,0.0,0.0,0.0,0.0,0.0,0.0,0.0,0.0,0.0,0.0,0.0,0.0,0.0,0.0,0.0,0.0,0.0,0.0,0.0,0.0,0.0,0.0,0.0,0.0,0.0,0.0,0.0,0.0,0.0,0.0,0.0,0.0,0.0,0.0,0.0,0.0,0.0,0.0,0.0,0.0,0.0,0.0,0.0,0.0,0.0,0.0,0.0,0.0,0.0,0.0,0.0,0.0,0.0,0.0,0.0,0.0,0.0,0.0,0.0,0.0,0.0,0.0,0.0,0.0,0.0,0.0,0.0,0.0,0.0,0.0,0.0,0.0,0.0,0.0,0.0,0.0,0.0,0.0,-0.6386,-0.7006,0.0,0.0,0.0,0.0,0.0,0.0,0.0,0.0,0.0,0.0,0.0,0.0,0.0,0.0,0.0,0.0,0.0,0.0,0.0,0.0,0.0,0.0,0.0,0.0,0.0,0.0,0.0,0.0,0.0,0.0,0.0,0.0,0.0,0.0,0.0,0.0,0.0,0.0,0.0,0.0,0.0,0.0,0.0,0.0,0.0,0.0,0.0,0.0,0.0,0.0,0.0,0.0,0.0,0.0,0.0,0.0,0.0,0.0,0.0,0.0,0.0,0.0,0.0,0.0,0.0,0.0,0.0,0.0,0.0,0.0,0.0,0.0,0.0,0.0,0.0,0.0,0.0,0.0,0.0,0.0,0.0,0.0,0.0,0.0,0.0,0.0,0.0,0.0,0.0,0.0,0.0,0.0,0.0,0.0,0.0,0.0,0.0,0.0,0.0,0.0,0.0,0.0,0.0,0.0,0.0,0.0,0.0,0.0,0.0,0.0,0.0,0.0,0.0,0.0,-0.7362,-0.8648,0.0,0.0,0.0,0.0,0.0,0.0,0.0,0.0,0.0,0.0,0.0,0.0,0.0,0.0,0.0,0.0,0.0,0.0,0.0,0.0,0.0,0.0,0.0,0.0,5.359,5.454,5.5297,0.0,0.0,0.0,0.0,0.0,0.0,0.0,0.0,0.0,0.0,0.0,0.0,0.0,0.0,0.0,0.0,0.0,0.0,0.0,0.0,0.0,0.0,0.0,0.0,0.0,0.0,0.0,0.0,0.0,0.0,0.0,0.0,0.0,0.0,0.0,0.0,0.0,0.0,0.0,0.0,0.0,0.0,0.0,0.0,0.0,0.0,0.0,0.0,0.0,0.0,0.0,0.0,0.0,0.0,0.0,0.0,0.0,0.0,0.0,0.0,0.0,0.0,0.0,0.0,0.0,0.0,0.0,0.0,0.0,0.0,0.0,0.0,0.0,0.0,0.0,0.0,0.0,0.0,0.0,0.0,0.0,0.3413,0.1397,-0.1144,-0.3553,-0.4735,-0.5153,-0.8637,-1.0878,-1.2115,-1.2758,0.0,0.0,0.0,0.0,0.0,0.0,0.0,0.0,0.0,0.0,0.0,0.0,0.0,0.0,0.0,0.0,0.0,0.0,0.0,0.0,0.0,5.3161,5.4472,5.5346,5.5605,5.6275,0.0,0.0,0.0,0.0,0.0,0.0,0.0,0.0,0.0,0.0,0.0,0.0,7.0094,7.0815,7.0639,6.9491,0.0,0.0,0.0,0.0,0.0,0.0,0.0,0.0,0.0,0.0,0.0,0.0,0.0,0.0,0.0,0.0,0.0,0.0,0.0,0.0,0.0,0.0,0.0,0.0,0.0,0.0,0.0,0.0,0.0,0.0,0.0,0.0,0.0,0.0,0.0,0.0,0.0,0.0,0.0,0.0,0.0,0.0,0.0,0.0,4.7485,4.7429,0.0,0.0,0.0,0.0,0.0,0.0,0.0,0.0,0.0,0.0,0.0,0.0,0.0,0.9029,0.8127,0.4693,0.3719,0.4818,0.1284,-0.0721,-0.1285,-0.4843,-0.6665,-0.7005,-1.0179,0.0,-1.0905,-1.3602,0.0,0.0,0.0,0.0,0.0,0.0,0.0,0.0,0.0,0.0,0.0,0.0,0.0,0.0,0.0,0.0,0.0,0.0,0.0,0.0,0.0,5.514,5.7013,5.8342,5.9412,5.9873,5.9634,0.0,0.0,0.0,0.0,0.0,0.0,0.0,0.0,0.0,7.0384,7.277,7.404,7.4522,7.4549,7.4221,7.2381,7.014,6.7691,6.6077,0.0,0.0,0.0,0.0,0.0,0.0,0.0,0.0,0.0,0.0,0.0,0.0,0.0,0.0,0.0,0.0,0.0,0.0,0.0,0.0,0.0,0.0,0.0,0.0,0.0,0.0,0.0,0.0,0.0,0.0,0.0,0.0,0.0,0.0,0.0,0.0,0.0,0.0,0.0,4.6711,4.6494,4.4068,4.3831,4.2451,0.0,0.0,0.0,0.0,0.0,0.0,0.0,0.0,0.0,1.4635,1.1519,0.8834,0.6551,0.4809,0.4103,0.407,0.046,-0.1539,-0.2432,-0.4709,-0.6437,-0.7627,-0.9813,-1.2006,-1.4424,-1.6675,-1.9169,-2.1809,0.0,0.0,0.0,0.0,-3.178,-3.2901,0.0,0.0,0.0,0.0,0.0,0.0,0.0,0.0,0.0,0.0,0.0,0.0,5.4709,5.7642,6.0095,6.1555,6.2872,6.3128,6.1834,6.1286,0.0,0.0,0.0,0.0,0.0,0.0,0.0,0.0,7.3111,7.559,7.7373,7.7513,7.773,7.7955,7.7431,7.4678,7.0244,6.8975,6.7641,0.0,0.0,0.0,0.0,0.0,0.0,0.0,0.0,0.0,0.0,0.0,0.0,0.0,0.0,0.0,0.0,0.0,0.0,0.0,0.0,0.0,0.0,0.0,0.0,0.0,0.0,0.0,0.0,0.0,0.0,0.0,0.0,0.0,0.0,0.0,0.0,0.0,0.0,4.6901,4.6454,4.2349,4.4225,4.3528,0.0,0.0,0.0,0.0,0.0,0.0,2.7216,2.2777,1.814,1.3013,1.1471,0.9487,0.6941,0.6044,0.5071,0.4048,0.0487,-0.1939,-0.3356,-0.5109,-0.6574,-0.7911,-1.0493,-1.3671,-1.7388,-1.9667,-2.1992,-2.4547,-2.8041,-3.0257,-3.1701,-3.2851,-3.399,-3.5059,0.0,0.0,0.0,0.0,0.0,0.0,0.0,0.0,0.0,0.0,0.0,5.5691,5.6668,6.0455,6.3322,6.432,6.4474,6.4487,6.4321,6.2798,6.148,0.0,0.0,0.0,0.0,0.0,0.0,7.1643,7.5742,7.8252,7.9169,7.9205,7.9698,8.0601,8.0562,7.8705,7.5476,7.2976,7.1898,7.1321,0.0,0.0,0.0,0.0,0.0,0.0,0.0,0.0,0.0,0.0,0.0,0.0,0.0,0.0,0.0,0.0,0.0,0.0,0.0,0.0,0.0,0.0,0.0,0.0,0.0,0.0,0.0,0.0,0.0,0.0,0.0,0.0,0.0,0.0,0.0,0.0,0.0,0.0,0.0,4.6555,4.9144,0.0,0.0,0.0,0.0,3.6081,3.2201,2.8015,2.3275,1.9504,1.591,1.2512,1.1118,1.0589,1.0854,0.7271,0.5781,0.5933,0.102,-0.2032,-0.3517,-0.669,-0.8027,-0.8356,-1.3464,-1.635,-1.8007,-2.1897,-2.4804,-2.7142,-3.0754,-3.2485,-3.3134,-3.4643,-3.6346,-3.7964,0.0,0.0,0.0,0.0,0.0,0.0,0.0,0.0,0.0,5.1599,5.4403,5.7119,5.911,6.3655,6.7141,6.8552,6.9667,6.986,6.8679,6.6473,6.4576,0.0,0.0,0.0,0.0,0.0,7.1852,7.4206,7.7263,7.9502,8.0999,8.1607,8.2099,8.2544,8.2611,8.1644,7.99,7.7323,7.5014,7.2822,7.0063,6.6203,0.0,0.0,0.0,0.0,0.0,0.0,0.0,0.0,0.0,0.0,0.0,0.0,0.0,0.0,0.0,0.0,0.0,0.0,0.0,0.0,0.0,0.0,0.0,0.0,0.0,0.0,0.0,0.0,0.0,0.0,0.0,0.0,0.0,0.0,0.0,0.0,0.0,4.901,5.0945,0.0,4.5163,4.278,4.0242,3.6973,3.3717,2.9767,2.5002,2.1289,1.7409,1.3146,1.2727,1.2258,1.1235,0.8743,0.6654,0.5031,0.0696,-0.3119,-0.6682,-0.7878,-0.9545,-1.1825,-1.4639,-1.7315,-1.9657,-2.4175,-2.6786,-2.8535,-3.3087,-3.5071,-3.5463,-3.7423,-3.8477,-3.9056,0.0,0.0,0.0,0.0,0.0,0.0,0.0,0.0,5.13,5.2809,5.6252,5.9523,6.217,6.7025,7.0667,7.2052,7.3245,7.2937,7.0629,6.8306,6.5843,0.0,0.0,0.0,0.0,7.078,7.4018,7.6573,7.8992,8.0997,8.2493,8.3293,8.4087,8.4729,8.4796,8.4484,8.383,8.19,7.8977,7.5476,7.3745,6.9927,6.492,0.0,0.0,0.0,0.0,0.0,0.0,0.0,0.0,0.0,0.0,0.0,0.0,0.0,0.0,0.0,0.0,0.0,0.0,0.0,0.0,0.0,0.0,0.0,0.0,0.0,0.0,0.0,0.0,0.0,0.0,0.0,0.0,0.0,0.0,5.1836,5.3748,5.0798,5.3213,5.2995,4.8001,4.5047,4.2234,3.9496,3.5369,3.0724,2.5545,2.1975,1.8147,1.3722,1.3946,1.3565,1.2378,0.9833,0.7143,0.4232,-0.0177,-0.441,-0.8582,-0.9797,-1.1618,-1.383,-1.6709,-1.8808,-2.0656,-2.6157,-2.8535,-2.9276,-3.4374,-3.6323,-3.6708,-3.8809,-3.9646,-3.9626,0.0,0.0,0.0,0.0,0.0,0.0,0.0,5.1047,5.2547,5.5255,5.9268,6.2926,6.5705,7.0514,7.386,7.4707,7.4784,7.336,7.0052,6.8048,6.5152,0.0,0.0,0.0,7.0143,7.4039,7.6904,7.8671,8.1085,8.2709,8.3639,8.4211,8.5472,8.7264,8.7264,8.7225,8.7187,8.6483,8.3785,7.9677,7.6293,7.3418,7.0536,0.0,0.0,0.0,0.0,0.0,0.0,0.0,0.0,0.0,0.0,0.0,0.0,0.0,0.0,0.0,0.0,0.0,0.0,0.0,0.0,0.0,0.0,0.0,0.0,0.0,0.0,0.0,0.0,0.0,0.0,0.0,0.0,0.0,5.0151,5.323,5.4849,5.2486,5.617,5.6936,5.2188,4.9805,4.6961,4.3418,3.7136,3.0748,2.4759,2.1263,1.7863,1.4263,1.4367,1.4448,1.4312,1.0655,0.7218,0.4101,-0.1427,-0.5717,-0.8761,-1.2485,-1.4095,-1.4152,-1.938,-2.1221,-2.1001,-2.7864,-3.0172,-2.9774,-3.4526,-3.641,-3.6729,-3.8808,-3.9606,-3.9627,0.0,0.0,0.0,0.0,0.0,0.0,0.0,5.1047,5.2547,5.5255,5.9268,6.3386,6.7295,7.1706,7.4976,7.6476,7.6592,7.537,7.2573,6.9529,6.6365,0.0,0.0,0.0,7.1855,7.5727,7.8368,7.9725,8.1904,8.3664,8.4847,8.5934,8.711,8.8291,8.8291,8.8218,8.8147,8.8021,8.6274,8.3332,8.0771,7.6884,7.2384,0.0,0.0,0.0,0.0,0.0,0.0,0.0,0.0,0.0,0.0,0.0,0.0,0.0,0.0,0.0,0.0,0.0,0.0,0.0,0.0,0.0,0.0,0.0,0.0,0.0,0.0,0.0,0.0,0.0,0.0,0.0,0.0,5.3398,5.3241,5.6563,5.9363,6.056,6.0382,5.9778,5.8883,5.339,4.8674,4.5642,3.8964,3.2039,2.5434,2.1977,1.9169,1.6689,1.5348,1.4645,1.457,1.072,0.6522,0.2167,-0.0718,-0.5167,-1.06,-1.1653,-1.3422,-1.5861,-1.9854,-2.1945,-2.2889,-2.8409,-3.107,-3.2134,-3.5816,-3.7084,-3.7173,-3.9323,-4.017,-4.0062,0.0,0.0,0.0,0.0,0.0,0.0,0.0,5.1314,5.3312,5.675,6.0879,6.5152,6.9525,7.3129,7.5668,7.6669,7.6092,7.4447,7.1468,6.8311,6.6383,0.0,0.0,7.2394,7.4206,7.7568,7.9811,8.0786,8.2519,8.4087,8.5513,8.6428,8.7923,8.9748,8.9748,8.9906,9.0067,8.961,8.8345,8.6393,8.443,8.0553,7.5802,7.3446,7.0789,6.8,6.5747,6.4531,6.3676,6.1707,0.0,0.0,0.0,0.0,0.0,0.0,0.0,0.0,0.0,0.0,0.0,0.0,0.0,0.0,0.0,0.0,0.0,0.0,0.0,0.0,0.0,0.0,0.0,0.0,5.5765,5.7918,5.8085,6.0093,6.2109,6.398,6.2751,6.1696,6.172,5.5505,5.0342,4.7576,4.0326,3.3197,2.6435,2.2599,1.9843,1.8026,1.6088,1.5313,1.6059,1.141,0.6951,0.2718,-0.1615,-0.6408,-1.1324,-1.2854,-1.4951,-1.7582,-2.0311,-2.2567,-2.457,-2.906,-3.1894,-3.3748,0.0,0.0,0.0,0.0,-4.0454,-4.0476,0.0,0.0,0.0,0.0,0.0,0.0,0.0,5.1773,5.4446,5.8936,6.3065,6.7226,7.1591,7.4399,7.6015,7.6015,7.4476,7.2024,6.852,6.6249,0.0,6.9294,7.2454,7.5014,7.6863,7.9595,8.128,8.2038,8.3134,8.4486,8.6009,8.6665,8.8538,9.1364,9.1441,9.1754,9.2143,9.1023,8.9768,8.8492,8.708,8.3988,7.9837,7.6119,7.4299,7.3357,7.04,6.8357,6.6982,6.6462,0.0,0.0,0.0,0.0,0.0,0.0,0.0,0.0,0.0,0.0,0.0,0.0,0.0,0.0,0.0,0.0,0.0,0.0,0.0,0.0,0.0,0.0,0.0,0.0,6.1082,6.3766,6.3807,6.3719,6.3851,6.46,6.4021,6.3043,6.1646,5.6395,5.1988,4.9011,4.1299,3.4021,2.7591,2.3331,0.0,0.0,0.0,1.6241,1.8149,1.2359,0.7603,0.4171,-0.3225,-0.8369,-1.1362,-1.4952,-1.7374,-1.9155,-2.0797,-2.3199,-2.6357,-2.9915,-3.2858,-3.5314,-3.7687,-3.8386,-3.8465,-3.999,-4.08,-4.0956,0.0,0.0,0.0,0.0,0.0,0.0,0.0,5.2155,5.4637,5.9728,6.2874,6.6304,7.0706,7.4053,7.6015,7.6015,7.4418,7.1939,6.8464,0.0,6.9904,7.1887,7.616,7.8788,7.9454,8.1983,8.343,8.3863,8.448,8.5823,8.7895,8.9076,9.0568,9.2287,9.2941,9.2642,9.162,9.151,8.9849,8.7323,8.723,8.4984,8.1624,8.0749,7.8592,7.5828,7.4752,7.3781,7.2444,6.9137,6.7725,6.7046,6.5615,0.0,0.0,0.0,0.0,0.0,0.0,0.0,0.0,0.0,0.0,0.0,0.0,0.0,0.0,0.0,0.0,0.0,0.0,0.0,0.0,6.1377,6.381,6.6132,6.8147,6.7295,6.6423,6.6145,6.5671,6.4257,6.119,5.7156,5.2702,4.8222,4.1756,3.57,3.0225,2.4538,2.2247,2.3955,1.8504,1.6493,1.8641,1.255,0.6929,0.2203,-0.2542,0.0,-1.0822,-1.3304,-1.5837,-1.8684,-2.0424,-2.3903,-2.8342,-3.0469,-3.4214,-3.8779,-3.9487,-4.0319,-4.0979,-4.132,-4.1546,-4.1481,0.0,0.0,0.0,0.0,0.0,0.0,0.0,5.227,5.4383,5.8744,6.1186,6.4001,6.7975,6.9937,7.0937,7.0937,7.0085,6.9117,0.0,7.0355,7.2849,7.5474,7.8668,8.0842,8.1764,8.3375,8.4283,8.4406,8.5036,8.6462,8.8669,8.9593,9.1233,9.3369,9.406,9.3754,9.2837,9.2657,9.1004,8.8538,8.8399,8.6505,8.3663,8.2705,8.1252,7.9601,7.8553,7.7348,7.6124,7.4937,7.34,7.1849,7.1389,6.9436,6.6883,0.0,0.0,0.0,0.0,0.0,0.0,0.0,0.0,0.0,0.0,0.0,0.0,0.0,0.0,5.5706,0.0,0.0,6.2875,6.5765,6.7662,6.9151,7.0209,6.9113,6.7764,6.6733,6.6018,6.4195,6.0661,5.7238,5.3185,4.8708,4.1761,3.5378,2.9865,2.5794,2.3678,2.391,1.9631,1.7959,1.9052,1.1889,0.5468,0.0186,-0.4523,-0.8665,-1.2539,-1.5123,-1.7645,-2.0262,-2.2982,-2.656,-3.0824,-3.4329,-3.7887,-4.0987,-4.1431,-4.2007,-4.2398,-4.2158,-4.2049,-4.1983,0.0,0.0,0.0,0.0,0.0,0.0,0.0,5.2384,5.4115,5.7862,5.969,6.1812,6.5051,6.5705,6.5705,6.518,6.5855,6.6845,0.0,7.1965,7.5602,7.873,8.074,8.2378,8.3612,8.44,8.4839,8.4852,8.5669,8.7145,8.9142,8.9994,9.1748,9.4223,9.4828,9.4709,9.4006,9.3302,9.1822,8.9831,8.9275,8.7661,8.5397,8.3793,8.3004,8.2473,8.12,7.957,7.8179,7.9792,7.8307,7.6048,7.6987,7.4601,7.0677,6.67,6.4664,0.0,0.0,0.0,0.0,0.0,0.0,0.0,0.0,0.0,5.3864,5.6301,5.733,5.881,6.2372,6.4477,6.667,6.9825,7.1298,7.1838,7.1378,6.9901,6.8373,6.7175,6.6024,6.3822,6.0051,5.701,5.3206,4.8256,4.105,3.4334,2.8642,2.5851,2.3856,2.2661,2.0097,1.8584,1.8678,1.1205,0.4361,-0.1502,-0.7028,-1.1319,-1.4856,-1.8077,-2.0629,-2.2754,-2.6475,-3.0082,-3.3677,-3.8517,-4.1211,-4.2331,-4.3046,-4.3316,-4.325,-4.2748,-4.2573,-4.2507,0.0,0.0,0.0,0.0,0.0,0.0,0.0,0.0,5.4306,5.8629,5.9971,6.139,6.3372,6.4974,6.4923,6.2554,6.6356,6.8502,6.7631,7.3959,7.8458,8.0121,8.2783,8.4264,8.4438,8.515,8.5827,8.6524,8.7378,8.86,9.0005,9.2035,9.3421,9.4261,9.4993,9.4655,9.3365,9.2086,9.0558,8.9071,8.8493,8.7413,8.6121,8.536,8.3633,8.1686,8.1585,7.9993,7.799,7.9068,7.8602,7.7762,7.9191,7.784,7.4788,7.0108,0.0,6.1171,5.4851,5.3679,5.5043,5.8468,5.8387,5.8673,0.0,0.0,6.0848,6.2652,6.4509,6.6193,6.7294,6.9723,7.1886,7.299,7.3319,7.3394,7.3387,7.0217,6.7746,6.7593,6.6607,6.4031,5.8842,5.6835,5.2566,4.4837,3.8783,3.3519,2.9043,2.3178,2.0855,2.2661,1.8726,1.6383,1.6384,1.0356,0.4391,-0.1287,-0.8383,-1.3388,-1.639,-2.0258,-2.2944,-2.4931,-2.9879,-3.3865,-3.7,-3.9732,-4.1682,-4.2815,-4.3522,-4.3774,-4.3731,-4.3272,-4.3097,-4.301,0.0,0.0,0.0,0.0,0.0,0.0,0.0,0.0,0.0,5.606,5.7095,5.8141,5.9511,6.0258,6.0186,5.9013,6.3915,6.7209,6.7486,7.4444,7.9438,8.1372,8.3475,8.4902,8.5587,8.6349,8.6772,8.6784,8.7675,8.8617,8.9668,9.0907,9.1869,9.2531,9.3211,9.3024,9.2161,9.1546,9.0461,8.9108,8.8938,8.765,8.5793,8.5434,8.3386,8.0554,7.8713,7.7266,0.0,7.6765,7.6596,7.653,7.9081,7.7285,7.3425,6.8641,6.5276,0.0,6.0421,5.8633,5.8114,0.0,6.1522,6.19,6.3817,6.3844,6.411,6.5999,6.8169,6.9853,7.0565,7.199,7.3334,0.0,7.3971,7.3636,7.3702,7.0242,6.7702,6.7702,6.5948,6.2547,5.6868,5.4229,4.9207,4.0915,3.4953,2.9896,2.5324,2.2434,2.0949,2.0864,1.781,1.5099,1.3099,0.5969,-0.0941,-0.7806,-1.2627,-1.6609,-2.0075,-2.2796,-2.6234,-3.0432,-3.356,-3.7188,-4.0627,-4.1211,-4.2452,-4.437,-4.4329,-4.4277,-4.4189,-4.3447,-4.3184,-4.3141,0.0,0.0,0.0,0.0,0.0,0.0,0.0,0.0,0.0,0.0,5.4795,5.5531,5.6549,5.6582,5.6514,5.6443,6.1065,6.48,6.682,7.3609,7.8917,8.1792,8.3758,8.5449,8.7039,8.7286,8.7391,8.749,8.8121,8.8716,8.931,9.0055,9.0775,9.1339,9.1778,9.1725,9.1245,9.0825,9.0092,8.9209,8.8923,8.7476,8.5436,8.4743,8.2289,7.8928,7.6565,7.5048,7.4102,7.3901,7.3566,7.3744,7.657,7.4811,7.0806,6.6243,6.2825,6.0761,6.2364,0.0,0.0,6.3631,6.512,6.5913,6.5606,6.6355,6.7521,6.9076,7.0446,7.1649,7.2356,7.282,7.3271,7.3814,7.3594,7.3147,7.2611,6.9983,6.7913,6.7458,6.5004,6.1211,5.5453,5.224,4.6705,3.7881,3.1295,2.5649,2.0931,1.9511,1.8359,1.6848,1.4749,1.1834,0.8282,0.1139,-0.5954,-1.3002,-1.6687,-2.0327,-2.3581,-2.5945,-2.9691,-3.4359,-3.6207,-3.9321,-4.3295,-4.241,-4.3497,-4.5849,-4.5085,-4.4866,-4.4866,-4.3927,-4.349,-4.3337,0.0,0.0,0.0,0.0,0.0,0.0,0.0,0.0,0.0,0.0,0.0,0.0,0.0,5.5698,5.5593,5.5562,5.8311,6.1595,6.5226,7.1237,7.6587,8.1042,8.372,8.6251,8.8673,8.7459,8.7601,8.9198,8.9236,8.9273,8.931,9.0617,9.1245,9.1282,9.1339,9.1339,9.1187,8.9696,8.9016,8.8942,8.7932,8.6703,8.5238,8.3423,8.0221,7.6675,7.6427,7.4286,7.1284,7.0643,6.9816,6.9376,7.1027,7.0383,0.0,6.3777,5.7751,0.0,0.0,0.0,6.2425,6.6799,6.9628,7.1555,7.2104,7.2249,7.2282,7.2346,7.1917,7.1832,7.2495,7.2132,7.1749,7.1838,7.2355,7.1904,6.9704,6.9236,6.8531,6.7039,6.4406,6.0487,5.4851,5.1925,4.6336,3.6398,2.8175,2.1651,1.7058,1.2626,1.0283,0.9999,0.84,0.568,0.1536,-0.34,-0.8864,-1.4743,-2.0233,-2.3808,-2.5771,-3.0129,-3.3188,-3.5093,-3.6811,-4.0143,-4.4221,-4.3315,-4.4619,-4.7291,-4.5849,-4.5565,-4.5849,-4.4888,-4.4255,-4.3774,0.0,0.0,0.0,0.0,0.0,0.0,0.0,0.0,0.0,0.0,0.0,0.0,0.0,0.0,0.0,0.0,5.8043,6.0467,6.1715,6.887,7.3864,7.5676,8.0728,8.4146,8.5521,8.6252,8.7253,8.8265,8.843,8.8493,8.8493,8.8964,8.9197,8.9197,8.9197,8.9137,8.8977,8.8441,8.8137,8.7895,8.7017,8.5826,8.4014,8.064,7.715,7.3442,0.0,6.6445,6.5677,6.3961,0.0,0.0,6.7065,0.0,0.0,5.8457,0.0,0.0,0.0,0.0,6.5975,6.9997,7.1986,7.3028,7.376,7.3901,7.3901,7.3901,7.14,6.9314,6.9536,6.8343,6.7185,6.6471,6.8316,6.9223,6.78,6.7034,6.5728,6.3311,6.0497,0.0,0.0,4.8426,4.438,3.459,2.8509,2.3231,1.8994,1.4578,1.2029,1.1919,0.7534,0.3311,-0.0383,-0.6942,-1.3126,-1.8673,-2.4362,-2.8121,-3.0142,-3.2955,-3.5269,-3.7384,-3.9826,-4.2193,-4.4281,-4.4625,-4.556,-4.6942,-4.6439,-4.6155,-4.5915,-4.5303,-4.4976,-4.4713,0.0,0.0,0.0,0.0,0.0,0.0,0.0,0.0,0.0,0.0,0.0,0.0,0.0,0.0,0.0,0.0,0.0,5.8408,5.9458,6.4948,6.8915,7.0692,7.5641,7.8914,8.0082,8.1178,8.226,8.3076,8.4086,8.4592,8.4592,8.5781,8.6486,8.6784,8.6685,8.6771,8.6942,8.6518,8.5909,8.5143,8.3677,8.1981,7.9939,7.6,7.2426,0.0,6.3184,6.0916,6.0188,5.8729,0.0,0.0,0.0,0.0,0.0,0.0,0.0,0.0,0.0,6.6388,6.9284,7.2742,7.4385,7.5226,7.5677,7.5747,7.5682,7.5423,7.1278,6.7571,6.7319,6.4934,6.2516,6.1315,6.3348,6.4938,6.4358,6.3911,6.3092,6.1154,5.7759,5.2581,0.0,0.0,0.0,3.1138,2.6385,2.1976,1.7785,1.3194,1.0639,0.9899,0.4161,-0.0971,-0.5323,-1.1938,-1.8283,-2.3803,-2.746,-3.0378,-3.2558,-3.4281,-3.6322,-3.8443,-4.1379,-4.3425,-4.4704,-4.5512,-4.6514,-4.7466,-4.7138,-4.6898,-4.6701,-4.6046,-4.5718,-4.5391,0.0,0.0,0.0,0.0,0.0,0.0,0.0,0.0,0.0,0.0,0.0,0.0,0.0,0.0,0.0,0.0,0.0,0.0,5.8303,5.9812,6.2314,6.6146,6.8956,7.1205,7.2992,7.3013,7.3564,7.4524,7.6865,7.8053,7.809,8.1174,8.3032,8.3775,8.3557,8.3904,8.4571,8.3593,8.2186,8.0493,7.799,7.5676,7.3349,6.9945,6.6408,6.2948,6.0475,5.7788,5.5379,0.0,0.0,0.0,0.0,0.0,0.0,0.0,0.0,6.0613,6.644,6.9726,7.2147,7.5081,7.681,7.7949,7.7739,7.7672,7.7381,7.6508,7.1136,6.6344,0.0,0.0,5.8278,5.6444,5.8032,5.9427,5.9398,6.0322,6.0864,0.0,0.0,0.0,0.0,0.0,0.0,2.6189,2.2241,1.8298,1.4238,0.9434,0.6241,0.4692,-0.1201,-0.7015,-1.2415,-1.8034,-2.3824,-2.9499,-2.9499,-3.0682,-3.2867,-3.4607,-3.6535,-3.8802,-4.1825,-4.3837,-4.5128,-4.599,-4.7325,-4.8776,-4.7881,-4.7772,-4.8034,-4.7073,-4.6439,-4.5828,0.0,0.0,0.0,0.0,0.0,0.0,0.0,0.0,0.0,0.0,0.0,0.0,0.0,0.0,0.0,0.0,0.0,0.0,5.5025,5.7956,6.0204,6.1235,6.5308,6.8341,7.0175,7.0856,7.196,7.3458,7.4248,7.4635,7.4635,7.4858,7.5081,7.5304,7.516,7.4774,7.4367,7.5195,7.4874,7.3765,7.3083,7.1762,6.9779,6.6043,6.3312,6.0955,5.7015,5.5543,0.0,0.0,0.0,0.0,0.0,0.0,6.1327,0.0,0.0,6.6122,6.8268,7.1652,7.4929,7.6177,7.7608,7.8208,7.671,7.6028,7.449,7.0369,6.4751,5.9562,0.0,0.0,0.0,5.1433,5.6712,0.0,5.939,5.986,0.0,5.3974,0.0,4.2207,3.4907,3.02,0.0,0.0,2.1953,2.19,2.1204,1.3758,0.8789,0.7134,-0.04,-0.7015,-1.2608,-2.1115,-2.6858,-2.9806,-2.9806,-3.1586,-3.4781,-3.5304,-3.7878,-4.1825,-4.3672,-4.5148,-4.6447,-4.7783,-4.8243,-4.8339,-4.8099,-4.7859,-4.7597,-4.6963,-4.6959,-4.7292,0.0,0.0,0.0,0.0,0.0,0.0,0.0,0.0,0.0,0.0,0.0,0.0,0.0,0.0,0.0,0.0,0.0,0.0,0.0,5.571,5.6786,5.6742,5.9679,6.1835,6.2899,6.4092,6.5223,6.6245,6.816,6.91,6.91,7.0103,7.0772,7.1106,7.0902,7.0724,7.0544,7.0919,7.0367,0.0,0.0,6.6426,6.4493,6.1623,5.9637,5.8136,5.5623,0.0,0.0,0.0,0.0,6.0374,6.231,6.343,6.4335,6.5952,0.0,7.0298,7.2016,7.4995,7.7657,7.8112,7.8623,7.8107,7.5348,7.3696,7.133,6.6027,6.0183,0.0,5.2181,5.0905,0.0,0.0,0.0,0.0,5.6297,5.5742,5.3593,0.0,4.3288,0.0,2.7546,2.4183,2.151,0.0,2.0538,2.1423,2.0845,1.358,0.8146,0.5652,-0.2587,-1.0329,-1.7771,-2.4751,-2.8874,-3.0114,-3.0849,-3.2705,-3.5494,-3.6362,-3.909,-4.2991,-4.4494,-4.5637,-4.693,-4.841,-4.8733,-4.8492,-4.8492,-4.8339,-4.8034,-4.7313,-4.7506,-4.8082,0.0,0.0,0.0,0.0,0.0,0.0,0.0,0.0,0.0,0.0,0.0,0.0,0.0,0.0,0.0,0.0,0.0,0.0,0.0,0.0,5.3521,5.3359,5.4101,5.4667,5.4899,5.6381,5.7237,5.7509,6.115,6.297,6.3007,6.5756,6.7428,6.8049,6.7802,6.8033,6.8498,6.7704,6.6479,6.4904,6.2888,6.0828,5.8822,0.0,5.6223,5.5262,0.0,0.0,0.0,0.0,6.2354,6.2566,6.4148,6.5247,6.6612,6.9976,7.1821,7.352,7.6276,7.8583,8.0139,8.0164,7.9501,7.7892,7.3707,7.0882,6.7573,6.1888,0.0,5.1903,5.0162,4.8113,4.6265,4.5126,0.0,4.9734,5.1389,4.9849,4.7192,4.3449,3.8312,3.1138,2.1072,1.9425,1.8321,1.673,1.8564,1.8926,1.7236,1.1253,0.5616,0.0597,-0.7292,-1.5732,-2.4736,-2.8239,-3.0087,-3.0301,-3.2048,-3.3852,-3.5732,-3.7703,-4.0421,-4.3419,-4.4738,-4.6023,-4.7272,-4.841,-4.8907,-4.8907,-4.8907,-4.8907,-4.8798,-4.8057,-4.8122,-4.8613,0.0,0.0,0.0,0.0,0.0,0.0,0.0,0.0,0.0,0.0,5.1316,5.2376,0.0,0.0,0.0,0.0,0.0,0.0,0.0,0.0,0.0,5.3481,5.3629,5.4115,5.4944,5.5829,5.6722,5.7509,5.8884,5.9552,5.9552,5.9441,5.9436,5.9418,5.9287,5.8903,5.8399,5.8932,5.8609,5.7774,5.7992,5.7165,5.5812,5.6295,0.0,0.0,0.0,0.0,0.0,0.0,6.4385,6.7302,7.0096,7.1866,7.3205,7.4364,7.5306,7.6374,7.8031,7.9685,8.0831,8.0885,7.9957,7.7492,7.1933,6.7512,0.0,0.0,5.096,4.8071,4.434,4.466,4.5178,4.4509,0.0,0.0,0.0,0.0,4.1457,0.0,2.841,2.2095,1.5258,1.454,0.0,0.0,1.6653,1.7885,1.7283,1.1379,0.2499,-0.9845,-1.6025,-2.1683,-2.6494,-2.9067,-3.0181,-2.9993,-3.2375,-3.4411,-3.6099,-3.9513,-4.2611,-4.5197,-4.668,-4.7771,-4.8569,-4.8749,-4.8907,-4.8907,-4.8907,-4.8907,-4.8978,-4.9007,-4.9305,-4.9628,0.0,0.0,0.0,0.0,0.0,0.0,0.0,4.8667,4.9224,5.0005,5.1372,5.241,5.2821,5.3628,0.0,0.0,0.0,0.0,0.0,0.0,0.0,0.0,0.0,0.0,5.4388,5.5129,5.5983,5.6878,0.0,5.8289,5.8698,5.8326,5.8021,5.7937,5.7808,5.7493,5.7066,5.7073,5.6899,5.6523,5.6629,5.608,5.5242,0.0,0.0,0.0,0.0,0.0,0.0,0.0,6.3504,6.8203,7.195,7.4122,7.5398,7.605,7.7311,7.8567,7.9296,8.1025,8.2368,8.1275,7.9511,7.5807,6.7627,0.0,0.0,0.0,4.656,4.4758,4.2006,0.0,0.0,0.0,0.0,0.0,0.0,0.0,0.0,0.0,0.0,1.813,0.0,1.3285,1.4723,1.2563,1.4613,1.5408,1.4446,0.438,-0.5649,-1.5428,-2.1471,-2.5408,-2.7172,-2.9209,-3.0655,-3.1539,-3.3784,-3.5807,-3.76,-4.1269,-4.3991,-4.5649,-4.7132,-4.8179,-4.8907,-4.8907,-4.8907,-4.8907,-4.8907,-4.8907,-4.9,-4.9251,-4.9525,-4.9801,0.0,0.0,0.0,0.0,0.0,0.0,0.0,4.9596,5.019,5.0376,5.1528,5.2457,5.2828,5.319,5.362,0.0,0.0,0.0,0.0,0.0,0.0,0.0,0.0,0.0,0.0,0.0,0.0,5.6543,5.736,0.0,0.0,0.0,0.0,0.0,5.8215,5.8076,5.7904,5.7252,5.6825,0.0,0.0,5.5716,0.0,0.0,0.0,0.0,0.0,0.0,0.0,0.0,6.1172,6.5837,6.9776,7.2573,7.4572,7.5282,7.676,7.8474,7.9284,8.1335,8.2844,8.1054,7.8274,7.3434,6.3535,5.8112,0.0,4.5074,4.2658,4.1524,4.0631,0.0,3.9968,0.0,0.0,0.0,0.0,0.0,0.0,0.0,0.0,0.0,0.7527,1.2806,0.0,1.2549,1.2748,1.1758,0.9192,-0.3444,-1.3148,-1.8814,-2.4484,-2.7524,-2.8024,-2.97,-3.1318,-3.3056,-3.5566,-3.7766,-3.9652,-4.3251,-4.545,-4.6288,-4.7605,-4.8447,-4.8907,-4.8907,-4.8907,-4.8907,-4.8907,-4.8907,-4.9,-4.954,-4.9836,-5.0112,0.0,0.0,0.0,0.0,0.0,0.0,0.0,4.9633,5.045,5.1193,5.1416,5.2085,5.3534,5.3977,5.4221,0.0,0.0,0.0,0.0,0.0,0.0,0.0,0.0,0.0,0.0,0.0,0.0,5.7364,5.8178,0.0,0.0,0.0,0.0,0.0,0.0,5.7208,5.7144,5.6582,0.0,0.0,0.0,0.0,0.0,0.0,0.0,0.0,0.0,0.0,0.0,0.0,0.0,5.9014,6.1822,6.6242,7.0457,7.0901,0.0,0.0,7.7067,7.9171,7.9995,7.9347,7.597,7.0458,6.1328,0.0,4.8697,4.1435,3.8951,3.8292,3.8527,3.703,3.5811,0.0,0.0,2.9441,0.0,0.0,0.0,0.0,0.0,0.0,0.7112,1.1569,1.5391,1.7541,1.2069,0.6254,0.1057,-0.7864,-1.5048,-2.0313,-2.4846,-2.8,-2.9594,-3.1761,-3.2819,-3.2749,-3.7371,-4.0155,-4.1413,-4.553,-4.7569,-4.8107,-4.9424,-4.9576,-4.8907,-4.8907,-4.8907,-4.8907,-4.8907,-4.8907,-4.9044,-5.0698,-5.0995,-5.0641,0.0,0.0,0.0,0.0,0.0,0.0,4.9559,5.0376,5.1193,5.2011,5.2531,5.3088,5.372,5.3944,5.3981,5.3981,0.0,0.0,0.0,0.0,0.0,0.0,0.0,0.0,0.0,0.0,5.5953,5.6772,5.759,0.0,0.0,0.0,0.0,0.0,0.0,5.7601,5.7041,5.6564,0.0,0.0,0.0,0.0,0.0,0.0,0.0,0.0,0.0,0.0,0.0,0.0,0.0,0.0,5.5375,5.7684,0.0,0.0,6.9845,7.2397,7.6646,7.9139,7.9866,7.7293,7.3044,6.6822,5.7013,0.0,4.5773,3.9599,3.8271,3.7836,3.7013,3.5339,3.3381,3.172,0.0,0.0,0.0,0.0,0.0,0.0,0.0,0.0,0.0,0.0,1.3448,1.2331,0.7919,0.1633,-0.6583,-1.3499,-1.8789,-2.2251,-2.6468,-2.9624,-3.1657,-3.2467,-3.3867,-3.6015,-3.8241,-4.0699,-4.3385,-4.5805,-4.7331,-4.8315,-4.9372,-4.9519,-4.8907,-4.8907,-4.8907,-4.8907,-4.8907,-4.9201,-4.983,-5.0921,-5.137,-5.1465,0.0,0.0,0.0,0.0,0.0,4.9187,4.9968,5.0859,5.1676,5.2494,5.3311,5.3794,5.3794,5.3794,5.3794,5.3794,5.4017,0.0,0.0,0.0,0.0,0.0,0.0,0.0,0.0,0.0,5.5765,5.6657,5.7438,5.807,0.0,0.0,5.8211,5.8206,0.0,0.0,0.0,0.0,0.0,0.0,0.0,0.0,0.0,0.0,0.0,0.0,0.0,0.0,0.0,0.0,0.0,0.0,0.0,0.0,0.0,0.0,6.5826,6.9305,7.3082,7.6283,7.7784,7.4448,6.9223,6.2716,0.0,0.0,4.2927,3.7856,3.6816,3.634,3.4821,3.2956,3.0644,2.7326,0.0,2.0635,1.8493,0.0,0.0,0.0,0.0,0.0,0.0,1.2581,1.3269,0.8737,0.5149,-0.1004,-1.0396,-1.7128,-2.1639,-2.4212,-2.7854,-3.0627,-3.269,-3.3204,-3.513,-3.8289,-3.9201,-4.1396,-4.4746,-4.5748,-4.7256,-4.8783,-4.9275,-4.9344,-4.8907,-4.8907,-4.8907,-4.8907,-4.9201,-4.9673,-5.0277,-5.1362,-5.1804,-5.1915,0.0,0.0,0.0,0.0,0.0,0.0,4.9968,5.0859,5.1676,5.2494,5.3311,5.3794,5.3794,5.3794,5.3794,5.3794,5.3794,0.0,0.0,0.0,0.0,0.0,0.0,0.0,0.0,0.0,5.6689,5.7497,5.8285,5.8471,5.8058,5.727,5.7242,5.7776,0.0,0.0,0.0,0.0,0.0,0.0,0.0,0.0,0.0,0.0,0.0,0.0,0.0,0.0,0.0,0.0,0.0,0.0,0.0,0.0,0.0,0.0,5.8519,6.2716,6.49,6.9062,7.2497,7.0154,6.4445,5.7964,0.0,0.0,3.9642,3.5701,3.4004,3.2976,3.1903,2.9754,2.6889,2.2863,1.9722,0.0,1.5358,0.0,0.0,0.0,0.0,0.0,1.2084,1.5686,1.5697,1.0049,0.4882,-0.1386,-0.9112,-1.7281,-2.3036,-2.5683,-2.8408,-3.0781,-3.269,-3.4607,-3.6362,-3.8289,-4.0611,-4.3008,-4.5649,-4.6112,-4.7589,-4.9628,-4.9628,-4.9344,-4.8907,-4.8907,-4.8907,-4.9065,-4.9808,-5.0121,-5.0277,-5.1977,-5.2259,-5.1915,0.0,0.0,0.0,0.0,0.0,0.0,0.0,5.1231,5.1676,5.2494,5.3311,5.3794,5.3794,5.3794,5.3794,5.3794,5.3794,0.0,0.0,0.0,0.0,0.0,0.0,0.0,0.0,5.4984,5.584,5.6685,5.7501,5.7956,5.8107,5.785,5.7562,5.719,5.6901,5.6364,0.0,0.0,0.0,0.0,0.0,0.0,0.0,0.0,0.0,0.0,0.0,0.0,0.0,0.0,0.0,0.0,0.0,0.0,0.0,0.0,0.0,0.0,6.1175,6.3517,6.4411,6.1825,5.6824,5.1393,4.6439,0.0,3.7443,3.3923,3.2715,3.1302,2.8618,2.5727,2.2846,1.9898,1.6877,0.0,0.0,0.0,0.0,0.0,0.0,0.0,0.0,0.0,1.119,0.5117,-0.1395,-0.857,-1.6474,-2.1908,-2.4978,-2.5617,-2.9349,-3.2337,-3.4607,-3.6535,-3.8289,-4.0198,-4.102,-4.2892,-4.5629,-4.5488,-4.6987,-4.9606,-4.9279,-4.9038,-4.8907,-4.8907,-4.8907,-4.9065,-4.983,-5.0432,-5.1008,-5.1757,-5.2277,-5.2636,0.0,0.0,0.0,0.0,0.0,0.0,0.0,5.1676,5.2159,5.294,5.3497,5.3794,5.3794,5.3794,5.3794,5.3794,5.3794,0.0,0.0,0.0,0.0,0.0,0.0,0.0,5.3794,5.4576,5.5282,5.58,5.6945,5.7309,5.701,5.7345,5.7009,5.6262,5.6257,5.5936,0.0,0.0,0.0,0.0,0.0,0.0,5.4431,0.0,0.0,0.0,0.0,0.0,0.0,0.0,0.0,0.0,0.0,0.0,0.0,0.0,0.0,0.0,0.0,5.8071,5.8898,5.649,5.1854,0.0,0.0,0.0,0.0,3.276,3.128,2.9353,2.5456,2.2903,2.0315,1.7187,1.4455,0.0,0.0,0.0,0.0,0.0,0.0,0.0,0.0,1.0495,0.7711,0.1614,-0.571,-1.2927,-1.9922,-2.4075,-2.6773,-2.7845,-3.0725,-3.3731,-3.6535,-3.7893,-3.9471,-4.106,-4.1225,-4.2835,-4.5388,-4.5126,-4.6613,-4.9344,-4.9038,-4.8907,0.0,-4.8907,-4.9065,-4.9516,-5.0299,-5.0939,-5.1675,-5.2104,-5.2345,-5.2379,0.0,0.0,0.0,0.0,0.0,0.0,0.0,5.2085,5.2791,5.3608,5.3757,5.3794,5.3794,5.3794,5.3794,5.3794,0.0,0.0,0.0,0.0,0.0,0.0,0.0,0.0,5.3794,5.4537,5.4984,5.5099,5.6577,5.6651,5.5341,5.5988,5.59,5.5187,5.5134,5.5233,5.5284,5.4745,5.4494,5.4529,5.4431,5.4431,0.0,0.0,0.0,0.0,0.0,0.0,0.0,0.0,0.0,0.0,0.0,0.0,0.0,0.0,0.0,0.0,0.0,0.0,5.4619,5.3042,4.8387,4.4101,0.0,0.0,0.0,0.0,0.0,0.0,2.2645,2.0772,1.8593,1.429,0.0,0.0,0.0,0.0,0.0,0.0,0.0,0.0,1.1747,0.9093,0.47,-0.12,-0.8412,-1.495,-2.0492,-2.4547,-2.8385,-3.216,-3.2867,-3.4781,-3.8289,-3.8804,-3.9682,-4.106,-4.1464,-4.2762,-4.5005,-4.5005,-4.6467,-4.8907,-4.8907,-4.8907,-4.8907,-4.8907,-4.9359,-5.0121,-5.103,-5.1499,-5.1836,-5.2684,-5.2331,-5.1489,0.0,0.0,0.0,0.0,0.0,0.0,0.0,0.0,0.0,0.0,5.3423,5.3794,5.3794,5.3794,5.3794,0.0,0.0,0.0,0.0,0.0,0.0,0.0,0.0,0.0,5.3794,5.398,5.4723,5.5988,5.5728,5.5899,5.65,5.5764,5.5281,5.4882,5.4641,5.4618,5.4745,5.4557,5.4494,5.4431,5.4045,5.3915,0.0,0.0,0.0,0.0,5.2059,5.1655,0.0,0.0,0.0,0.0,0.0,0.0,0.0,0.0,3.9927,0.0,3.9528,0.0,4.2999,4.1746,3.911,3.6351,0.0,0.0,0.0,0.0,0.0,0.0,0.0,0.0,0.0,0.0,0.0,0.0,0.0,0.0,0.0,0.0,0.786,0.8166,0.8218,0.3859,-0.1217,-0.7077,-1.4648,-2.089,-2.5127,-2.9091,-3.2308,-3.4607,-3.6188,-3.7414,-3.8289,-3.976,-4.0796,-4.106,-4.1152,-4.2645,-4.5005,-4.5005,-4.6467,-4.8907,-4.8907,-4.8907,-4.8907,-4.8907,-4.9359,-5.0098,-5.0642,-5.1175,-5.1742,-5.1847,-5.1706,-5.1441,0.0,0.0,0.0,0.0,0.0,0.0,0.0,0.0,0.0,0.0,0.0,0.0,0.0,0.0,0.0,0.0,0.0,0.0,0.0,0.0,0.0,0.0,0.0,5.3794,5.3794,5.3794,5.4426,5.5689,5.5616,5.5866,5.6337,5.5796,5.5296,5.4827,5.4513,5.4426,5.4494,5.4494,5.4494,5.4431,5.3915,0.0,0.0,0.0,0.0,0.0,5.1729,5.121,0.0,4.845,4.7498,4.6723,0.0,0.0,0.0,0.0,3.6748,3.5168,3.3817,3.5188,3.6796,3.6161,3.4081,3.1898,0.0,0.0,0.0,0.0,0.0,0.0,0.0,0.0,0.0,0.0,0.0,0.0,0.0,0.0,0.0,0.0,0.7235,0.6676,0.0,0.1016,-0.5017,-1.1947,-1.7805,-2.3168,-2.8025,-3.1067,-3.3907,-3.6707,-3.7757,-3.8631,-3.9501,-4.0735,-4.1244,-4.106,-4.19,-4.3222,-4.5005,-4.5657,-4.6951,-4.8907,-4.8907,-4.8907,-4.8907,-4.8907,-4.9673,-5.0698,-5.0658,-5.1245,-5.1982,-5.1633,-5.1345,-5.1081,0.0,0.0,0.0,0.0,0.0,0.0,0.0,0.0,0.0,0.0,0.0,0.0,0.0,0.0,0.0,0.0,0.0,0.0,0.0,0.0,0.0,0.0,5.3794,5.3794,5.3794,5.3943,5.4388,5.5206,5.5949,5.6273,5.6166,5.5858,5.5374,5.4732,5.4548,5.4494,5.4494,5.4494,5.4431,5.4303,5.3749,0.0,0.0,0.0,0.0,0.0,0.0,0.0,0.0,4.7207,4.5903,4.4578,4.1353,0.0,0.0,0.0,0.0,0.0,3.0191,3.1176,3.2845,3.2902,3.0829,2.837,2.6969,0.0,0.0,0.0,0.0,0.0,0.0,0.0,0.0,0.0,0.0,0.0,0.0,0.0,0.0,0.0,0.7437,0.0,0.3693,-0.1614,-0.813,-1.6222,-1.9993,-2.431,-2.9958,-3.2131,-3.4781,-3.8118,-3.8631,-3.9501,-4.106,-4.1409,-4.1409,-4.106,-4.2724,-4.4043,-4.5005,-4.6285,-4.7592,-4.8907,-4.8907,-4.8907,-4.8907,-4.8907,-4.9786,-5.1201,-5.0719,-5.1115,-5.2091,-5.1562,-5.1081,-5.0696,0.0,0.0,0.0,0.0,0.0,0.0,0.0,0.0,0.0,0.0,0.0,0.0,0.0,0.0,0.0,0.0,0.0,0.0,0.0,0.0,0.0,5.3794,5.3794,5.3794,5.3794,5.4463,5.5243,5.6097,5.6246,5.6948,5.8206,5.5962,5.4577,5.3962,5.4337,5.4494,5.4494,5.4494,5.4239,5.3783,5.3213,0.0,0.0,0.0,0.0,0.0,0.0,0.0,0.0,4.5283,4.3733,4.2193,3.827,0.0,0.0,0.0,0.0,0.0,2.7731,2.7233,2.7447,2.7616,2.5768,2.3486,2.2004,0.0,0.0,0.0,0.0,0.0,0.0,0.0,0.0,0.0,0.0,0.0,0.0,0.0,0.5064,0.904,0.0,0.1033,-0.0781,-0.7292,-1.3982,-1.9938,-2.3967,-2.7833,-3.1969,-3.4082,-3.6015,-3.8289,-3.9841,-4.0892,-4.106,-4.1115,-4.1115,-4.106,-4.2421,-4.373,-4.5005,-4.6285,-4.7592,-4.8907,-4.8907,-4.8907,-4.8907,-4.8907,-4.9585,-5.0696,-5.0191,-5.0577,-5.1537,-5.1008,-5.0768,-5.0696,0.0,0.0,0.0,0.0,0.0,0.0,0.0,0.0,0.0,0.0,0.0,0.0,0.0,0.0,0.0,0.0,0.0,0.0,0.0,0.0,5.3608,5.3162,5.3417,5.36,5.3794,5.4611,5.5429,5.632,5.7175,5.8215,5.9287,5.7279,5.5686,5.447,5.4482,5.4494,5.4494,5.4494,5.4175,5.3651,0.0,0.0,0.0,0.0,0.0,0.0,0.0,0.0,0.0,0.0,4.0874,3.8555,3.55,0.0,0.0,0.0,0.0,0.0,2.5845,2.5204,2.4701,2.2776,2.1832,2.0796,1.8249,0.0,0.0,0.0,0.0,0.0,0.0,0.0,0.0,0.0,0.0,0.4163,0.4635,0.4682,0.5113,0.0,0.0,-0.1823,-0.4352,-1.1452,-1.7812,-2.2516,-2.6323,-3.0163,-3.4082,-3.6015,-3.7929,-3.9671,-4.0705,-4.106,-4.106,-4.106,-4.106,-4.106,-4.3195,-4.433,-4.5005,-4.7111,-4.8251,-4.8907,-4.8907,-4.8907,-4.8886,-4.9072,-4.976,-5.0536,-5.0202,-5.0666,-5.1441,-5.0912,-5.0696,-5.0696,0.0,0.0,0.0,0.0,0.0,0.0,0.0,0.0,0.0,0.0,0.0,0.0,0.0,0.0,0.0,0.0,0.0,0.0,0.0,5.3794,5.3534,5.2902,5.3148,5.337,5.3534,5.4608,5.5646,5.658,5.8215,5.9128,5.9374,5.8486,5.6908,5.4648,5.4431,5.4303,5.4303,5.4175,5.3881,5.3416,0.0,0.0,0.0,0.0,0.0,0.0,0.0,0.0,0.0,0.0,0.0,0.0,0.0,0.0,0.0,2.8823,2.8149,2.7035,2.4623,2.4247,2.3788,1.9813,1.9106,1.8384,1.5192,1.2998,0.0,0.0,0.0,0.0,0.0,0.0,0.0,0.0,0.5043,0.4304,0.396,0.4286,0.4273,0.3433,-0.0602,-0.4794,-0.8625,-1.5218,-2.0964,-2.5247,-2.8706,-3.2174,-3.6015,-3.7754,-3.9336,-4.106,-4.1152,-4.1152,-4.106,-4.106,-4.106,-4.106,-4.3691,-4.5005,-4.5169,-4.7752,-4.8907,-4.8886,-4.8776,-4.8733,-4.8689,-4.8963,-4.9616,-5.0191,-5.0149,-5.0673,-5.1249,-5.0864,-5.0696,-5.0696,0.0,0.0,0.0,0.0,0.0,0.0,0.0,0.0,0.0,0.0,0.0,0.0,0.0,0.0,0.0,0.0,0.0,0.0,0.0,5.3794,5.3794,5.372,5.3444,5.3111,5.2717,5.463,5.6256,5.7398,5.9032,5.9164,5.7995,5.8646,5.7175,5.3783,5.3783,5.3783,5.3717,5.3179,5.2905,5.2767,5.1377,0.0,0.0,0.0,0.0,0.0,0.0,0.0,0.0,0.0,0.0,0.0,0.0,0.0,2.848,2.7453,2.7469,2.6968,2.4336,2.4567,2.4454,2.0238,1.7806,0.0,1.3169,1.0922,0.0,0.7417,0.0,0.0,0.0,0.0,0.0,0.0,0.711,0.8113,0.664,0.0,0.1261,0.125,-0.3515,-0.8952,-1.4788,-1.8696,-2.3354,-2.8937,-3.1704,-3.461,-3.7963,-3.894,-3.9878,-4.1079,-4.1445,-4.1464,-4.106,-4.106,-4.106,-4.106,-4.3691,-4.5005,-4.5169,-4.7752,-4.8907,-4.8886,-4.8427,-4.823,-4.8342,-4.8605,-4.8892,-4.9204,-4.987,-5.0435,-5.0768,-5.072,-5.0696,-5.0696,0.0,0.0,0.0,0.0,0.0,0.0,0.0,0.0,0.0,0.0,0.0,0.0,0.0,0.0,0.0,0.0,0.0,0.0,0.0,5.3794,5.3495,5.2782,5.2936,5.2877,5.2674,5.519,5.7063,5.8252,6.0152,6.0298,5.8895,5.9235,5.7444,5.3977,5.4226,5.3924,5.3111,5.2905,5.2279,5.1451,5.0898,4.96,0.0,0.0,0.0,0.0,0.0,0.0,0.0,0.0,3.2268,3.0187,2.79,2.754,2.7713,2.6255,2.6549,2.665,2.4003,2.3468,2.246,1.8101,1.6112,0.0,0.0,1.0688,0.7915,0.6506,0.5092,0.0,0.0,0.0,0.0,0.0,0.4722,0.372,0.3189,0.0848,-0.1474,-0.3765,-0.7987,-1.2604,-1.6995,-2.1952,-2.6375,-2.9628,-3.2763,-3.5812,-3.8118,-3.9766,-4.0673,-4.1079,-4.1225,-4.1225,-4.106,-4.106,-4.1546,-4.2364,-4.4186,-4.5495,-4.6285,-4.777,-4.8449,-4.8427,-4.7946,-4.775,-4.786,-4.8546,-4.8976,-4.9236,-5.01,-5.058,-5.0696,-5.0696,-5.0696,-5.0696,0.0,0.0,0.0,0.0,0.0,0.0,0.0,0.0,0.0,0.0,0.0,0.0,0.0,0.0,0.0,0.0,0.0,0.0,5.3269,5.301,5.2673,5.214,5.2285,5.2623,5.3089,5.5522,5.7523,5.89,6.1117,6.1226,5.9328,5.9245,5.7237,5.3681,5.4126,5.3582,5.2557,5.2098,5.1271,5.0083,4.941,4.7684,0.0,0.0,0.0,0.0,0.0,0.0,0.0,0.0,3.0625,2.8442,2.6574,2.6604,2.7119,2.5513,2.5847,2.633,2.4037,2.291,2.1393,0.0,0.0,0.0,1.4901,1.1473,0.8211,0.6993,0.5158,0.3958,0.4765,0.0,0.0,0.0,0.2605,0.0838,0.0213,-0.1892,-0.4569,-0.7644,-1.2069,-1.6098,-1.9898,-2.4398,-2.8057,-3.052,-3.3792,-3.6475,-3.8118,-4.0261,-4.1317,-4.1079,-4.1189,-4.1189,-4.106,-4.1546,-4.2364,-4.3672,-4.4985,-4.6061,-4.6699,-4.7669,-4.8099,-4.7924,-4.7444,-4.7247,-4.7356,-4.8498,-4.9176,-4.9712,-5.0222,-5.0431,-5.0431,-5.0431,-5.0431,-5.0455,0.0,0.0,0.0,0.0,0.0,0.0,0.0,0.0,0.0,0.0,0.0,0.0,0.0,0.0,0.0,0.0,0.0,0.0,5.2063,5.133,5.1219,5.2026,5.1694,5.2251,5.3981,5.5587,5.7381,5.9394,6.1824,6.1638,5.9078,5.8616,5.6404,5.2836,5.2974,5.2697,5.1915,5.0583,4.9647,4.884,4.6604,4.4337,4.2124,0.0,0.0,0.0,0.0,0.0,0.0,0.0,2.9294,2.8051,2.5518,2.5786,2.6762,2.5157,2.5423,2.5974,2.4643,2.3416,0.0,0.0,0.0,0.0,1.7173,1.3473,1.0106,0.9084,0.738,0.5273,0.3138,0.3386,0.0,0.0923,0.1369,0.1023,-0.1241,-0.472,-0.7715,-0.9832,-1.4932,-1.9889,-2.3851,-2.6017,-2.8578,-3.2499,-3.474,-3.6736,-3.8306,-4.0779,-4.1904,-4.1079,-4.1464,-4.1482,-4.106,-4.2345,-4.3672,-4.5005,-4.6285,-4.6678,-4.6237,-4.7518,-4.7924,-4.7444,-4.6942,-4.6723,-4.683,-4.7999,-4.9245,-5.0648,-5.0095,-4.9878,-4.9854,-4.9878,-4.9878,-4.995,0.0,0.0,0.0,0.0,0.0,0.0,0.0,0.0,0.0,0.0,0.0,0.0,0.0,0.0,0.0,0.0,0.0,0.0,5.1736,5.0968,5.0811,5.1391,5.1294,5.2087,5.3957,5.6685,5.8809,6.0241,6.1017,6.0141,5.783,5.7307,5.5544,5.28,5.3161,5.2302,5.0461,4.9441,4.8131,4.6488,4.4252,4.2205,4.0108,0.0,0.0,0.0,0.0,0.0,0.0,0.0,0.0,0.0,2.4147,2.4037,2.436,2.2659,2.3083,2.3754,2.2354,0.0,0.0,0.0,0.0,0.0,0.0,1.3373,0.0,0.0,0.5129,0.3219,0.1616,0.1482,0.0,-0.0749,-0.177,-0.3066,-0.5121,-0.7316,-1.0622,-1.5314,-1.855,-2.1673,-2.5569,-2.782,-3.0493,-3.4093,-3.5099,-3.6996,-4.0198,-4.0941,-4.1317,-4.106,-4.1189,-4.1676,-4.2345,-4.2844,-4.4146,-4.6285,-4.6434,-4.6859,-4.7696,-4.8009,-4.7728,-4.6942,-4.6789,-4.6526,-4.6348,-4.7863,-4.9034,-5.0143,-5.0359,-4.9998,-4.9397,-5.0167,-5.0215,-4.995,0.0,0.0,0.0,0.0,0.0,0.0,0.0,0.0,0.0,0.0,5.3794,5.3639,0.0,0.0,0.0,0.0,0.0,0.0,0.0,4.9775,4.9703,5.0561,5.121,5.251,5.4681,5.6921,5.8432,5.9152,5.9998,5.924,5.6927,5.6738,5.5349,5.2914,5.314,5.192,4.959,4.8477,4.6315,4.3565,4.1914,3.9779,3.7299,0.0,0.0,0.0,0.0,0.0,0.0,0.0,0.0,0.0,2.2864,2.2731,2.3131,2.1801,2.1659,2.1795,2.1443,0.0,0.0,0.0,0.0,0.0,0.0,0.0,0.0,0.0,0.5078,0.2771,0.0922,-0.0188,0.0,-0.2079,-0.429,-0.6201,-0.7421,-0.9943,-1.3355,-1.778,-2.0609,-2.3362,-2.639,-2.8706,-3.1054,-3.3792,-3.502,-3.688,-3.9841,-4.0705,-4.106,-4.106,-4.106,-4.1714,-4.301,-4.3507,-4.4822,-4.693,-4.7135,-4.7447,-4.7881,-4.7684,-4.7182,-4.6439,-4.6739,-4.6751,-4.6726,-4.8056,-4.8897,-4.9565,-4.9686,-4.9349,-4.8868,-4.9734,-4.983,-4.98,0.0,0.0,0.0,0.0,0.0,0.0,0.0,0.0,0.0,0.0,5.3794,5.3561,0.0,0.0,0.0,0.0,0.0,0.0,0.0,4.8245,4.8413,4.9693,5.1383,5.3374,5.5671,5.6551,5.6984,5.6933,5.8776,5.852,5.6245,5.6536,5.5315,5.2992,5.2831,5.1452,4.9028,4.7229,4.4293,4.0582,3.9651,3.7299,3.4246,3.317,0.0,0.0,0.0,0.0,0.0,0.0,0.0,0.0,2.163,2.1603,2.2566,2.1867,2.0857,2.0269,0.0,0.0,0.0,0.0,0.0,0.0,0.0,0.0,0.0,0.0,0.0,0.307,0.0755,-0.1506,-0.321,-0.3619,-0.6336,-0.8518,-0.8974,-1.2582,-1.6131,-1.8527,-2.1938,-2.4774,-2.6942,-2.8976,-3.0945,-3.2823,-3.4591,-3.6535,-3.846,-4.0198,-4.106,-4.106,-4.1192,-4.1844,-4.3176,-4.4415,-4.5738,-4.7111,-4.8122,-4.8274,-4.7466,-4.7051,-4.657,-4.6068,-4.6913,-4.7377,-4.7666,-4.852,-4.8894,-4.9036,-4.8603,-4.8339,-4.8291,-4.8868,-4.9036,-4.927,0.0,0.0,0.0,0.0,0.0,0.0,0.0,0.0,0.0,0.0,0.0,0.0,0.0,0.0,0.0,0.0,0.0,0.0,0.0,4.8694,4.8675,4.9604,5.1759,5.3583,5.4973,5.6345,5.674,5.624,5.7056,5.6634,5.5192,5.4668,5.3684,5.2411,5.1216,4.9519,4.7318,4.4769,4.2118,3.9651,3.7724,3.5485,3.317,3.2052,3.0568,0.0,0.0,0.0,0.0,0.0,0.0,0.0,2.1505,2.0524,1.9979,1.972,1.9952,2.0243,0.0,0.0,0.0,0.0,0.0,0.0,0.0,0.0,0.0,0.0,0.3074,0.0772,-0.173,-0.269,-0.3844,-0.6353,-0.7759,-0.9532,-1.2752,-1.4451,-1.7223,-2.2103,-2.3525,-2.5264,-2.8691,-3.0807,-3.2764,-3.4408,-3.6543,-3.846,-4.0367,-4.0892,-4.106,-4.106,-4.1729,-4.2848,-4.4494,-4.5123,-4.6395,-4.841,-4.7595,-4.7291,-4.7488,-4.775,-4.74,-4.6548,-4.7069,-4.758,-4.8217,-4.9058,-4.9226,-4.9109,-4.9421,-4.8772,-4.7786,-4.8724,-4.882,-4.8555,0.0,0.0,0.0,0.0,0.0,0.0,0.0,0.0,0.0,0.0,0.0,0.0,0.0,0.0,0.0,0.0,0.0,0.0,0.0,0.0,4.8938,5.0745,5.2312,5.3613,5.4583,5.4957,5.4979,5.4618,5.411,5.3917,5.4042,5.3506,5.286,5.1907,5.019,4.8239,4.6166,4.3612,4.0951,3.8194,3.5922,3.4069,3.2374,3.0684,2.9294,2.848,2.802,0.0,0.0,0.0,0.0,0.0,0.0,0.0,1.9157,1.9531,1.9267,1.8967,0.0,0.0,0.0,0.0,0.0,0.0,0.0,0.0,0.0,0.0,-0.0767,-0.1737,-0.2882,-0.4222,-0.5753,-0.7093,-0.9228,-1.1724,-1.5066,-1.6763,-1.9692,-2.4629,-2.5252,-2.6509,-2.9322,-3.1473,-3.3496,-3.5051,-3.7125,-3.916,-4.106,-4.106,-4.0969,-4.0785,-4.1707,-4.2903,-4.4362,-4.5188,-4.6464,-4.8208,-4.7466,-4.7094,-4.7116,-4.7138,-4.6854,-4.6374,-4.732,-4.7804,-4.8131,-4.9015,-4.9006,-4.87,-4.8724,-4.8219,-4.7593,-4.8411,-4.8531,-4.8498,0.0,0.0,0.0,0.0,0.0,0.0,0.0,0.0,0.0,0.0,0.0,0.0,0.0,0.0,0.0,0.0,0.0,0.0,0.0,0.0,0.0,5.1829,5.2495,5.3186,5.4004,5.3078,5.2537,5.2468,5.101,5.0927,5.2316,5.2433,5.1965,5.0911,4.9284,4.7261,4.4976,4.2913,4.0227,3.7106,3.5046,3.3359,3.1828,2.9599,2.8487,2.814,2.7574,2.6305,2.4949,2.3634,0.0,0.0,0.0,0.0,1.9205,1.9869,1.8749,1.7651,0.0,0.0,0.0,0.0,0.0,0.0,0.0,0.0,0.0,0.0,-0.4206,-0.3647,-0.3805,-0.5876,-0.7383,-0.7565,-1.0761,-1.412,-1.6695,-1.9147,-2.2242,-2.5997,-2.6737,-2.7708,-2.9771,-3.1682,-3.377,-3.5745,-3.7656,-3.9395,-4.095,-4.095,-4.0767,-4.0382,-4.1732,-4.2856,-4.3698,-4.4951,-4.6215,-4.7488,-4.74,-4.7094,-4.6592,-4.6177,-4.6151,-4.6299,-4.7794,-4.8269,-4.7975,-4.8867,-4.8892,-4.8363,-4.7834,-4.7569,-4.7545,-4.8002,-4.8147,-4.8463,0.0,0.0,0.0,0.0,0.0,0.0,0.0,0.0,0.0,0.0,5.3639,5.3561,0.0,0.0,0.0,0.0,0.0,0.0,0.0,0.0,0.0,5.121,5.1296,5.1625,5.2391,5.1284,5.039,4.9841,4.8732,4.8426,4.8948,5.0437,5.0184,4.8494,4.7691,4.5977,4.3589,4.1875,3.9962,3.7996,3.5931,3.3651,3.1387,2.9959,2.8605,2.7401,2.7809,2.6736,2.4996,2.3903,2.2427,0.0,0.0,0.0,1.9096,1.9205,1.8703,1.8096,0.0,0.0,0.0,0.0,0.0,0.0,0.0,0.0,0.0,0.0,-0.5441,-0.3954,-0.6389,-0.6715,-0.76,-1.0548,-1.3285,-1.5825,-1.838,-2.0896,-2.3475,-2.5913,-2.646,-2.7763,-3.1153,-3.3041,-3.5055,-3.7234,-3.9174,-4.038,-4.0547,-4.0547,-4.0363,-3.9942,-4.1791,-4.3178,-4.3678,-4.5227,-4.6485,-4.7488,-4.7051,-4.657,-4.609,-4.6024,-4.6448,-4.7038,-4.7941,-4.8766,-4.9224,-4.9695,-4.9445,-4.8916,-4.8387,-4.7906,-4.7521,-4.7569,-4.7617,-4.775,0.0,0.0,0.0,0.0,0.0,0.0,0.0,0.0,0.0,0.0,0.0,5.3359,0.0,0.0,0.0,0.0,0.0,0.0,0.0,0.0,0.0,4.9885,4.9586,4.9655,4.9942,4.7958,4.6816,4.648,4.5551,4.5367,0.0,4.7732,4.8728,4.8728,4.7044,4.5692,4.4519,4.133,3.9672,3.8957,3.5337,3.3546,3.2734,3.0291,2.9101,2.8657,2.878,2.757,2.5753,2.4447,2.2822,2.1168,1.9749,0.0,0.0,0.0,1.8091,0.0,0.0,0.0,0.0,0.0,0.0,0.0,0.0,0.0,0.0,0.0,-0.866,-0.8644,-0.8901,-1.0345,-1.1969,-1.3327,-1.6363,-1.941,-2.206,-2.3504,-2.5017,-2.7232,-2.7797,-2.8897,-3.1164,-3.3491,-3.5476,-3.7521,-3.9635,-4.0712,-4.0473,-4.0473,-4.018,-3.952,-4.1678,-4.2973,-4.2933,-4.4996,-4.6221,-4.6658,-4.6439,-4.6068,-4.5609,-4.6051,-4.649,-4.6782,-4.7653,-4.8372,-4.9015,-4.9049,-4.9012,-4.8988,-4.8171,-4.7714,-4.7497,-4.7497,-4.7497,-4.7762,0.0,0.0,0.0,0.0,0.0,0.0,0.0,0.0,0.0,0.0,0.0,0.0,0.0,0.0,0.0,0.0,0.0,0.0,0.0,0.0,0.0,4.8285,4.8102,4.7768,4.7286,4.4891,4.3537,4.3227,4.2382,0.0,4.3157,4.5036,4.6877,0.0,4.6757,4.5635,4.4875,4.122,3.9516,3.8935,3.488,3.3436,3.3311,3.0772,2.9846,2.9864,2.9598,2.8323,2.6534,2.4918,2.3105,2.1504,2.0144,1.9711,0.0,0.0,0.0,0.0,0.0,0.0,0.0,0.0,0.0,0.0,0.0,0.0,0.0,0.0,-1.2362,-1.356,-1.3107,-1.4383,-1.586,-1.6159,-1.9142,-2.2319,-2.4463,-2.5442,-2.6512,-2.8353,-2.8751,-2.968,-3.1777,-3.346,-3.5684,-3.8195,-3.9431,-3.9934,-3.9645,-3.9627,-3.9249,-3.8437,-4.1248,-4.2672,-4.235,-4.4784,-4.5937,-4.5828,-4.5828,-4.5735,-4.542,-4.5978,-4.6344,-4.666,-4.7344,-4.8192,-4.8944,-4.8451,-4.8603,-4.8964,-4.7906,-4.7497,-4.7497,-4.7497,-4.763,-4.8133,0.0,0.0,0.0,0.0,0.0,0.0,0.0,0.0,0.0,0.0,0.0,0.0,5.3315,5.2809,5.229,5.1911,5.1292,5.0059,4.7965,4.9027,4.8777,4.6531,4.694,0.0,4.4527,4.2671,4.1287,4.0514,0.0,0.0,4.1235,4.2834,4.4388,4.5816,4.6556,4.5651,4.3306,0.0,0.0,3.7133,3.5323,3.3753,3.2354,3.1774,3.0963,3.0307,3.0307,2.9025,2.6931,2.5171,2.3466,2.1853,2.0475,2.0106,1.9851,0.0,0.0,0.0,0.0,0.0,0.0,0.0,0.0,0.0,0.0,0.0,0.0,0.0,-1.6402,-1.7065,-2.0076,-1.8627,-1.7572,-1.9379,-2.1628,-2.3354,-2.388,-2.6179,-2.7813,-2.8203,-2.8444,-2.9957,-3.3573,-3.3651,-3.5377,-4.0032,-3.8434,-3.7359,-3.7342,-3.7342,-3.6998,-3.6207,-4.0158,-4.237,-4.235,-4.4784,-4.5784,-4.5347,-4.5347,-4.5521,-4.5609,-4.5752,-4.6211,-4.7024,-4.7654,-4.8565,-4.9782,-4.8724,-4.8603,-4.8964,-4.7906,-4.7497,-4.7497,-4.7497,-4.8133,-4.9023,0.0,0.0,0.0,0.0,0.0,0.0,0.0,0.0,0.0,0.0,0.0,0.0,0.0,5.3068,5.2537,5.1997,5.0861,4.9693,4.8576,4.8413,4.7668,4.6191,4.5552,4.445,4.2575,4.0715,3.934,3.8509,3.8137,3.8403,3.934,4.1154,4.2658,4.394,4.499,4.4834,4.3808,4.0958,0.0,3.7178,3.5549,3.4298,3.332,3.2004,3.1733,0.0,0.0,0.0,0.0,0.0,2.6247,2.4903,2.2681,2.1864,2.1069,1.7602,1.3404,0.0,0.0,0.0,0.0,0.0,0.0,0.0,0.0,0.0,0.0,0.0,-2.0173,-2.2341,-2.4644,-2.2911,-2.1262,-2.1792,-2.4085,-2.5884,-2.6227,-2.758,-2.8592,-2.847,-2.9533,-3.1183,-3.3439,-3.467,-3.6215,-3.7795,-3.7422,-3.6524,-3.5278,-3.587,-3.6183,-3.5669,-3.9471,-4.2256,-4.3743,-4.4646,-4.5019,-4.4845,-4.4845,-4.5014,-4.5236,-4.5658,-4.622,-4.6711,-4.7305,-4.8092,-4.882,-4.8459,-4.8411,-4.8507,-4.7786,-4.7497,-4.763,-4.8264,-4.8657,-4.9332,0.0,0.0,0.0,0.0,0.0,0.0,0.0,0.0,0.0,5.2785,0.0,0.0,0.0,0.0,5.1959,5.1048,4.9786,4.8803,4.8126,4.7746,4.6789,4.517,4.459,4.3122,4.064,3.9191,3.8073,3.7096,3.6932,3.7214,3.8005,3.9184,4.0244,4.1087,4.1559,4.2134,4.2562,0.0,0.0,3.5323,3.4656,3.3737,3.2676,0.0,0.0,0.0,0.0,0.0,0.0,0.0,2.8517,2.7553,2.4396,2.2129,2.0017,1.655,1.1942,0.0,0.5175,0.0,0.0,0.0,0.0,0.0,0.0,0.0,0.0,0.0,-2.4036,-2.6424,-2.8659,-2.7667,-2.6393,-2.6081,-2.7247,-2.8446,-2.8459,-2.8778,-2.8938,-2.8644,-3.0099,-3.184,-3.3423,-3.5325,-3.6491,-3.6748,-3.6372,-3.5161,-3.3255,-3.4392,-3.5755,-3.7294,-3.9639,-4.2207,-4.4582,-4.4582,-4.443,-4.4124,-4.4277,-4.456,-4.4889,-4.5485,-4.6192,-4.6831,-4.7423,-4.7954,-4.8267,-4.8098,-4.8122,-4.8243,-4.8088,-4.8002,-4.8133,-4.9177,-4.9797,-5.0359,0.0,0.0,0.0,0.0,0.0,0.0,0.0,0.0,5.1708,5.1744,0.0,0.0,0.0,0.0,0.0,4.9069,4.8158,4.7324,4.6573,4.7169,4.6232,4.3413,4.3975,4.2544,3.8896,3.8275,3.7445,3.6277,3.5772,3.6048,3.7012,3.6698,3.6814,3.7156,3.623,3.713,3.9226,0.0,3.3872,3.1662,0.0,3.2074,3.0479,0.0,0.0,0.0,3.2349,3.2368,0.0,3.0548,3.0096,2.9308,2.5482,2.0993,1.6721,1.5245,1.0616,0.5604,0.0,0.0,0.0,0.0,0.0,0.0,0.0,0.0,0.0,0.0,0.0,-2.8662,-3.2125,-3.2858,-3.2694,-3.2201,-3.1357,-3.0566,-3.0566,-2.9694,-2.8938,-2.8657,-3.0269,-3.2083,-3.3889,-3.5225,-3.6303,-3.7039,-3.5079,-3.3057,-3.141,-3.2566,-3.5566,-4.0853,-4.0982,-4.2166,-4.4539,-4.4539,-4.4058,-4.3163,-4.3599,-4.413,-4.4543,-4.5048,-4.6113,-4.7521,-4.8026,-4.8243,-4.8219,-4.7738,-4.781,-4.8353,-4.8854,-4.9023,-4.9152,-5.0206,-5.122,-5.2192,0.0,0.0,0.0,0.0,0.0,0.0,5.1672,5.1708,5.1912,0.0,0.0,0.0,5.3186,5.2505,5.164,5.0594,4.97,4.8843,4.807,4.757,4.6343,4.4152,4.4228,4.2544,3.8896,3.8644,3.7805,3.6277,3.6117,3.6208,3.6484,3.5557,3.5356,3.5663,3.2525,3.1624,3.2512,3.3769,0.0,2.9811,3.32,3.3367,0.0,0.0,0.0,0.0,0.0,3.279,3.2648,0.0,3.2283,2.9119,2.5891,2.2088,1.8052,1.44,1.0019,0.5483,0.1051,0.0,0.0,0.0,0.0,0.0,0.0,0.0,0.0,0.0,0.0,-3.0617,-3.3951,-3.4825,-3.5494,-3.6654,-3.4552,-3.2429,-3.1066,-3.1195,-3.1296,-3.0809,-3.2233,-3.3644,-3.5355,-3.6885,-3.692,-3.4654,-3.3916,-3.2716,-3.1086,-3.3885,-3.694,-3.9951,-4.0925,-4.2094,-4.3578,-4.3206,-4.2879,-4.2617,-4.2945,-4.3354,-4.4015,-4.4705,-4.5644,-4.6944,-4.7088,-4.7377,-4.7738,-4.7978,-4.8331,-4.8854,-4.8967,-4.9411,-5.0334,-5.132,-5.1819,-5.2324,0.0,0.0,0.0,0.0,0.0,0.0,5.2172,5.1967,5.2095,0.0,0.0,0.0,5.2471,5.2407,5.1704,5.0229,4.9568,4.8953,4.8103,4.7163,4.5987,4.4406,4.3504,4.1736,3.8896,3.8258,3.7416,3.6277,3.6071,3.5831,3.5488,3.4246,3.3586,3.3247,3.0424,2.872,2.7992,0.0,0.0,0.0,3.1671,0.0,0.0,3.3725,3.4238,0.0,0.0,0.0,3.4907,3.6385,3.407,3.0049,2.6358,2.2139,1.7692,1.2855,0.8096,0.3271,-0.1577,-0.6304,-1.0431,0.0,0.0,0.0,-2.1155,-2.3104,-2.5499,0.0,-3.1323,-3.2809,-3.5661,-3.6359,-3.7044,-3.8189,-3.6933,-3.488,-3.2508,-3.2946,-3.291,-3.1593,-3.3672,-3.5427,-3.5884,-3.6992,-3.6402,-3.3768,-3.2959,-3.2174,-3.1586,-3.4666,-3.7539,-3.959,-4.0841,-4.1997,-4.3184,-4.2682,-4.2311,-4.2114,-4.2504,-4.3035,-4.3487,-4.437,-4.5432,-4.6391,-4.6607,-4.6896,-4.7233,-4.8488,-4.9018,-4.9023,-4.9925,-5.0689,-5.1372,-5.2607,-5.3058,-5.3342,0.0,0.0,0.0,0.0,0.0,0.0,5.2837,5.2286,5.2144,0.0,5.2603,5.2135,5.1582,5.2024,5.1359,4.9061,4.8742,4.8324,4.7396,4.6344,4.5326,4.4312,4.2517,4.064,3.8792,3.7493,3.665,3.6145,3.5603,3.5061,3.4246,3.2964,3.1822,3.0704,2.9431,2.7592,2.583,0.0,0.0,2.7878,2.9413,3.0601,0.0,0.0,3.3853,3.3193,3.4642,3.6029,3.7187,3.7241,3.5002,3.1366,2.6643,2.1477,1.6152,1.0588,0.5033,-0.0133,-0.4375,-0.9013,-1.3177,-1.4677,-1.7087,0.0,-2.2868,-2.4721,-2.7145,-3.1893,-3.3145,-3.4229,-3.612,-3.6569,-3.6714,-3.7022,-3.7529,-3.694,-3.4504,-3.463,-3.4296,-3.2005,-3.4844,-3.6748,-3.6385,-3.6155,-3.5321,-3.3826,-3.2358,-3.1753,-3.255,-3.5314,-3.769,-3.959,-4.0841,-4.1997,-4.3184,-4.2617,-4.2114,-4.1677,-4.2371,-4.2741,-4.3111,-4.422,-4.5124,-4.5862,-4.6391,-4.668,-4.7133,-4.9158,-4.9781,-4.9411,-5.1398,-5.2297,-5.2474,-5.4024,-5.4487,-5.4692,0.0,0.0,0.0,0.0,0.0,0.0,0.0,5.2052,5.2027,5.2316,5.2806,5.3114,5.3003,5.3089,5.2193,4.9757,4.9584,4.8953,4.7396,4.6344,4.5326,4.4312,4.2517,4.064,3.8792,3.7853,3.6549,3.4825,3.4714,3.4137,3.2964,3.1727,3.1053,3.0704,2.8444,2.7349,2.7199,0.0,0.0,2.9103,2.9705,0.0,3.2551,3.4257,3.5155,3.554,3.5852,3.5484,3.4733,3.3508,3.253,3.0823,2.5054,2.0086,1.499,0.7098,0.183,-0.2764,-0.7992,-1.2789,-1.6477,-1.7098,-1.8816,0.0,-2.1394,-2.2416,-2.384,0.0,0.0,0.0,-3.0557,-3.1343,-3.1676,-3.1571,-3.2292,-3.3652,-3.5719,-3.622,-3.6089,-3.546,-3.5882,-3.6667,-3.7986,-3.6815,-3.5383,-3.3656,-3.3164,-3.2702,-3.2316,-3.6296,-3.8966,-3.9734,-4.0841,-4.1997,-4.3184,-4.2289,-4.1786,-4.1677,-4.2204,-4.2418,-4.2431,-4.3836,-4.475,-4.5309,-4.5838,-4.7053,-4.8794,-5.0456,-5.0818,-5.0512,-5.2119,-5.3308,-5.4051,-5.4433,-5.4487,-5.4445,0.0,0.0,0.0,0.0,0.0,0.0,0.0,5.2569,5.2524,5.3721,5.4233,5.4229,5.35,5.3732,5.28,5.0058,5.0229,4.9519,4.7452,4.6285,4.5121,4.376,4.1413,3.9546,3.8161,3.675,3.5553,3.4469,3.3888,3.2964,3.1727,3.1053,3.0702,3.0389,2.8781,2.8167,0.0,0.0,2.7781,2.9189,3.0135,0.0,3.3633,3.4862,3.5577,3.5889,3.5687,3.5643,3.5641,3.3898,3.2033,2.9038,2.1984,1.6108,1.0451,0.3636,-0.188,-0.6581,-1.0575,-1.4447,-1.7607,-1.85,-2.0195,0.0,0.0,-2.456,-2.592,-2.719,-2.8109,0.0,0.0,0.0,-2.9595,-2.9757,-3.0534,-3.1701,-3.3404,-3.5282,-3.5977,-3.4998,-3.6465,-3.7525,-3.733,-3.5689,-3.3624,-3.1175,-3.2505,-3.2996,-3.2458,-3.7075,-3.9662,-3.9734,-4.1431,-4.2581,-4.3184,-4.218,-4.1699,-4.1677,-4.213,-4.2293,-4.2293,-4.3701,-4.4491,-4.478,-4.5573,-4.6841,-4.843,-5.0537,-5.1511,-5.1966,-5.3581,-5.4575,-5.4976,-5.5274,-5.4943,-5.4252,0.0,0.0,0.0,0.0,0.0,0.0,0.0,5.3009,5.2977,5.503,5.5629,5.5421,5.4361,5.5057,5.4448,5.1726,5.2009,5.1232,4.8551,4.6992,4.543,4.3684,4.0465,3.8445,3.7786,3.5643,3.4246,3.3797,3.2737,3.1612,3.047,3.047,3.0263,2.9947,2.9434,2.9313,0.0,0.0,0.0,2.9657,0.0,3.2797,3.3927,3.4825,3.5247,3.5357,3.4903,3.5476,3.6104,3.383,3.0549,2.5937,1.8335,1.176,0.5656,0.0276,-0.5131,-0.996,-1.2507,-1.5482,-1.8148,-1.8956,-2.0742,-2.2777,0.0,0.0,0.0,-2.8377,0.0,0.0,0.0,0.0,0.0,0.0,0.0,0.0,0.0,-3.2332,0.0,-3.3098,-3.6333,-3.7739,-3.54,-3.3742,-3.1482,-2.8574,-3.1152,-3.2743,-3.2506,-3.7196,-3.9865,-3.9734,-4.1735,-4.3023,-4.3184,-4.218,-4.1699,-4.1677,-4.213,-4.2293,-4.2293,-4.3701,-4.4395,-4.4563,-4.5621,-4.6816,-4.8359,-5.056,-5.2182,-5.362,-5.4673,-5.5213,-5.5249,-5.5472,-5.4618,-5.3605,5.6546,5.5596,0.0,0.0,5.2904,5.2673,5.3394,5.2815,5.2948,5.4369,5.5795,5.6746,5.7243,5.8535,5.8938,5.7761,5.7177,5.5569,5.2471,4.9851,4.7586,4.5748,4.131,3.8679,3.8564,3.587,3.3438,3.1169,3.1053,3.0353,2.9213,2.9213,2.9149,2.914,2.9782,0.0,0.0,0.0,3.2784,0.0,3.458,3.386,0.0,3.3046,3.3927,3.4481,3.3792,3.3353,3.2688,2.8834,2.4961,2.0686,1.4873,0.9049,0.3443,-0.2348,-0.7382,-1.1594,-1.4218,-1.7177,-1.9279,-1.8007,-1.9745,-2.1416,-2.0412,0.0,-2.4268,-2.3228,0.0,0.0,0.0,0.0,0.0,0.0,0.0,0.0,-2.4131,-2.6561,-2.9051,-3.0868,-3.4189,-3.5333,-3.2738,-3.0928,-2.9281,-2.7929,-3.0211,-3.1681,-3.1763,-3.6316,-3.9131,-3.9734,-4.0983,-4.2138,-4.3184,-4.218,-4.1699,-4.1677,-4.213,-4.2293,-4.2293,-4.3701,-4.4611,-4.5116,-4.615,-4.8312,-5.11,-5.1348,-5.3043,-5.5182,-5.4361,-5.4281,-5.4549,-5.314,-5.2541,-5.2177,5.6166,5.4887,0.0,0.0,5.1764,5.1078,5.3102,5.3897,5.4328,5.4494,5.5786,5.6812,5.7111,0.0,0.0,0.0,0.0,5.6579,0.0,0.0,4.9552,4.608,4.1895,3.9074,3.7844,3.4891,3.2509,3.082,3.0138,2.945,2.8975,2.8241,2.8492,2.9709,2.9511,0.0,3.1634,0.0,3.3345,0.0,0.0,0.0,0.0,3.389,3.4532,3.4262,3.2768,3.2107,3.1262,2.6683,2.2499,1.7965,1.1973,0.5567,-0.0566,-0.4529,-0.8884,-1.272,-1.3561,-1.55,-1.7349,-1.7272,-1.9434,-2.1489,-2.1325,-2.3148,-2.4501,-2.3227,0.0,0.0,0.0,0.0,0.0,0.0,-2.2178,-2.2739,0.0,0.0,-2.746,-2.8857,-3.1001,-3.1869,-3.0406,-2.9254,-2.8725,-2.9142,-3.0673,-3.213,-3.305,-3.6961,-3.9314,-3.9714,-4.1431,-4.2721,-4.3184,-4.218,-4.1699,-4.1677,-4.213,-4.2293,-4.2293,-4.401,-4.4924,-4.5188,-4.6247,-4.8028,-5.0046,-5.0131,-5.1469,-5.3529,-5.2075,-5.2642,-5.4204,-5.3413,-5.2394,-5.128,5.5362,0.0,0.0,0.0,5.0681,4.9927,5.2434,5.3897,5.4692,5.4527,5.5786,0.0,5.7806,5.8138,0.0,0.0,6.0717,5.9741,0.0,0.0,5.2153,4.9001,4.3612,0.0,0.0,3.5224,3.2374,3.1129,2.9667,2.8856,2.8379,2.7504,2.78,2.9259,0.0,3.0142,3.2331,0.0,0.0,3.334,3.4622,3.426,3.3303,3.4623,3.4825,3.4066,3.1907,3.071,2.936,2.3941,1.9371,1.4884,0.8877,0.2622,-0.3137,-0.5956,-0.9701,-1.2959,-1.3038,-1.4618,-1.652,-1.6781,-1.9149,-2.1463,-2.177,-2.3365,-2.447,-2.3167,-2.274,0.0,0.0,0.0,-2.1049,-2.1275,0.0,-2.2111,0.0,-2.3784,0.0,0.0,-2.7357,-2.8191,-2.8468,-2.7917,-2.8151,-2.9804,-3.1307,-3.2501,-3.3856,-3.7587,-3.9714,-3.9714,-4.2018,-4.3184,-4.3184,-4.218,-4.1834,-4.1946,-4.226,-4.242,-4.2696,-4.423,-4.5068,-4.5405,-4.6319,-4.7719,-4.9271,-4.9027,-5.0074,-5.1651,-5.0215,-5.0787,-5.2624,-5.2472,-5.1514,-5.0171,5.3697,5.2233,0.0,0.0,0.0,4.9624,5.1115,0.0,0.0,0.0,0.0,0.0,0.0,0.0,0.0,0.0,0.0,6.7433,6.5115,0.0,5.6146,5.6745,4.6963,4.2605,0.0,0.0,3.3332,3.2064,2.9982,2.8361,2.7021,2.7021,2.7039,2.7107,2.8329,2.9842,3.1617,3.4126,3.5097,3.5097,3.636,3.655,3.5907,3.444,3.4092,3.3961,3.0904,2.8588,2.5912,1.9482,1.4753,1.0534,0.547,0.1023,-0.3001,-0.6234,-0.9682,-1.2553,-1.3255,-1.583,-1.8023,-1.6713,-1.8512,-2.0589,-2.0131,-2.1658,-2.2827,-2.1461,-2.1933,-2.2057,-2.04,-2.0361,-2.0615,-2.0615,-2.1133,0.0,0.0,0.0,0.0,-2.2149,-2.2983,-2.4378,-2.6891,-2.7056,-2.7744,-2.9236,-3.1463,-3.3008,-3.322,-3.7264,-3.9714,-3.9714,-4.2018,-4.3184,-4.3184,-4.218,-4.2081,-4.2616,-4.2389,-4.2673,-4.3326,-4.3974,-4.4924,-4.5934,-4.6487,-4.7938,-4.9843,-4.9339,-4.9694,-5.0638,-4.9582,-4.9221,-4.9197,-4.8691,-4.8608,-4.8853,0.0,0.0,0.0,0.0,0.0,0.0,0.0,5.1612,0.0,0.0,0.0,0.0,0.0,6.6287,6.7943,0.0,0.0,6.871,6.6944,6.1974,0.0,0.0,0.0,4.4372,0.0,0.0,0.0,3.3912,3.1384,2.9512,2.8134,2.6503,2.5668,2.5733,0.0,2.7547,0.0,0.0,0.0,0.0,0.0,3.1938,3.1845,3.3893,3.4108,3.2959,3.0274,2.768,2.4422,1.9297,1.4613,1.0173,0.5588,0.0448,-0.4417,-0.6567,-1.0191,-1.3745,-1.405,-1.6021,-1.8,-1.7412,-1.8732,-2.0099,-1.9683,-2.0385,-2.1107,-2.0561,-1.9751,-1.9401,-1.9992,-1.9444,-1.9304,-2.0348,-2.0821,-2.1383,0.0,-2.2959,-2.3394,-2.3843,0.0,0.0,-2.7043,-2.809,-2.9179,-3.0904,-3.2363,-3.3526,-3.4716,-3.8263,-3.9996,-3.9714,-4.2614,-4.3971,-4.3643,-4.266,-4.243,-4.3107,-4.2548,-4.2673,-4.3326,-4.4332,-4.5261,-4.5958,-4.6487,-4.7569,-4.878,-4.8233,-4.8622,-4.9425,-4.9693,-4.9306,-4.8792,-4.9034,-4.9228,-4.9695,5.2483,0.0,0.0,0.0,0.0,0.0,0.0,0.0,0.0,0.0,6.0589,0.0,6.7877,0.0,7.0163,0.0,7.2248,7.0792,6.8633,6.4673,0.0,6.0107,5.2147,0.0,0.0,0.0,0.0,0.0,0.0,2.9998,2.8295,2.5562,2.4317,2.4363,0.0,2.5802,2.7385,0.0,2.9122,0.0,0.0,2.9121,2.9179,3.2159,3.2457,3.0783,2.8388,2.5805,2.2843,1.8059,1.365,0.9434,0.5125,0.0153,-0.4481,-0.7284,-1.0775,-1.4034,-1.5095,-1.6964,-1.8662,-1.867,-1.9461,-2.0173,-1.9939,-2.0039,-2.0068,-2.0142,-1.864,-1.8165,-2.0232,-1.9042,-1.8618,-2.1123,-2.1437,-2.1769,0.0,-2.3975,-2.4715,-2.544,0.0,0.0,0.0,-2.8542,-2.9732,-3.167,-3.2718,-3.3659,-3.4972,-3.7885,-3.9559,-3.9714,-4.2457,-4.3911,-4.3862,-4.3075,-4.2919,-4.3489,-4.286,-4.2985,-4.3725,-4.4433,-4.514,-4.5669,-4.6199,-4.692,-4.7714,-4.7702,-4.8328,-4.9257,-4.9511,-4.9515,-4.9511,-4.9949,-5.0223,-5.0675,0.0,0.0,0.0,0.0,4.8431,0.0,0.0,0.0,5.4394,0.0,6.1616,6.4531,6.9633,7.1455,7.2978,7.4672,7.5101,7.394,7.0548,6.7354,0.0,0.0,5.6633,5.4063,5.6964,0.0,0.0,0.0,0.0,0.0,0.0,0.0,0.0,0.0,2.3493,0.0,2.5297,2.5941,2.6154,2.5962,2.7409,2.7719,2.7744,2.9164,2.896,2.7586,2.5333,2.3324,2.0911,1.548,1.1349,0.7799,0.3597,-0.0,-0.3903,-0.8557,-1.1448,-1.37,-1.6587,-1.8601,-1.996,-2.0376,-2.059,-2.0772,-2.0861,-2.036,-1.9905,-1.9917,-1.865,-1.8295,-2.1006,-1.931,-1.8806,0.0,-2.2865,-2.3044,-2.3952,-2.438,-2.5098,-2.6439,-2.5489,0.0,0.0,-2.8467,-2.9252,-3.1705,-3.2698,-3.3358,0.0,-3.6455,-3.8516,-3.9714,-4.1772,-4.3209,-4.3905,-4.3447,-4.3414,-4.3768,-4.3196,-4.3461,-4.4271,-4.4223,-4.4535,-4.5213,-4.5694,-4.6223,-4.6752,-4.7652,-4.8843,-4.9952,-4.9515,-5.013,-5.1242,-5.1142,-5.1294,-5.1793,5.0429,4.8592,4.7557,0.0,4.759,4.7785,0.0,0.0,0.0,0.0,6.6386,7.049,7.5304,7.6428,7.7229,7.8114,7.6457,0.0,0.0,0.0,0.0,6.4357,5.7192,5.3937,5.5795,4.8205,0.0,4.3481,0.0,0.0,2.7366,0.0,0.0,0.0,0.0,0.0,2.0814,2.1343,2.1847,2.2419,2.2443,2.2271,2.2048,2.2505,2.2367,2.2005,2.4123,2.1662,1.7069,1.4475,1.0103,0.4995,0.1717,-0.3447,-0.8816,-1.1071,-1.4959,-1.8631,-1.9284,-2.0769,-2.1977,-2.1462,-2.1317,-2.1144,-2.0404,-2.0258,-2.0231,-2.0424,-1.9438,-1.8883,-2.0054,-1.9004,-1.8604,-2.0671,-2.2885,-2.4472,-2.4844,-2.6019,-2.7089,-2.7452,-2.7723,-2.8122,-2.8792,-2.94,-2.994,-3.0644,-3.1689,-3.2881,-3.4183,-3.6058,-3.8171,-4.0137,-4.2559,-4.4018,-4.4408,-4.3927,-4.3801,-4.412,-4.2857,-4.2853,-4.4017,-4.3765,-4.4325,-4.5718,-4.5862,-4.6352,-4.7094,-4.8224,-4.9368,-5.0591,-5.1573,-5.2836,-5.3779,-5.2464,-5.226,-5.2876,5.0598,0.0,0.0,4.8231,0.0,0.0,5.2735,5.3898,0.0,6.3989,6.7995,0.0,7.6073,7.8503,7.9661,7.9049,7.8188,0.0,7.2078,0.0,0.0,6.373,5.9379,5.7174,5.7487,5.1168,0.0,4.5083,0.0,0.0,2.6494,0.0,0.0,0.0,0.0,1.7686,1.7693,1.7937,1.8192,1.8698,1.9263,1.927,0.0,2.0114,1.9761,1.9202,2.067,1.8872,1.5327,1.2637,0.7867,0.2672,-0.0317,-0.5852,-1.171,-1.3262,-1.6879,-2.0396,-2.1232,-2.2212,-2.273,-2.2138,-2.1993,-2.1716,-2.0641,-2.0702,-2.1016,-2.116,-2.0198,-1.9703,-2.1269,-1.9735,-1.8898,-2.0848,-2.3747,-2.5754,-2.5735,-2.6554,-2.7337,-2.7746,-2.7937,-2.8228,-2.8443,-2.9342,-2.9929,-2.9929,-3.0736,-3.1524,-3.2258,-3.4546,-3.6617,-3.8601,-4.1305,-4.3171,-4.3692,-4.3816,-4.3933,-4.3892,-4.3105,-4.315,-4.395,-4.3813,-4.441,-4.5363,-4.5731,-4.6251,-4.7076,-4.8409,-4.9816,-5.1292,-5.3097,-5.4165,-5.4524,-5.4227,-5.4074,-5.429,0.0,0.0,0.0,0.0,0.0,0.0,0.0,5.6525,0.0,6.5692,0.0,7.1866,7.5437,7.9187,8.0734,7.8946,0.0,7.7025,7.0352,7.1502,6.9579,6.2949,6.2265,6.1389,6.031,5.4787,5.0142,0.0,0.0,0.0,0.0,0.0,0.0,0.0,0.0,0.0,0.0,1.5554,1.5447,1.5524,1.7235,1.775,1.7799,1.9533,1.9294,1.7709,1.6546,1.568,1.4641,1.0297,0.5439,0.0793,-0.2414,-0.7836,-1.3468,-1.5491,-1.7981,-2.0558,-2.2508,-2.2778,-2.2597,-2.2597,-2.2597,-2.2355,-2.1426,-2.1607,-2.1981,-2.2017,-2.0966,-2.0751,-2.3079,-2.0885,-1.9492,-2.2267,-2.4914,-2.6598,-2.6699,-2.6681,-2.6982,-2.764,-2.7571,0.0,-2.7614,-2.8737,-2.9397,-2.9342,-2.9672,-2.9892,-2.9892,-3.2551,-3.4976,-3.6794,-3.9599,-4.1677,-4.2941,-4.3573,-4.3889,-4.3465,-4.3621,-4.3755,-4.395,-4.4284,-4.4543,-4.4865,-4.54,-4.6142,-4.6835,-4.8183,-5.0026,-5.1868,-5.4007,-5.4547,-5.4276,-5.5763,-5.6022,-5.5789,0.0,0.0,0.0,0.0,0.0,5.8396,6.353,6.5447,6.7745,7.1608,7.5272,7.8453,8.0539,8.0666,8.0582,8.019,7.7916,0.0,0.0,0.0,0.0,6.4891,6.3102,6.1531,5.9939,5.5151,5.0826,0.0,0.0,0.0,0.0,0.0,0.0,0.0,0.0,0.0,1.5261,1.5458,1.5666,1.5894,1.6129,1.6324,1.6425,1.6623,1.6503,1.6131,1.483,1.3605,1.2075,0.8594,0.4168,-0.0477,-0.5448,-1.0668,-1.5466,-1.8483,-2.078,-2.2246,-2.2428,-2.2367,-2.2331,-2.2331,-2.2331,-2.2283,-2.209,-2.2295,-2.2573,-2.279,-2.2829,-2.2674,-2.2609,-2.1722,-2.1645,-2.3105,-2.4558,-2.631,-2.8256,-2.8614,-2.8289,-2.7678,-2.8762,-2.8835,-2.6793,-2.7846,-2.8462,-2.8113,-2.815,-2.9177,-3.1469,-3.2111,-3.4732,-3.967,-4.0962,-4.2431,-4.4294,-4.4351,-4.4397,-4.4094,-4.3736,-4.3682,-4.3974,-4.4365,-4.4607,-4.4865,-4.5896,-4.6637,-4.7104,-4.834,-5.0074,-5.1878,-5.305,-5.4061,-5.488,-5.5648,-5.6543,-5.734,0.0,0.0,0.0,0.0,0.0,0.0,0.0,7.2658,7.4631,7.4399,7.6474,7.8455,7.9803,8.0962,8.1028,7.9528,7.8078,7.5805,7.2514,7.0984,6.8876,6.5924,6.4196,6.2605,6.1158,5.6411,5.1489,4.6319,3.8319,0.0,0.0,0.0,0.0,0.0,0.0,1.3953,0.0,1.5179,1.5577,1.5902,1.591,1.6024,1.6162,1.5983,1.5475,1.4691,1.237,1.0683,0.9039,0.5549,0.1131,-0.3691,-0.8954,-1.3408,-1.7051,-1.9699,-2.1517,-2.2452,-2.2464,-2.2367,-2.2259,-2.2259,-2.2259,-2.2259,-2.2259,-2.2464,-2.273,-2.2983,-2.3261,-2.3212,-2.2404,-2.225,-2.2589,-2.3587,-2.4531,-2.6024,-2.8245,-2.8527,-2.8458,-2.8307,-2.8587,-2.834,-2.7211,-2.7549,-2.7765,-2.7765,-2.7967,-2.8773,-3.0351,-3.1249,-3.3481,-3.7529,-3.967,-4.1521,-4.3162,-4.3949,-4.4169,-4.3847,-4.3613,-4.3659,-4.3805,-4.4295,-4.4768,-4.5179,-4.6088,-4.6799,-4.7521,-4.8942,-5.0519,-5.2126,-5.3613,-5.4597,-5.5608,-5.7537,-5.853,-5.9047,0.0,5.693,0.0,0.0,6.5521,0.0,7.3922,7.7884,7.9633,7.7277,7.7444,7.8184,7.896,8.0975,8.1147,7.8399,7.8034,7.591,7.1261,7.1614,7.0452,6.6936,6.5416,6.3923,6.2186,5.744,5.1891,4.5865,3.8512,3.1497,2.4638,1.9844,1.6813,0.0,0.0,1.4123,1.4692,1.5155,1.5536,1.5845,1.5991,1.6129,1.6235,1.5766,1.4878,1.3521,1.0203,0.786,0.573,0.1634,-0.2111,-0.6317,-1.2037,-1.5666,-1.8269,-2.0505,-2.1693,-2.2307,-2.2512,-2.2416,-2.2259,-2.2259,-2.2259,-2.2408,-2.2545,-2.2904,-2.3162,-2.3678,-2.3835,-2.3512,-2.2404,-2.2606,-2.3002,-2.3844,-2.4756,-2.6136,-2.8068,-2.8365,-2.8494,-2.891,-2.8488,-2.7984,-2.8009,-2.7993,-2.8003,-2.8132,-2.8223,-2.8517,-2.9204,-3.053,-3.2375,-3.4871,-3.7927,-4.0288,-4.1778,-4.3419,-4.4074,-4.387,-4.3869,-4.3874,-4.3883,-4.4572,-4.5097,-4.5497,-4.6289,-4.7061,-4.7899,-4.9614,-5.1047,-5.257,-5.4597,-5.5939,-5.6908,-5.9453,-6.0455,-6.0589,0.0,0.0,0.0,0.0,0.0,7.5982,7.626,8.0072,8.2662,8.2393,8.203,8.1956,8.2178,8.1404,8.0034,7.8109,7.6307,7.4539,7.2798,7.172,7.0189,6.8331,6.6589,6.4567,6.2131,5.7145,5.1975,4.7095,3.8367,3.2116,2.8077,2.2338,1.8358,1.6177,1.4838,1.4749,1.5431,1.5634,1.5837,1.6024,1.604,1.6056,1.5899,1.4721,1.4045,1.3507,0.8982,0.55,0.1937,-0.3069,-0.4849,-0.6304,-1.3205,-1.6432,-1.8193,-2.1624,-2.2349,-2.2271,-2.2295,-2.2283,-2.2259,-2.2259,-2.2259,-2.2558,-2.3574,-2.4078,-2.4586,-2.5677,-2.5378,-2.443,-2.2704,-2.279,-2.3433,-2.3992,-2.5404,-2.7265,-2.903,-2.9288,-2.9198,-2.8805,-2.9328,-2.9306,-2.8323,-2.9547,-3.0167,-2.9452,-2.8425,-2.8449,-2.9971,-3.0389,-3.2131,-3.523,-3.7429,-3.9385,-4.1197,-4.317,-4.4572,-4.5184,-4.4697,-4.4415,-4.4497,-4.5519,-4.5805,-4.559,-4.6975,-4.7742,-4.8326,-5.0381,-5.1839,-5.3299,-5.5837,-5.7617,-5.8993,-6.0371,-6.1015,-6.1435,0.0,0.0,0.0,0.0,0.0,0.0,0.0,8.2236,8.3385,8.3385,8.2919,8.2309,8.157,8.0018,7.7868,7.5247,7.394,7.2165,6.9293,6.9108,6.8459,6.6862,6.5611,6.3578,6.0701,5.6876,5.1297,4.422,3.7793,3.2193,2.7276,2.2779,1.9397,1.702,1.5471,1.5098,1.5683,1.5861,1.6105,1.6365,1.6365,1.5853,1.5165,1.4397,1.2445,0.9682,0.6738,0.3089,-0.1132,-0.5541,-0.7645,-0.9396,-1.544,-1.7554,-1.8183,-2.0703,-2.1825,-2.2109,-2.1037,-2.1499,-2.2259,-2.2259,-2.2843,-2.3426,-2.3857,-2.4676,-2.5404,-2.6057,-2.5671,-2.4687,-2.312,-2.273,-2.3298,-2.4842,-2.5113,-2.5951,-2.8204,-2.8359,-2.8424,-2.919,-2.8964,-2.8848,-2.9362,-2.9887,-3.0033,-2.9962,-2.948,-2.9331,-2.9692,-3.1039,-3.2708,-3.4923,-3.8192,-4.0562,-4.1943,-4.4141,-4.5131,-4.4768,-4.4497,-4.4446,-4.4618,-4.5196,-4.5994,-4.6898,-4.7834,-4.9125,-5.0457,-5.1655,-5.3575,-5.5916,-5.7679,-5.9147,-6.0411,-6.2109,-6.2748,-6.3097,7.5585,0.0,7.56,0.0,8.0593,8.1325,8.3835,8.3964,8.3761,8.3524,8.2733,8.159,8.0142,7.8399,7.6056,7.2773,7.2038,7.0325,6.7027,6.7247,6.7155,6.6067,6.4382,6.2145,5.9035,5.4795,4.9306,4.2191,3.6812,3.1952,2.7833,2.3248,2.014,1.8434,1.6182,1.552,1.5943,1.6129,1.6316,1.6495,1.5987,1.5308,1.4436,1.3479,1.0645,0.7187,0.4959,0.0982,-0.3746,-0.6902,-0.9825,-1.2862,-1.7135,-1.8163,-1.8217,-1.999,-2.1425,-2.2055,-2.0285,-2.1037,-2.2259,-2.2259,-2.3141,-2.4153,-2.4449,-2.5478,-2.6296,-2.6178,-2.584,-2.5048,-2.3475,-2.2862,-2.3206,-2.492,-2.4868,-2.5317,-2.7132,-2.7388,-2.7745,-2.8888,-2.8569,-2.8873,-3.0425,-3.0429,-3.0519,-3.102,-3.1039,-3.0936,-3.0509,-3.1856,-3.3204,-3.4632,-3.8249,-4.0835,-4.1926,-4.4449,-4.5486,-4.4852,-4.4689,-4.4778,-4.4986,-4.5628,-4.6604,-4.8055,-4.8705,-5.0128,-5.2184,-5.3581,-5.5782,-5.8441,-6.0245,-6.1393,-6.2173,-6.3793,-6.436,-6.4577,8.0078,8.0825,8.2134,8.6706,8.6707,8.5925,8.5836,8.5114,8.4336,8.3592,8.1883,8.028,7.8856,7.7061,7.4686,7.1463,7.0605,6.9427,6.7696,6.7086,6.6708,6.6765,6.3407,6.0182,5.7447,5.0476,4.5454,4.2386,3.5356,3.1669,3.0792,2.3845,2.0462,2.0379,1.7403,1.6129,1.6308,1.6495,1.647,1.6141,1.4791,1.4287,1.3957,1.1244,0.9137,0.7023,0.3807,-0.0658,-0.5423,-0.7413,-1.1504,-1.6071,-1.7682,-1.8154,-1.8389,-1.9843,-2.1402,-2.2281,-2.034,-2.1037,-2.2259,-2.2259,-2.3141,-2.4301,-2.5465,-2.6648,-2.7188,-2.634,-2.6248,-2.5691,-2.3815,-2.3442,-2.3611,-2.4142,-2.5175,-2.6144,-2.6157,-2.7108,-2.7834,-2.784,-2.8412,-2.9517,-3.1228,-3.1727,-3.2188,-3.299,-3.3268,-3.327,-3.2917,-3.2793,-3.3381,-3.4443,-3.7441,-3.9516,-4.0738,-4.3537,-4.5227,-4.5817,-4.5629,-4.559,-4.5943,-4.7067,-4.8055,-4.8716,-4.9244,-5.0682,-5.2907,-5.6258,-5.8624,-6.0422,-6.3709,-6.4858,-6.4669,-6.5213,-6.5514,-6.578,8.6235,8.6692,8.7043,8.8366,8.7783,8.6846,8.6062,8.527,8.437,8.3592,8.1599,7.9536,7.8143,7.6382,7.393,7.0736,7.0134,6.8794,6.594,6.4525,6.3306,6.201,5.8849,5.5751,5.2541,4.7991,4.3399,3.8886,3.473,3.0635,2.6751,2.2443,2.0346,1.9658,1.7432,1.6438,1.6495,1.6552,1.647,1.6157,1.5034,1.3961,1.2608,0.9616,0.6812,0.3686,0.0334,-0.348,-0.7256,-0.9141,-1.1764,-1.4319,-1.6212,-1.7459,-1.8295,-1.8788,-1.9792,-2.0462,-1.8692,-2.0255,-2.2259,-2.2259,-2.3722,-2.5318,-2.5758,-2.6648,-2.7274,-2.6192,-2.5486,-2.4553,-2.3414,-2.3333,-2.3623,-2.4154,-2.4405,-2.4665,-2.4851,-2.5793,-2.703,-2.8354,-2.9534,-3.0978,-3.2845,-3.3367,-3.3405,-3.2922,-3.3096,-3.3136,-3.2525,-3.3709,-3.4684,-3.4906,-3.8873,-4.1343,-4.2073,-4.4816,-4.6365,-4.6911,-4.6597,-4.662,-4.7236,-4.8003,-4.8758,-4.9361,-5.0944,-5.3023,-5.5401,-5.8144,-6.0532,-6.262,-6.415,-6.499,-6.5246,-6.5336,-6.5603,-6.5867,8.9133,8.9112,8.8994,8.9443,8.8178,8.6943,8.6601,8.5479,8.4437,8.3964,8.1566,7.9425,7.829,7.5618,7.2781,6.9913,6.9457,6.7824,6.4186,6.2546,6.0783,5.834,5.5391,5.2089,4.8366,4.4844,4.0734,3.6292,3.3375,2.976,2.535,2.2841,2.0796,1.939,1.7648,1.6747,1.6682,1.6609,1.6212,1.5663,1.4201,1.2955,1.1317,0.8081,0.4767,0.1342,-0.1682,-0.5365,-0.9183,-1.0425,-1.2401,-1.4489,-1.5663,-1.658,-1.745,-1.7369,-1.871,-1.9822,-1.8029,-1.9853,-2.2259,-2.2259,-2.3722,-2.5185,-2.5758,-2.6357,-2.6502,-2.5318,-2.4595,-2.3945,-2.3279,-2.3176,-2.3502,-2.413,-2.4094,-2.4009,-2.4243,-2.5726,-2.7065,-2.8082,-2.988,-3.1755,-3.3442,-3.3804,-3.3985,-3.3956,-3.3965,-3.3954,-3.3988,-3.4799,-3.5578,-3.6241,-3.9692,-4.2058,-4.319,-4.5247,-4.6835,-4.7808,-4.7637,-4.7802,-4.8302,-4.8536,-4.908,-4.9774,-5.1759,-5.4141,-5.678,-5.9271,-6.1514,-6.335,-6.4182,-6.4735,-6.5061,-6.5024,-6.5392,-6.5955,8.9314,8.8742,8.855,9.0014,8.7995,8.6463,8.7223,8.5752,8.464,8.464,8.1831,7.9471,7.8758,7.4936,7.1255,6.8654,6.8432,6.6615,6.2732,6.1007,5.881,5.5886,5.2693,4.9033,4.4906,4.1143,3.75,3.4292,3.1446,2.8799,2.6171,2.421,2.1807,1.9247,1.7721,1.7006,1.6828,1.6649,1.5801,1.4506,1.2866,1.1476,0.9845,0.6505,0.3047,-0.0503,-0.2543,-0.6636,-1.0905,-1.1075,-1.3257,-1.5917,-1.5916,-1.5851,-1.5811,-1.5804,-1.7854,-1.9688,-1.8067,-1.9853,-2.2109,-2.2259,-2.3141,-2.4301,-2.5465,-2.5772,-2.5318,-2.4301,-2.4005,-2.374,-2.3243,-2.3043,-2.3297,-2.4082,-2.419,-2.4255,-2.448,-2.6662,-2.8029,-2.7632,-3.0037,-3.2129,-3.3179,-3.3611,-3.4339,-3.5706,-3.54,-3.5666,-3.6759,-3.5763,-3.6054,-3.8171,-4.0055,-4.1948,-4.3762,-4.5195,-4.6879,-4.8578,-4.8601,-4.8823,-4.9061,-4.8837,-4.9267,-5.0146,-5.1692,-5.4144,-5.7228,-5.9637,-6.1325,-6.2579,-6.3549,-6.4053,-6.4255,-6.425,-6.5057,-6.6182,0.0,0.0,9.0078,9.0439,8.865,8.7291,8.7466,8.5856,8.464,8.464,8.1831,7.9204,7.781,7.453,7.0829,6.6845,6.6059,6.5249,6.3722,5.8497,5.4696,5.3107,4.853,4.4957,4.2923,3.9377,3.5941,3.2468,3.0389,2.7676,2.4561,2.3087,2.0716,1.7563,1.7263,1.6933,1.6641,1.66,1.5593,1.4048,1.2745,1.0519,0.7772,0.4595,0.1021,-0.2714,-0.5784,-0.8731,-1.1378,-1.2582,-1.3539,-1.4287,-1.4251,-1.4152,-1.4189,-1.548,-1.6107,-1.6704,-1.7446,-1.8927,-2.0725,-2.196,-2.3141,-2.4301,-2.5465,-2.5038,-2.4301,-2.4005,-2.3277,-2.2717,-2.3101,-2.3043,-2.3393,-2.432,-2.4246,-2.4547,-2.6168,-2.7813,-2.9236,-3.0684,-3.2999,-3.4827,-3.5317,-3.5897,-3.613,-3.5513,-3.5458,-3.5687,-3.6518,-3.6685,-3.7424,-3.903,-4.1659,-4.3571,-4.4712,-4.6822,-4.8306,-4.9142,-4.8696,-4.8797,-4.9416,-4.916,-4.971,-5.1031,-5.2825,-5.4512,-5.6326,-5.8286,-5.9332,-5.984,-6.1176,-6.2205,-6.3042,-6.3849,-6.5147,-6.6473,8.995,8.994,8.9773,8.9278,8.7967,8.6934,8.6934,8.5651,8.4258,8.3456,8.0997,7.8453,7.6103,7.3059,6.9721,6.5726,6.5195,6.3886,6.1336,5.644,5.2416,5.0156,4.6031,4.2601,3.9829,3.7918,3.5304,3.1798,3.0308,2.7601,2.3972,2.3165,2.0623,1.7112,1.7112,1.6958,1.6698,1.5926,1.4754,1.3069,1.0824,0.8614,0.6081,0.1859,-0.1525,-0.459,-0.8166,-1.08,-1.2448,-1.3422,-1.3695,-1.3614,-1.3546,-1.3417,-1.3432,-1.4246,-1.4929,-1.5606,-1.6355,-1.8153,-2.0274,-2.1948,-2.2694,-2.3426,-2.4018,-2.3722,-2.3277,-2.3277,-2.2793,-2.2676,-2.3108,-2.3365,-2.3741,-2.424,-2.4278,-2.4908,-2.6668,-2.8252,-2.9987,-3.1953,-3.4489,-3.6224,-3.6601,-3.7648,-3.7807,-3.6804,-3.6936,-3.7213,-3.738,-3.8059,-3.9153,-4.0626,-4.2545,-4.4472,-4.6323,-4.8284,-4.9302,-4.9386,-4.8963,-4.9035,-4.9508,-4.9507,-5.0173,-5.1376,-5.3067,-5.4604,-5.5913,-5.7505,-5.8123,-5.8369,-5.9556,-6.083,-6.2095,-6.3095,-6.472,-6.6558,8.9314,8.9106,8.8809,8.7783,8.6741,8.6053,8.5949,8.4896,8.349,8.178,7.9529,7.7038,7.4377,7.1098,6.7824,6.4638,6.4052,6.1997,5.7524,5.4154,5.0676,4.7094,4.4273,4.0955,3.7107,3.6526,3.4863,3.1798,3.0706,2.8318,2.4485,2.3652,2.1231,1.7588,1.7247,1.6958,1.6583,1.5227,1.3783,1.2198,0.8769,0.6233,0.4076,-0.084,-0.421,-0.6792,-0.9864,-1.2168,-1.3824,-1.3702,-1.3648,-1.3607,-1.3478,-1.3329,-1.3173,-1.301,-1.3909,-1.4971,-1.508,-1.7367,-2.0274,-2.1948,-2.2259,-2.2259,-2.2259,-2.2259,-2.2271,-2.2457,-2.2651,-2.2973,-2.3302,-2.3841,-2.4196,-2.4291,-2.469,-2.5375,-2.7115,-2.883,-3.0685,-3.2897,-3.5444,-3.7093,-3.7406,-3.8885,-3.9426,-3.8595,-3.9115,-3.932,-3.8978,-3.9735,-4.0935,-4.2798,-4.353,-4.5272,-4.8153,-4.9439,-4.9826,-4.9412,-4.9229,-4.9324,-4.9732,-5.0155,-5.0764,-5.157,-5.3039,-5.4293,-5.5501,-5.6496,-5.699,-5.7098,-5.8145,-5.9545,-6.1078,-6.214,-6.4211,-6.6559,8.9314,8.9106,8.8809,8.7783,8.6741,8.5915,8.5259,8.3385,8.178,8.0939,7.7446,7.4532,7.3125,6.8992,6.5135,6.198,6.0016,5.7671,5.4692,5.0723,4.7378,4.4936,4.1308,3.8595,3.6941,3.4422,3.258,3.1798,3.0922,2.9212,2.6889,2.4508,2.2,1.9771,1.7742,1.6706,1.6221,1.4843,1.3573,1.1945,0.8716,0.4691,0.0671,-0.1843,-0.5726,-1.0208,-1.072,-1.2168,-1.3838,-1.3817,-1.3729,-1.3627,-1.36,-1.3492,-1.3315,-1.3037,-1.3123,-1.3525,-1.4617,-1.7255,-2.0274,-2.1948,-2.2259,-2.2259,-2.2259,-2.2259,-2.2469,-2.3002,-2.3228,-2.3327,-2.401,-2.4278,-2.4544,-2.5075,-2.5604,-2.6805,-2.9722,-3.0977,-3.2717,-3.5293,-3.6862,-3.7901,-3.8147,-3.9429,-4.0146,-4.0193,-4.0308,-4.0623,-4.1194,-4.1281,-4.286,-4.5954,-4.5883,-4.7126,-4.9867,-4.9161,-4.9118,-4.9776,-4.9534,-4.989,-5.0724,-5.1557,-5.2149,-5.2545,-5.3238,-5.374,-5.3885,-5.4077,-5.4153,-5.4332,-5.6323,-5.7973,-5.9379,-6.1808,-6.4148,-6.616,8.7905,8.6924,8.5997,8.4978,8.3875,8.3013,8.2675,8.1215,7.9464,7.7414,7.5483,7.3286,7.0503,6.7621,6.4429,6.0828,5.8922,5.5628,5.0792,4.8647,4.6176,4.3049,4.0154,3.7631,3.5606,3.3456,3.1772,3.0751,3.0951,2.9423,2.6393,2.5701,2.3756,2.0402,1.9275,1.7528,1.5248,1.3816,1.1837,0.9373,0.6196,0.2344,-0.1674,-0.4521,-0.7753,-1.1053,-1.1837,-1.2914,-1.3715,-1.3634,-1.3559,-1.3505,-1.3505,-1.3403,-1.3234,-1.3024,-1.2847,-1.3305,-1.5599,-1.7379,-1.9057,-2.1648,-2.2367,-2.2476,-2.2476,-2.2615,-2.299,-2.3414,-2.3504,-2.3745,-2.434,-2.5232,-2.5992,-2.6111,-2.721,-2.8769,-3.1185,-3.2079,-3.355,-3.6379,-3.7842,-3.8806,-3.9394,-4.0427,-4.1067,-4.1039,-4.133,-4.1608,-4.1699,-4.2727,-4.3913,-4.5583,-4.7537,-4.9064,-5.0045,-4.9239,-4.9046,-4.9666,-4.9495,-5.0035,-5.1239,-5.224,-5.2906,-5.3192,-5.3875,-5.4099,-5.4023,-5.3675,-5.3605,-5.3977,-5.5951,-5.7695,-5.9376,-6.1718,-6.3953,-6.5778,8.6032,8.4551,8.3121,8.1783,8.0783,8.0167,8.0002,7.8665,7.6824,7.4437,7.335,7.1478,6.8062,6.5977,6.3461,6.0023,5.7749,5.3928,4.7925,4.7094,4.5083,4.1151,3.8768,3.6388,3.3829,3.2392,3.1236,3.0218,3.0681,2.9533,2.6834,2.7279,2.5119,2.1069,2.0517,1.8077,1.4344,1.2365,0.9913,0.7006,0.3013,-0.0502,-0.3681,-0.7205,-0.9771,-1.1687,-1.2938,-1.3478,-1.3559,-1.3444,-1.3403,-1.3403,-1.3403,-1.3322,-1.32,-1.3051,-1.313,-1.3819,-1.6644,-1.7416,-1.8217,-2.158,-2.27,-2.2894,-2.2894,-2.3199,-2.3579,-2.4007,-2.3997,-2.425,-2.5157,-2.6335,-2.7361,-2.7583,-2.8914,-3.0519,-3.2081,-3.3047,-3.4561,-3.7171,-3.8286,-3.9232,-4.0106,-4.1142,-4.1699,-4.1337,-4.2202,-4.2667,-4.2569,-4.4097,-4.5064,-4.5606,-4.8459,-4.9975,-4.9897,-4.9468,-4.9429,-4.9904,-5.0023,-5.0815,-5.1998,-5.3259,-5.3865,-5.4036,-5.4547,-5.472,-5.4662,-5.3849,-5.3798,-5.4465,-5.6274,-5.7995,-5.9607,-6.1871,-6.389,-6.5531,8.3841,8.2819,8.1514,7.9462,7.9039,7.8697,7.8048,7.599,7.4283,7.3385,7.0539,6.7896,6.6118,6.3657,6.1022,5.8301,5.4679,5.1277,4.775,4.5566,4.2792,3.8919,3.5865,3.3437,3.1513,3.0719,3.0699,3.1626,3.0363,3.0195,3.0749,2.8568,2.5937,2.3098,2.0714,1.7598,1.3697,1.0705,0.8565,0.6595,0.0333,-0.3514,-0.5519,-0.9207,-1.1564,-1.3244,-1.3403,-1.341,-1.3417,-1.3403,-1.3403,-1.3403,-1.3403,-1.3397,-1.3356,-1.32,-1.4157,-1.5681,-1.7023,-1.752,-1.8588,-2.1849,-2.312,-2.3637,-2.3637,-2.3932,-2.4483,-2.5076,-2.5062,-2.5312,-2.7273,-2.7492,-2.7916,-2.9224,-3.0582,-3.1726,-3.288,-3.4356,-3.5937,-3.7628,-3.8167,-3.8768,-3.9636,-4.0661,-4.1337,-4.1295,-4.2829,-4.4073,-4.4937,-4.5508,-4.6705,-4.833,-4.8184,-4.8676,-4.9897,-4.9653,-5.0036,-5.1118,-5.175,-5.2767,-5.3882,-5.4887,-5.5393,-5.5366,-5.5291,-5.5329,-5.5242,-5.4023,-5.4165,-5.5367,-5.7146,-5.8414,-5.9654,-6.2201,-6.4157,-6.5545,8.2275,8.0873,7.9622,7.8777,7.7756,7.6665,7.563,7.3788,7.194,7.0248,6.7844,6.5838,6.4984,6.158,5.8955,5.7951,5.4062,5.0625,4.7728,4.4535,4.0955,3.7135,3.4135,3.2274,3.1607,3.1714,3.1436,3.0578,3.0909,3.0482,2.9818,2.8669,2.6516,2.3447,2.0691,1.6518,1.1129,0.8971,0.5961,0.2474,-0.1167,-0.4352,-0.7201,-0.9716,-1.1896,-1.3403,-1.3403,-1.3403,-1.3403,-1.3403,-1.3403,-1.3403,-1.3403,-1.3403,-1.3535,-1.4512,-1.5144,-1.6081,-1.8747,-1.9388,-2.0082,-2.2733,-2.3711,-2.4065,-2.4221,-2.4559,-2.4816,-2.5257,-2.5715,-2.6489,-2.742,-2.8788,-3.025,-3.1098,-3.2301,-3.3582,-3.449,-3.5568,-3.664,-3.7668,-3.8384,-3.9044,-3.9903,-4.0477,-4.1156,-4.1572,-4.2492,-4.3288,-4.3952,-4.5434,-4.7264,-4.9353,-4.9032,-4.9291,-5.0138,-5.0168,-5.0698,-5.1883,-5.2577,-5.3353,-5.4378,-5.5468,-5.605,-5.6023,-5.6066,-5.5794,-5.5329,-5.4672,-5.4746,-5.5523,-5.774,-5.9349,-6.0717,-6.3039,-6.4603,-6.5502,8.0427,7.905,7.7874,7.7549,7.6014,7.4439,7.3783,7.1835,6.9648,6.773,6.5894,6.4232,6.2804,5.9913,5.7624,5.6388,5.2787,4.9471,4.6939,4.2484,3.8431,3.5366,3.283,3.1637,3.1637,3.183,3.135,3.0405,3.0823,3.0553,2.9607,2.8728,2.6427,2.2777,2.011,1.5135,0.8815,0.7157,0.3982,-0.033,-0.3157,-0.5832,-0.8169,-1.0463,-1.2269,-1.3268,-1.3315,-1.3329,-1.3342,-1.3437,-1.3471,-1.3471,-1.3471,-1.3763,-1.4361,-1.5544,-1.6546,-1.7873,-2.0105,-2.1232,-2.2165,-2.3499,-2.4153,-2.451,-2.4982,-2.5076,-2.5242,-2.5439,-2.6349,-2.7306,-2.7969,-3.0033,-3.193,-3.2648,-3.3422,-3.4171,-3.4727,-3.4907,-3.551,-3.6779,-3.7268,-3.8092,-3.9469,-3.9918,-4.0537,-4.1417,-4.1971,-4.2963,-4.4118,-4.5835,-4.7608,-4.9756,-4.9627,-4.9837,-5.0498,-5.0658,-5.1376,-5.2848,-5.3298,-5.411,-5.5088,-5.6164,-5.6537,-5.6534,-5.6345,-5.618,-5.5762,-5.4919,-5.517,-5.6217,-5.8318,-6.0122,-6.1713,-6.3939,-6.5145,-6.5732,7.8146,7.733,7.6398,7.5239,7.3632,7.237,7.237,6.9927,6.7621,6.5977,6.4868,6.3005,5.9691,5.8905,5.7081,5.3148,4.9987,4.7394,4.5076,3.9289,3.5204,3.3444,3.213,3.1315,3.1315,3.0223,3.0377,3.1798,3.0097,2.9943,3.1285,2.8424,2.5102,2.1295,1.8566,1.3711,0.7077,0.5103,0.2637,-0.0495,-0.5769,-0.7749,-0.8229,-1.1714,-1.2963,-1.2983,-1.3119,-1.3173,-1.322,-1.3526,-1.3627,-1.3627,-1.3627,-1.4673,-1.6008,-1.6008,-1.8454,-2.1211,-2.1222,-2.2854,-2.443,-2.4132,-2.4598,-2.5289,-2.5753,-2.5845,-2.5959,-2.5945,-2.6682,-2.7851,-2.9435,-3.1036,-3.2648,-3.4094,-3.378,-3.3206,-3.3206,-3.2311,-3.2343,-3.4477,-3.4509,-3.5396,-3.8444,-3.9099,-3.9555,-4.0425,-4.1738,-4.3579,-4.6323,-4.686,-4.7784,-4.9416,-4.9534,-4.977,-5.0497,-5.1089,-5.2279,-5.4019,-5.4378,-5.5205,-5.6394,-5.6737,-5.6872,-5.6786,-5.6466,-5.6385,-5.6585,-5.4798,-5.5577,-5.7832,-5.9016,-6.056,-6.2398,-6.4658,-6.5796,-6.6269,7.7552,7.714,7.6474,7.481,7.3779,7.2487,7.0408,6.8102,6.6005,6.4895,6.2017,5.9868,5.8983,5.5969,5.3514,5.2437,4.8383,4.4071,3.9318,3.7567,3.546,3.2339,3.1934,3.1754,3.1988,3.1729,3.1671,3.1798,3.0951,2.9874,2.8244,2.6556,2.3177,1.8616,1.4659,1.0169,0.5267,0.2494,0.0166,-0.2126,-0.4977,-0.6776,-0.7986,-1.0308,-1.1907,-1.2983,-1.3119,-1.3241,-1.3363,-1.3559,-1.3627,-1.3607,-1.3505,-1.4585,-1.6008,-1.6008,-1.7638,-1.9755,-2.1211,-2.2189,-2.2992,-2.438,-2.5212,-2.57,-2.5819,-2.5852,-2.5585,-2.5384,-2.7068,-2.8945,-2.9649,-3.1859,-3.3659,-3.3502,-3.3345,-3.2977,-3.2155,-3.1979,-3.2521,-3.4261,-3.4813,-3.601,-3.8287,-3.9018,-3.9687,-4.0824,-4.1568,-4.2683,-4.4495,-4.5381,-4.6636,-4.8,-4.9086,-5.004,-5.102,-5.1674,-5.2588,-5.3744,-5.4686,-5.5359,-5.5766,-5.633,-5.6427,-5.6113,-5.6016,-5.609,-5.6273,-5.6254,-5.734,-5.9081,-6.0531,-6.235,-6.4137,-6.5538,-6.633,-6.6668,7.7147,7.6375,7.5643,7.4553,7.288,7.1196,6.9482,6.6848,6.4642,6.3124,6.0418,5.8021,5.657,5.3764,5.1558,5.0273,4.6468,4.2023,3.6921,3.6765,3.5243,3.1778,3.1724,3.1885,3.209,3.1959,3.1798,3.1607,3.0634,2.9188,2.6952,2.4056,2.0619,1.6709,1.1795,0.7535,0.3815,0.1172,-0.0998,-0.2787,-0.448,-0.5937,-0.6974,-0.9421,-1.1034,-1.1993,-1.2889,-1.3186,-1.3349,-1.362,-1.3709,-1.3695,-1.36,-1.4644,-1.6008,-1.6172,-1.7483,-1.9277,-2.1545,-2.2189,-2.282,-2.466,-2.5425,-2.5688,-2.5999,-2.5638,-2.5291,-2.5117,-2.7437,-2.9488,-2.9774,-3.207,-3.3743,-3.3146,-3.167,-3.0556,-3.0513,-3.0155,-3.0666,-3.3047,-3.42,-3.5861,-3.8206,-3.8763,-3.9408,-4.0672,-4.0978,-4.1904,-4.3553,-4.4625,-4.592,-4.7667,-4.9116,-5.0286,-5.1093,-5.1938,-5.2889,-5.3946,-5.4683,-5.5254,-5.5444,-5.6026,-5.5975,-5.5654,-5.5601,-5.5722,-5.607,-5.69,-5.8204,-5.9879,-6.1844,-6.355,-6.5033,-6.6103,-6.6608,-6.6786,7.6792,7.5449,7.4299,7.4045,7.1278,6.912,6.8785,6.5969,6.3231,6.1006,5.9311,5.6798,5.326,5.2169,5.0431,4.7171,4.4518,4.1254,3.7136,3.6662,3.5046,3.1727,3.1681,3.1841,3.1841,3.152,3.1344,3.1315,2.9313,2.7642,2.6402,2.1386,1.753,1.4832,0.9555,0.536,0.235,0.0503,-0.1168,-0.2811,-0.4296,-0.5084,-0.5674,-0.8659,-1.0115,-1.0683,-1.2488,-1.3071,-1.3254,-1.3682,-1.3824,-1.3817,-1.3804,-1.4776,-1.6008,-1.6344,-1.7819,-1.9775,-2.1717,-2.2671,-2.356,-2.5062,-2.5283,-2.54,-2.5879,-2.5464,-2.5077,-2.505,-2.7554,-2.9631,-2.9631,-3.1456,-3.2749,-3.2391,-2.9035,-2.7085,-2.834,-2.7442,-2.7996,-3.1452,-3.3255,-3.536,-3.8164,-3.855,-3.9153,-4.0236,-4.0279,-4.1142,-4.313,-4.4227,-4.5814,-4.8003,-4.9616,-5.0656,-5.1017,-5.2128,-5.3272,-5.4451,-5.4509,-5.484,-5.5329,-5.5683,-5.5547,-5.5188,-5.5024,-5.5364,-5.6093,-5.7066,-5.8535,-6.0467,-6.2818,-6.4393,-6.5358,-6.6415,-6.6786,-6.6727,7.5225,7.4717,7.3597,7.08,6.9735,6.8254,6.5628,6.3673,6.1581,5.9388,5.6551,5.4176,5.2461,4.9861,4.7737,4.6592,4.3448,4.0676,3.9177,3.7031,3.5205,3.4096,3.2812,3.2178,3.2178,3.1856,3.1563,3.1315,2.8618,2.5816,2.2566,1.9483,1.4795,0.9049,0.6526,0.3517,0.0504,-0.1332,-0.232,-0.2647,-0.2977,-0.4757,-0.7298,-0.7998,-0.9936,-1.2488,-1.2923,-1.322,-1.3383,-1.36,-1.3675,-1.3654,-1.3532,-1.46,-1.5679,-1.4548,-1.6508,-1.944,-2.0241,-2.1552,-2.332,-2.5335,-2.5458,-2.5113,-2.5264,-2.517,-2.516,-2.5228,-2.6706,-2.8213,-2.8788,-3.0144,-3.0628,-2.8991,-2.7757,-2.6907,-2.6328,-2.723,-2.8886,-3.1661,-3.4123,-3.6415,-3.8357,-3.9369,-4.004,-4.0279,-4.0279,-4.1013,-4.2706,-4.4326,-4.591,-4.76,-4.9729,-5.0989,-5.1568,-5.2226,-5.3058,-5.3823,-5.4309,-5.461,-5.472,-5.4827,-5.4661,-5.448,-5.4339,-5.5038,-5.6372,-5.813,-5.9935,-6.191,-6.4101,-6.56,-6.6451,-6.675,-6.6608,-6.6366,7.3402,7.2535,7.1278,6.954,6.8475,6.7045,6.4545,6.2831,6.0702,5.7442,5.4893,5.2332,4.9575,4.7708,4.5841,4.3982,4.2141,4.0042,3.7583,3.606,3.4753,3.3395,3.2699,3.2207,3.2061,3.1324,3.0564,2.9745,2.7265,2.3948,1.9658,1.602,1.192,0.7256,0.3862,0.1514,-0.0169,-0.1843,-0.266,-0.2649,-0.2662,-0.4301,-0.671,-0.7569,-0.9554,-1.2018,-1.284,-1.3315,-1.3519,-1.36,-1.3627,-1.3614,-1.3532,-1.4116,-1.4691,-1.3802,-1.5723,-1.8447,-1.9624,-2.1254,-2.3176,-2.5098,-2.5304,-2.5077,-2.5077,-2.497,-2.4972,-2.5119,-2.6502,-2.7924,-2.866,-2.9373,-2.9519,-2.8364,-2.6922,-2.622,-2.727,-2.8148,-2.9918,-3.3256,-3.5547,-3.7529,-3.8957,-3.9866,-4.0279,-4.0279,-4.0539,-4.1527,-4.3083,-4.4817,-4.639,-4.7977,-5.0181,-5.1458,-5.1787,-5.2652,-5.3251,-5.3781,-5.3913,-5.4021,-5.4052,-5.4129,-5.4169,-5.4006,-5.3952,-5.4851,-5.6416,-5.856,-6.0619,-6.2575,-6.4746,-6.6236,-6.7053,-6.651,-6.6243,-6.6093,7.1727,7.0272,6.912,6.8866,6.7325,6.5692,6.4056,6.2132,5.9389,5.5468,5.3121,5.0379,4.667,4.5758,4.4291,4.1323,4.0482,3.8781,3.5686,3.4877,3.3908,3.2401,3.2178,3.1874,3.1613,3.0391,2.9098,2.7761,2.5373,2.1947,1.7501,1.247,0.8751,0.63,0.2028,-0.0169,-0.0511,-0.2023,-0.2673,-0.2657,-0.301,-0.4172,-0.5961,-0.7608,-0.9472,-1.1374,-1.2762,-1.3356,-1.3546,-1.3526,-1.3512,-1.3512,-1.3512,-1.3424,-1.3466,-1.398,-1.5699,-1.7741,-1.9771,-2.1722,-2.35,-2.4829,-2.5037,-2.516,-2.516,-2.4958,-2.4784,-2.5226,-2.6648,-2.7909,-2.831,-2.8601,-2.8675,-2.8186,-2.6343,-2.5996,-2.8859,-2.973,-3.1497,-3.5062,-3.7115,-3.8654,-3.9713,-4.0149,-4.0279,-4.0279,-4.1035,-4.227,-4.3855,-4.5547,-4.7129,-4.8815,-5.0767,-5.1787,-5.1787,-5.2972,-5.3605,-5.3919,-5.3827,-5.3722,-5.3605,-5.3919,-5.3877,-5.3833,-5.3929,-5.4818,-5.6427,-5.8697,-6.0762,-6.2732,-6.4941,-6.6459,-6.7222,-6.6232,-6.5918,-6.5989,7.0766,6.9719,6.8699,6.7212,6.5605,6.4056,6.2386,5.9161,5.6022,5.3464,5.0147,4.7454,4.6467,4.3633,4.1491,4.1005,3.8083,3.6559,3.72,3.4595,3.358,3.4424,3.212,3.0862,3.082,2.9185,2.8121,2.763,2.2873,1.9052,1.6132,1.0382,0.612,0.3241,0.1023,-0.0849,-0.2358,-0.2499,-0.2665,-0.2852,-0.4323,-0.5986,-0.7865,-0.9697,-1.1374,-1.3065,-1.3211,-1.3308,-1.3214,-1.3091,-1.3051,-1.3051,-1.3051,-1.3037,-1.3332,-1.5194,-1.7232,-1.928,-2.1446,-2.331,-2.4816,-2.509,-2.5188,-2.5147,-2.5147,-2.5119,-2.5226,-2.5653,-2.6239,-2.659,-2.6746,-2.6863,-2.6673,-2.5637,-2.6588,-2.7614,-2.8288,-3.1502,-3.4256,-3.5712,-3.8062,-3.9692,-4.0149,-4.0279,-4.0279,-4.0279,-4.161,-4.3208,-4.4939,-4.6509,-4.821,-4.9756,-5.1128,-5.1787,-5.1787,-5.2972,-5.3605,-5.3919,-5.4475,-5.455,-5.42,-5.42,-5.4154,-5.4003,-5.4122,-5.5038,-5.6518,-5.8897,-6.0813,-6.2543,-6.4923,-6.6268,-6.6874,-6.6474,-6.6341,-6.6235,6.8618,6.8,6.7157,6.5577,6.4663,6.3299,6.0886,5.8037,5.4988,5.1898,4.8811,4.6414,4.5025,4.2493,4.0126,3.8066,3.6362,3.5273,3.4957,3.3556,3.3043,3.3755,3.1763,3.0506,3.0342,2.6974,2.4726,2.3425,2.109,1.6861,1.1266,0.7661,0.4259,0.1195,-0.0679,-0.2035,-0.2716,-0.2686,-0.268,-0.2859,-0.4679,-0.6324,-0.814,-0.9958,-1.1782,-1.3288,-1.337,-1.3302,-1.3166,-1.3098,-1.3024,-1.2963,-1.2963,-1.3749,-1.4828,-1.5665,-1.8115,-2.088,-2.1673,-2.3392,-2.4836,-2.5134,-2.5187,-2.5226,-2.552,-2.5528,-2.5749,-2.6064,-2.6239,-2.6445,-2.6702,-2.6803,-2.7015,-2.7317,-2.8321,-2.9713,-3.1655,-3.3688,-3.5701,-3.7534,-3.9184,-4.0169,-4.0301,-4.0279,-4.0409,-4.0799,-4.2374,-4.3955,-4.5668,-4.7247,-4.87,-5.001,-5.1128,-5.1787,-5.1787,-5.3078,-5.3919,-5.4097,-5.4731,-5.5012,-5.4864,-5.5175,-5.5018,-5.4526,-5.4851,-5.5663,-5.6834,-5.874,-6.095,-6.3205,-6.4456,-6.549,-6.6339,-6.6571,-6.6399,-6.6008]},{"header":{"parameterUnit":"m.s-1","parameterCategory":1,"la1":30.6,"la2":28.766,"lo1":-90.7593,"lo2":-88.6598,"dy":0.0162,"dx":0.0183,"nx":116,"ny":114,"refTime":"2023-03-17T18:00:00:Z","depth":0,"parameterNumber":3,"parameterNumberName":"V-component_of_WINDS"},"data":[0.0,0.0,0.0,0.0,0.0,0.0,0.0,0.0,0.0,0.0,0.0,0.0,0.0,0.0,0.0,0.0,0.0,0.0,0.0,0.0,0.0,0.0,0.0,0.0,0.0,0.0,0.0,0.0,0.0,0.0,0.0,0.0,0.0,0.0,0.0,0.0,0.0,0.0,0.0,0.0,0.0,0.0,0.0,0.0,0.0,0.0,0.0,0.0,0.0,0.0,0.0,0.0,0.0,0.0,0.0,0.0,0.0,0.0,0.0,0.0,0.0,0.0,0.0,0.0,0.0,0.0,0.0,0.0,0.0,0.0,0.0,0.0,0.0,0.0,0.0,0.0,0.0,0.0,0.0,0.0,0.0,0.0,0.0,0.0,0.0,0.0,0.0,0.0,0.0,0.0,0.0,0.0,0.0,0.0,0.0,0.0,0.0,0.0,0.0,0.0,0.0,0.0,0.0,0.0,0.0,0.0,0.0,0.0,0.0,0.0,0.0,0.0,0.0,0.0,0.0,0.0,0.0,0.0,0.0,0.0,0.0,0.0,0.0,0.0,0.0,0.0,0.0,0.0,0.0,0.0,0.0,0.0,0.0,0.0,0.0,0.0,0.0,0.0,0.0,0.0,0.0,0.0,0.0,0.0,0.0,0.0,0.0,0.0,0.0,0.0,0.0,0.0,0.0,0.0,0.0,0.0,0.0,0.0,0.0,0.0,0.0,0.0,0.0,0.0,0.0,0.0,0.0,0.0,0.0,0.0,0.0,0.0,0.0,0.0,0.0,0.0,0.0,0.0,0.0,0.0,0.0,0.0,0.0,0.0,0.0,0.0,0.0,0.0,0.0,0.0,0.0,0.0,0.0,0.0,0.0,0.0,0.0,0.0,0.0,0.0,0.0,0.0,0.0,0.0,0.0,0.0,0.0,0.0,0.0,0.0,0.0,0.0,0.0,0.0,0.0,0.0,0.0,0.0,0.0,0.0,0.0,0.0,0.0,0.0,0.0,0.0,0.0,0.0,0.0,0.0,0.0,0.0,0.0,0.0,0.0,0.0,0.0,0.0,0.0,0.0,0.0,0.0,0.0,0.0,0.0,0.0,0.0,0.0,0.0,0.0,0.0,0.0,0.0,0.0,0.0,0.0,0.0,0.0,0.0,0.0,0.0,0.0,0.0,0.0,0.0,0.0,0.0,0.0,0.0,0.0,0.0,0.0,0.0,0.0,0.0,0.0,0.0,0.0,0.0,0.0,0.0,0.0,0.0,0.0,0.0,0.0,0.0,0.0,0.0,0.0,0.0,0.0,0.0,0.0,0.0,0.0,0.0,0.0,0.0,0.0,0.0,0.0,0.0,0.0,0.0,0.0,0.0,0.0,0.0,0.0,0.0,0.0,0.0,0.0,0.0,0.0,0.0,0.0,0.0,0.0,0.0,0.0,0.0,0.0,0.0,0.0,0.0,0.0,0.0,0.0,0.0,0.0,0.0,0.0,0.0,0.0,0.0,0.0,0.0,0.0,0.0,0.0,0.0,0.0,0.0,0.0,0.0,0.0,0.0,0.0,0.0,0.0,0.0,0.0,0.0,0.0,0.0,0.0,0.0,0.0,0.0,0.0,0.0,0.0,0.0,0.0,0.0,0.0,0.0,0.0,0.0,0.0,0.0,0.0,0.0,0.0,0.0,0.0,0.0,0.0,0.0,0.0,0.0,0.0,0.0,0.0,0.0,0.0,0.0,0.0,0.0,0.0,0.0,0.0,0.0,0.0,0.0,0.0,0.0,0.0,0.0,0.0,0.0,0.0,0.0,0.0,0.0,0.0,0.0,0.0,0.0,0.0,0.0,0.0,0.0,0.0,0.0,0.0,0.0,0.0,0.0,0.0,0.0,0.0,0.0,0.0,0.0,0.0,0.0,0.0,0.0,0.0,0.0,0.0,0.0,0.0,0.0,0.0,0.0,0.0,0.0,0.0,0.0,0.0,0.0,0.0,0.0,0.0,0.0,0.0,0.0,0.0,0.0,0.0,0.0,0.0,0.0,0.0,0.0,0.0,0.0,0.0,0.0,0.0,0.0,0.0,0.0,0.0,0.0,0.0,0.0,0.0,0.0,0.0,0.0,0.0,0.0,0.0,0.0,0.0,0.0,0.0,0.0,0.0,0.0,0.0,0.0,0.0,0.0,0.0,0.0,0.0,0.0,0.0,0.0,0.0,0.0,0.0,0.0,0.0,0.0,0.0,0.0,0.0,0.0,0.0,0.0,0.0,0.0,0.0,0.0,0.0,0.0,0.0,0.0,0.0,0.0,0.0,0.0,0.0,0.0,0.0,0.0,0.0,0.0,0.0,0.0,0.0,0.0,0.0,0.0,0.0,0.0,0.0,0.0,0.0,0.0,0.0,0.0,0.0,0.0,0.0,0.0,0.0,0.0,0.0,0.0,0.0,0.0,0.0,0.0,0.0,0.0,0.0,0.0,0.0,0.0,0.0,0.0,0.0,0.0,0.0,0.0,0.0,0.0,0.0,0.0,0.0,0.0,0.0,0.0,0.0,0.0,0.0,0.0,0.0,0.0,0.0,0.0,0.0,0.0,0.0,0.0,0.0,0.0,0.0,0.0,0.0,0.0,0.0,0.0,0.0,0.0,0.0,0.0,0.0,0.0,0.0,0.0,0.0,0.0,0.0,0.0,0.0,0.0,0.0,0.0,0.0,0.0,0.0,0.0,0.0,0.0,0.0,0.0,0.0,0.0,0.0,0.0,0.0,0.0,0.0,0.0,0.0,0.0,0.0,0.0,0.0,0.0,0.0,0.0,0.0,0.0,0.0,0.0,0.0,0.0,0.0,0.0,0.0,0.0,0.0,0.0,0.0,0.0,0.0,0.0,0.0,0.0,0.0,0.0,0.0,0.0,0.0,0.0,0.0,0.0,0.0,0.0,0.0,0.0,0.0,0.0,0.0,0.0,0.0,0.0,0.0,0.0,0.0,0.0,0.0,0.0,0.0,0.0,0.0,0.0,0.0,0.0,0.0,0.0,0.0,0.0,0.0,0.0,0.0,0.0,0.0,0.0,0.0,0.0,0.0,0.0,0.0,0.0,0.0,0.0,0.0,0.0,0.0,0.0,0.0,0.0,0.0,0.0,0.0,0.0,0.0,0.0,0.0,0.0,0.0,0.0,0.0,0.0,0.0,0.0,0.0,0.0,0.0,0.0,0.0,0.0,0.0,0.0,0.0,0.0,0.0,0.0,0.0,0.0,0.0,0.0,0.0,0.0,0.0,0.0,0.0,0.0,0.0,0.0,0.0,0.0,0.0,0.0,0.0,0.0,0.0,0.0,0.0,0.0,0.0,0.0,0.0,0.0,0.0,0.0,0.0,0.0,0.0,0.0,0.0,0.0,0.0,0.0,0.0,0.0,0.0,0.0,0.0,0.0,0.0,0.0,0.0,0.0,0.0,0.0,0.0,0.0,0.0,0.0,0.0,0.0,0.0,0.0,0.0,0.0,0.0,0.0,0.0,0.0,0.0,0.0,0.0,0.0,0.0,0.0,0.0,0.0,0.0,0.0,0.0,0.0,0.0,0.0,0.0,0.0,0.0,0.0,0.0,0.0,0.0,0.0,0.0,0.0,0.0,0.0,0.0,0.0,0.0,0.0,0.0,0.0,0.0,0.0,0.0,0.0,0.0,0.0,0.0,0.0,0.0,0.0,0.0,0.0,0.0,0.0,0.0,0.0,0.0,0.0,0.0,0.0,0.0,0.0,0.0,0.0,0.0,0.0,0.0,0.0,0.0,0.0,0.0,0.0,0.0,0.0,0.0,0.0,0.0,0.0,0.0,0.0,0.0,0.0,0.0,0.0,0.0,0.0,0.0,0.0,0.0,0.0,0.0,0.0,0.0,0.0,0.0,0.0,0.0,0.0,0.0,0.0,0.0,0.0,0.0,0.0,0.0,0.0,0.0,0.0,0.0,0.0,0.0,0.0,0.0,0.0,0.0,0.0,0.0,0.0,0.0,0.0,0.0,0.0,0.0,0.0,0.0,0.0,0.0,0.0,0.0,0.0,0.0,0.0,0.0,0.0,0.0,0.0,0.0,0.0,0.0,0.0,0.0,0.0,0.0,0.0,0.0,0.0,0.0,0.0,0.0,0.0,0.0,0.0,0.0,0.0,0.0,0.0,0.0,0.0,0.0,0.0,0.0,0.0,0.0,0.0,0.0,0.0,0.0,0.0,0.0,0.0,0.0,0.0,0.0,0.0,0.0,0.0,0.0,0.0,0.0,0.0,0.0,0.0,0.0,0.0,0.0,0.0,0.0,0.0,0.0,0.0,0.0,0.0,0.0,0.0,0.0,0.0,0.0,0.0,0.0,0.0,0.0,0.0,0.0,0.0,0.0,0.0,0.0,0.0,0.0,0.0,0.0,0.0,0.0,0.0,0.0,0.0,0.0,0.0,0.0,0.0,0.0,0.0,0.0,0.0,0.0,0.0,0.0,0.0,0.0,0.0,0.0,0.0,0.0,0.0,0.0,0.0,0.0,0.0,0.0,0.0,0.0,0.0,0.0,0.0,0.0,0.0,0.0,0.0,0.0,0.0,0.0,0.0,0.0,0.0,0.0,0.0,0.0,0.0,0.0,0.0,0.0,0.0,0.0,0.0,0.0,0.0,0.0,0.0,0.0,0.0,0.0,0.0,0.0,0.0,0.0,0.0,0.0,0.0,0.0,0.0,0.0,0.0,0.0,0.0,0.0,0.0,0.0,0.0,0.0,0.0,0.0,0.0,0.0,0.0,0.0,0.0,0.0,0.0,0.0,0.0,0.0,0.0,0.0,0.0,0.0,0.0,0.0,0.0,0.0,0.0,0.0,0.0,0.0,0.0,0.0,0.0,0.0,0.0,0.0,0.0,0.0,0.0,0.0,0.0,0.0,0.0,0.0,0.0,0.0,0.0,0.0,0.0,0.0,0.0,0.0,0.0,0.0,0.0,0.0,0.0,0.0,0.0,0.0,0.0,0.0,0.0,0.0,0.0,0.0,0.0,0.0,0.0,0.0,0.0,0.0,0.0,0.0,0.0,0.0,0.0,0.0,0.0,0.0,0.0,0.0,0.0,0.0,0.0,0.0,0.0,0.0,0.0,0.0,0.0,0.0,0.0,0.0,0.0,0.0,0.0,0.0,0.0,0.0,0.0,0.0,0.0,0.0,0.0,0.0,0.0,0.0,0.0,0.0,0.0,0.0,0.0,0.0,0.0,0.0,0.0,0.0,0.0,0.0,0.0,0.0,0.0,0.0,0.0,0.0,0.0,0.0,0.0,0.0,0.0,0.0,0.0,0.0,0.0,0.0,0.0,0.0,0.0,0.0,0.0,0.0,0.0,0.0,0.0,0.0,0.0,0.0,0.0,0.0,0.0,0.0,0.0,0.0,0.0,0.0,0.0,0.0,0.0,0.0,0.0,0.0,0.0,0.0,0.0,0.0,0.0,0.0,0.0,0.0,0.0,0.0,0.0,0.0,0.0,0.0,0.0,0.0,0.0,0.0,0.0,0.0,0.0,0.0,0.0,0.0,0.0,0.0,0.0,0.0,0.0,0.0,0.0,0.0,0.0,0.0,0.0,0.0,0.0,0.0,0.0,0.0,0.0,0.0,0.0,0.0,0.0,0.0,0.0,0.0,0.0,0.0,0.0,0.0,0.0,0.0,0.0,0.0,0.0,0.0,0.0,0.0,0.0,0.0,0.0,0.0,0.0,0.0,0.0,0.0,0.0,0.0,0.0,0.0,0.0,0.0,0.0,0.0,0.0,0.0,0.0,0.0,0.0,0.0,0.0,0.0,0.0,0.0,0.0,0.0,0.0,0.0,0.0,0.0,0.0,0.0,0.0,0.0,0.0,0.0,0.0,0.0,0.0,0.0,0.0,0.0,0.0,0.0,0.0,0.0,0.0,0.0,0.0,0.0,0.0,0.0,0.0,0.0,0.0,0.0,0.0,0.0,0.0,0.0,0.0,0.0,0.0,0.0,0.0,0.0,0.0,0.0,0.0,0.0,0.0,0.0,0.0,0.0,0.0,0.0,0.0,0.0,0.0,0.0,0.0,0.0,0.0,0.0,0.0,0.0,0.0,0.0,0.0,0.0,-5.3959,-5.1478,0.0,0.0,0.0,0.0,0.0,0.0,0.0,0.0,0.0,0.0,0.0,0.0,0.0,0.0,0.0,0.0,0.0,0.0,0.0,0.0,0.0,0.0,0.0,0.0,0.0,0.0,0.0,0.0,0.0,0.0,0.0,0.0,0.0,0.0,0.0,0.0,0.0,0.0,0.0,0.0,0.0,0.0,0.0,0.0,0.0,0.0,0.0,0.0,0.0,0.0,0.0,0.0,0.0,0.0,0.0,0.0,0.0,0.0,0.0,0.0,0.0,0.0,0.0,0.0,0.0,0.0,0.0,0.0,0.0,0.0,0.0,0.0,0.0,0.0,0.0,0.0,0.0,0.0,0.0,0.0,0.0,0.0,0.0,0.0,0.0,0.0,0.0,0.0,0.0,0.0,0.0,0.0,0.0,0.0,0.0,0.0,0.0,0.0,0.0,0.0,0.0,0.0,0.0,0.0,0.0,0.0,0.0,0.0,0.0,0.0,0.0,0.0,0.0,0.0,-5.5924,-5.3841,0.0,0.0,0.0,0.0,0.0,0.0,0.0,0.0,0.0,0.0,0.0,0.0,0.0,0.0,0.0,0.0,0.0,0.0,0.0,0.0,0.0,0.0,0.0,0.0,-1.0296,-1.0108,-0.9875,0.0,0.0,0.0,0.0,0.0,0.0,0.0,0.0,0.0,0.0,0.0,0.0,0.0,0.0,0.0,0.0,0.0,0.0,0.0,0.0,0.0,0.0,0.0,0.0,0.0,0.0,0.0,0.0,0.0,0.0,0.0,0.0,0.0,0.0,0.0,0.0,0.0,0.0,0.0,0.0,0.0,0.0,0.0,0.0,0.0,0.0,0.0,0.0,0.0,0.0,0.0,0.0,0.0,0.0,0.0,0.0,0.0,0.0,0.0,0.0,0.0,0.0,0.0,0.0,0.0,0.0,0.0,0.0,0.0,0.0,0.0,0.0,0.0,0.0,0.0,0.0,0.0,0.0,0.0,0.0,0.0,-5.7868,-5.8186,-5.827,-5.8094,-6.0165,-6.3698,-5.8664,-5.7297,-5.8245,-5.4182,0.0,0.0,0.0,0.0,0.0,0.0,0.0,0.0,0.0,0.0,0.0,0.0,0.0,0.0,0.0,0.0,0.0,0.0,0.0,0.0,0.0,-1.0454,-1.0465,-1.0258,-0.993,-1.0176,0.0,0.0,0.0,0.0,0.0,0.0,0.0,0.0,0.0,0.0,0.0,0.0,-1.442,-1.4407,-1.3891,-1.3036,0.0,0.0,0.0,0.0,0.0,0.0,0.0,0.0,0.0,0.0,0.0,0.0,0.0,0.0,0.0,0.0,0.0,0.0,0.0,0.0,0.0,0.0,0.0,0.0,0.0,0.0,0.0,0.0,0.0,0.0,0.0,0.0,0.0,0.0,0.0,0.0,0.0,0.0,0.0,0.0,0.0,0.0,0.0,0.0,-3.1728,-3.3056,0.0,0.0,0.0,0.0,0.0,0.0,0.0,0.0,0.0,0.0,0.0,0.0,0.0,-5.5441,-5.783,-6.1344,-6.3054,-6.298,-6.5378,-6.6129,-6.5417,-6.5172,-6.6189,-6.8078,-6.6135,0.0,-6.1065,-5.8919,0.0,0.0,0.0,0.0,0.0,0.0,0.0,0.0,0.0,0.0,0.0,0.0,0.0,0.0,0.0,0.0,0.0,0.0,0.0,0.0,0.0,-1.0718,-1.0695,-1.0813,-1.061,-1.0692,-1.0918,0.0,0.0,0.0,0.0,0.0,0.0,0.0,0.0,0.0,-1.7223,-1.6466,-1.54,-1.4992,-1.466,-1.4091,-1.3089,-1.2525,-1.2241,-1.1949,0.0,0.0,0.0,0.0,0.0,0.0,0.0,0.0,0.0,0.0,0.0,0.0,0.0,0.0,0.0,0.0,0.0,0.0,0.0,0.0,0.0,0.0,0.0,0.0,0.0,0.0,0.0,0.0,0.0,0.0,0.0,0.0,0.0,0.0,0.0,0.0,0.0,0.0,0.0,-3.0917,-3.3164,-3.3815,-3.3029,-3.2135,0.0,0.0,0.0,0.0,0.0,0.0,0.0,0.0,0.0,-5.7624,-5.9958,-6.2859,-6.6514,-6.8777,-6.9566,-6.9021,-7.035,-7.053,-6.9645,-6.9528,-7.0056,-7.1076,-6.9821,-6.809,-6.5741,-6.1692,-5.8132,-5.5014,0.0,0.0,0.0,0.0,-4.9645,-4.9707,0.0,0.0,0.0,0.0,0.0,0.0,0.0,0.0,0.0,0.0,0.0,0.0,-1.0882,-1.0944,-1.1002,-1.127,-1.1228,-1.1131,-1.1042,-1.122,0.0,0.0,0.0,0.0,0.0,0.0,0.0,0.0,-1.8398,-1.7451,-1.6446,-1.577,-1.5285,-1.5153,-1.4351,-1.3336,-1.2386,-1.2162,-1.2079,0.0,0.0,0.0,0.0,0.0,0.0,0.0,0.0,0.0,0.0,0.0,0.0,0.0,0.0,0.0,0.0,0.0,0.0,0.0,0.0,0.0,0.0,0.0,0.0,0.0,0.0,0.0,0.0,0.0,0.0,0.0,0.0,0.0,0.0,0.0,0.0,0.0,0.0,-3.2993,-3.5324,-3.4601,-3.6133,-3.6363,0.0,0.0,0.0,0.0,0.0,0.0,-5.0917,-5.3986,-5.842,-6.468,-6.6756,-6.9709,-7.3776,-7.4717,-7.4867,-7.4147,-7.4373,-7.4037,-7.3204,-7.3064,-7.3299,-7.3717,-7.2368,-7.1159,-6.974,-6.4326,-6.0834,-5.8538,-5.5331,-5.3479,-5.2499,-5.2065,-5.1843,-5.1977,0.0,0.0,0.0,0.0,0.0,0.0,0.0,0.0,0.0,0.0,0.0,-1.0951,-1.0631,-1.1205,-1.1593,-1.1341,-1.1369,-1.1516,-1.1776,-1.1639,-1.1672,0.0,0.0,0.0,0.0,0.0,0.0,-1.9532,-1.766,-1.6633,-1.6828,-1.6655,-1.6396,-1.5667,-1.566,-1.4765,-1.3308,-1.2868,-1.2678,-1.2576,0.0,0.0,0.0,0.0,0.0,0.0,0.0,0.0,0.0,0.0,0.0,0.0,0.0,0.0,0.0,0.0,0.0,0.0,0.0,0.0,0.0,0.0,0.0,0.0,0.0,0.0,0.0,0.0,0.0,0.0,0.0,0.0,0.0,0.0,0.0,0.0,0.0,0.0,0.0,-3.6536,-4.2721,0.0,0.0,0.0,0.0,-4.681,-5.0303,-5.4687,-5.9852,-6.2332,-6.5638,-7.0063,-7.2235,-7.417,-7.6026,-7.7276,-7.7793,-7.7547,-7.7884,-7.759,-7.6716,-7.6466,-7.6376,-7.6301,-7.4456,-7.2996,-7.1558,-6.7391,-6.3784,-6.0606,-5.784,-5.5984,-5.4873,-5.4906,-5.5436,-5.6284,0.0,0.0,0.0,0.0,0.0,0.0,0.0,0.0,0.0,-1.0498,-1.0821,-1.0974,-1.0955,-1.1511,-1.199,-1.2088,-1.2284,-1.2318,-1.2265,-1.217,-1.2114,0.0,0.0,0.0,0.0,0.0,-2.0095,-2.0231,-1.9981,-1.8903,-1.6664,-1.6418,-1.6144,-1.5485,-1.5125,-1.4764,-1.4089,-1.3634,-1.3227,-1.284,-1.2512,-1.3169,0.0,0.0,0.0,0.0,0.0,0.0,0.0,0.0,0.0,0.0,0.0,0.0,0.0,0.0,0.0,0.0,0.0,0.0,0.0,0.0,0.0,0.0,0.0,0.0,0.0,0.0,0.0,0.0,0.0,0.0,0.0,0.0,0.0,0.0,0.0,0.0,0.0,-4.0401,-4.4875,0.0,-4.4771,-4.8781,-5.1739,-5.2316,-5.7527,-6.2058,-6.5132,-6.8036,-7.1143,-7.4553,-7.6052,-7.7394,-7.8694,-7.9835,-8.0075,-7.9411,-7.9801,-7.9392,-7.8348,-7.8237,-7.7736,-7.6829,-7.5309,-7.3536,-7.1487,-6.8268,-6.5475,-6.2978,-6.0309,-5.895,-5.8441,-5.7626,-5.7586,-5.7903,0.0,0.0,0.0,0.0,0.0,0.0,0.0,0.0,-1.0787,-1.0624,-1.0934,-1.1301,-1.1382,-1.1969,-1.2461,-1.2705,-1.2915,-1.2861,-1.2454,-1.2352,-1.2352,0.0,0.0,0.0,0.0,-2.0296,-2.105,-2.1776,-2.1536,-2.0195,-1.7723,-1.6946,-1.6155,-1.5704,-1.5334,-1.5087,-1.497,-1.4441,-1.3926,-1.3308,-1.3003,-1.4068,-1.5886,0.0,0.0,0.0,0.0,0.0,0.0,0.0,0.0,0.0,0.0,0.0,0.0,0.0,0.0,0.0,0.0,0.0,0.0,0.0,0.0,0.0,0.0,0.0,0.0,0.0,0.0,0.0,0.0,0.0,0.0,0.0,0.0,0.0,0.0,-4.0499,-4.411,-4.3194,-4.8548,-5.1625,-4.949,-5.4647,-5.8398,-5.8831,-6.4136,-6.8204,-7.0183,-7.3015,-7.5586,-7.7823,-7.9092,-7.9991,-8.042,-8.1558,-8.1641,-8.0748,-8.1054,-8.0778,-7.997,-7.9791,-7.8915,-7.7447,-7.6157,-7.4055,-7.1449,-6.9039,-6.6818,-6.4614,-6.1695,-6.0751,-6.0792,-5.9193,-5.8777,-5.9026,0.0,0.0,0.0,0.0,0.0,0.0,0.0,-1.085,-1.093,-1.074,-1.1386,-1.1805,-1.1586,-1.2433,-1.3024,-1.3173,-1.3186,-1.2935,-1.2352,-1.2459,-1.2222,0.0,0.0,0.0,-2.0944,-1.9493,-2.0427,-2.4052,-2.1727,-2.043,-2.008,-1.8092,-1.6808,-1.6173,-1.6173,-1.6166,-1.6159,-1.5444,-1.4774,-1.4228,-1.3624,-1.4937,-1.726,0.0,0.0,0.0,0.0,0.0,0.0,0.0,0.0,0.0,0.0,0.0,0.0,0.0,0.0,0.0,0.0,0.0,0.0,0.0,0.0,0.0,0.0,0.0,0.0,0.0,0.0,0.0,0.0,0.0,0.0,0.0,0.0,0.0,-3.8656,-4.3879,-4.7052,-4.4827,-5.4243,-5.9217,-5.4516,-6.1504,-6.6448,-6.654,-6.9842,-7.288,-7.5085,-7.7325,-7.8942,-7.9869,-8.1477,-8.1939,-8.117,-8.2321,-8.2497,-8.1655,-8.1745,-8.1753,-8.164,-8.1115,-7.9939,-7.8262,-7.7013,-7.4619,-7.147,-6.9842,-6.7766,-6.5332,-6.1968,-6.1199,-6.1736,-5.9474,-5.9275,-5.987,0.0,0.0,0.0,0.0,0.0,0.0,0.0,-1.085,-1.093,-1.074,-1.1386,-1.1891,-1.2017,-1.2644,-1.322,-1.3485,-1.3505,-1.3459,-1.3123,-1.3043,-1.3351,0.0,0.0,0.0,-2.1626,-2.0291,-2.0999,-2.3805,-2.2138,-2.0473,-1.9199,-1.7288,-1.6145,-1.5767,-1.5767,-1.5952,-1.6337,-1.5719,-1.6575,-1.8093,-1.68,-1.7221,-1.872,0.0,0.0,0.0,0.0,0.0,0.0,0.0,0.0,0.0,0.0,0.0,0.0,0.0,0.0,0.0,0.0,0.0,0.0,0.0,0.0,0.0,0.0,0.0,0.0,0.0,0.0,0.0,0.0,0.0,0.0,0.0,0.0,-4.4411,-4.4477,-4.8953,-5.2751,-5.3815,-5.8821,-6.1902,-6.0975,-6.5637,-6.8872,-6.9286,-7.2896,-7.594,-7.7701,-7.9924,-8.1406,-8.203,-8.2808,-8.3054,-8.2631,-8.2825,-8.2869,-8.2745,-8.2301,-8.1555,-8.0516,-8.037,-7.9143,-7.7096,-7.6085,-7.4084,-7.1504,-6.9875,-6.8176,-6.6251,-6.3305,-6.2025,-6.1561,-5.9977,-5.9555,-5.9674,0.0,0.0,0.0,0.0,0.0,0.0,0.0,-1.0907,-1.1089,-1.1031,-1.1696,-1.2222,-1.2416,-1.2895,-1.3342,-1.3519,-1.3417,-1.3295,-1.3085,-1.2969,-1.3657,0.0,0.0,-1.688,-2.1805,-2.0966,-2.1946,-2.5278,-2.3857,-2.2138,-2.0136,-1.8371,-1.6892,-1.5825,-1.5825,-1.6055,-1.6693,-1.7013,-1.8175,-2.0144,-2.0465,-2.0832,-2.12,-2.106,-2.1642,-2.2423,-2.1521,-2.0967,-2.069,-2.005,0.0,0.0,0.0,0.0,0.0,0.0,0.0,0.0,0.0,0.0,0.0,0.0,0.0,0.0,0.0,0.0,0.0,0.0,0.0,0.0,0.0,0.0,0.0,0.0,-4.416,-4.8384,-5.0715,-5.34,-5.6416,-5.9402,-6.2206,-6.4448,-6.561,-6.885,-7.1233,-7.2222,-7.5445,-7.8207,-8.0168,-8.2184,-8.3454,-8.3906,-8.4736,-8.4681,-8.3588,-8.3836,-8.3657,-8.3041,-8.225,-8.1428,-8.0575,-8.0029,-7.8749,-7.6922,-7.5802,-7.3815,-7.1357,-7.0157,-6.8398,-6.6234,0.0,0.0,0.0,0.0,-6.0258,-6.0008,0.0,0.0,0.0,0.0,0.0,0.0,0.0,-1.1005,-1.1201,-1.1456,-1.2116,-1.2611,-1.2623,-1.3119,-1.3403,-1.3403,-1.3132,-1.2862,-1.27,-1.2728,0.0,-1.5362,-1.4576,-1.663,-2.204,-2.17,-2.3499,-2.7251,-2.6013,-2.4226,-2.2043,-2.0008,-1.8013,-1.611,-1.6123,-1.6592,-1.7494,-1.8726,-2.0107,-2.1449,-2.3945,-2.4679,-2.3838,-2.2909,-2.3248,-2.4012,-2.2874,-2.2211,-2.1764,-2.1595,0.0,0.0,0.0,0.0,0.0,0.0,0.0,0.0,0.0,0.0,0.0,0.0,0.0,0.0,0.0,0.0,0.0,0.0,0.0,0.0,0.0,0.0,0.0,0.0,-4.7508,-5.2099,-5.6452,-5.7373,-5.9024,-6.2383,-6.4582,-6.6725,-6.9068,-7.1537,-7.3561,-7.5111,-7.7672,-8.0148,-8.246,-8.4129,0.0,0.0,0.0,-8.6576,-8.4478,-8.5241,-8.4777,-8.3059,-8.2085,-8.1328,-8.0846,-7.9703,-7.837,-7.6828,-7.563,-7.3578,-7.0967,-7.0476,-6.8504,-6.5723,-6.4301,-6.3886,-6.3701,-6.1874,-6.1061,-6.072,0.0,0.0,0.0,0.0,0.0,0.0,0.0,-1.1086,-1.124,-1.1475,-1.2079,-1.2438,-1.2467,-1.3057,-1.3403,-1.3403,-1.3457,-1.3333,-1.2998,0.0,-1.5497,-1.5937,-1.7758,-2.001,-2.2783,-2.3315,-2.4911,-2.7451,-2.5627,-2.3801,-2.1915,-2.0156,-1.8221,-1.6273,-1.6388,-1.7589,-1.9683,-1.9451,-2.1986,-2.6074,-2.5839,-2.5577,-2.5345,-2.5654,-2.5726,-2.574,-2.4649,-2.3973,-2.3538,-2.2464,-2.2005,-2.1946,-2.1795,0.0,0.0,0.0,0.0,0.0,0.0,0.0,0.0,0.0,0.0,0.0,0.0,0.0,0.0,0.0,0.0,0.0,0.0,0.0,0.0,-4.3779,-4.9854,-5.5246,-5.7946,-6.1395,-6.3587,-6.3876,-6.6247,-6.8907,-7.1644,-7.3818,-7.597,-7.7927,-8.0212,-8.2105,-8.361,-8.5575,-8.6804,-8.7118,-8.7997,-8.7919,-8.677,-8.6556,-8.5657,-8.4112,-8.3203,0.0,-7.8239,-7.845,-7.6981,-7.4248,-7.4274,-7.3023,-7.1039,-7.0494,-6.8623,-6.5834,-6.3809,-6.2684,-6.2207,-6.184,-6.1595,-6.1498,0.0,0.0,0.0,0.0,0.0,0.0,0.0,-1.111,-1.1312,-1.1419,-1.1755,-1.2006,-1.1986,-1.2332,-1.2508,-1.2508,-1.2831,-1.3122,0.0,-1.4314,-1.4987,-1.5013,-1.6363,-1.8664,-2.1909,-2.2535,-2.4367,-2.7425,-2.6608,-2.5406,-2.3759,-2.1716,-1.9809,-1.8149,-1.7009,-1.8012,-2.0157,-2.0966,-2.3323,-2.6647,-2.7237,-2.7275,-2.7184,-2.7472,-2.7384,-2.7021,-2.6093,-2.5506,-2.5102,-2.4711,-2.4381,-2.4215,-2.4233,-2.3909,-2.352,0.0,0.0,0.0,0.0,0.0,0.0,0.0,0.0,0.0,0.0,0.0,0.0,0.0,0.0,-3.6003,0.0,0.0,-4.3618,-4.691,-5.2154,-5.6498,-5.8652,-6.3054,-6.6302,-6.6733,-6.8963,-7.161,-7.4577,-7.6651,-7.8481,-7.9875,-8.2405,-8.4367,-8.5521,-8.708,-8.8367,-8.9235,-8.9473,-8.9266,-8.8679,-8.7359,-8.6311,-8.5468,-8.2845,-8.0747,-7.9169,-7.7801,-7.6427,-7.4966,-7.4014,-7.2973,-7.1745,-6.9613,-6.7652,-6.5913,-6.4105,-6.3166,-6.2858,-6.2502,-6.234,-6.2242,0.0,0.0,0.0,0.0,0.0,0.0,0.0,-1.1135,-1.1256,-1.1247,-1.1467,-1.1596,-1.147,-1.1586,-1.1586,-1.164,-1.2503,-1.3145,0.0,-1.3826,-1.4354,-1.4414,-1.5147,-1.7322,-2.0847,-2.2024,-2.4127,-2.757,-2.7836,-2.7059,-2.5561,-2.3484,-2.1604,-2.0028,-1.8218,-1.8624,-2.0841,-2.2831,-2.4818,-2.6822,-2.8362,-2.8906,-2.8781,-2.8648,-2.8176,-2.7795,-2.7169,-2.6624,-2.6348,-2.6698,-2.6581,-2.6185,-2.6697,-2.6418,-2.5899,-2.5604,-2.629,0.0,0.0,0.0,0.0,0.0,0.0,0.0,0.0,0.0,-3.5821,-3.6737,-3.7946,-3.9668,-4.207,-4.349,-4.5821,-5.0498,-5.4216,-5.7399,-5.9629,-6.4334,-6.8076,-6.9258,-7.1424,-7.407,-7.7208,-7.9192,-8.0768,-8.1922,-8.4632,-8.6607,-8.7502,-8.8692,-8.9815,-9.0889,-9.065,-9.0335,-8.9797,-8.8079,-8.6843,-8.6041,-8.2396,-8.0536,-8.0158,-7.753,-7.6324,-7.6206,-7.4249,-7.3074,-7.2221,-6.8777,-6.6922,-6.6127,-6.4728,-6.4218,-6.4121,-6.3376,-6.3117,-6.302,0.0,0.0,0.0,0.0,0.0,0.0,0.0,0.0,-1.1296,-1.1396,-1.1657,-1.1517,-1.1317,-1.1457,-1.174,-1.1876,-1.3199,-1.4404,-1.5458,-1.5215,-1.5428,-1.6665,-1.9112,-2.0814,-2.1248,-2.5021,-2.7473,-2.8113,-2.8391,-2.7511,-2.5809,-2.4016,-2.1998,-2.0036,-1.9975,-2.0984,-2.3062,-2.489,-2.7255,-2.9371,-2.8753,-2.9036,-2.9444,-2.8768,-2.839,-2.7927,-2.7496,-2.6959,-2.6664,-2.6648,-2.6682,-2.6965,-2.7849,-2.8717,-2.9271,-2.7616,0.0,-2.9177,-2.6457,-2.8093,-3.1142,-3.3417,-3.4565,-3.6131,0.0,0.0,-3.9704,-4.1863,-4.3512,-4.4648,-4.5391,-4.7029,-4.9406,-5.2787,-5.5753,-5.8642,-6.1306,-6.6343,-6.9847,-6.9995,-7.2055,-7.4971,-7.9158,-8.042,-8.2116,-8.4771,-8.7108,-8.8472,-8.8727,-9.0436,-9.124,-9.0889,-9.1023,-9.0601,-8.9489,-8.9166,-8.7429,-8.4287,-8.3251,-8.109,-7.7944,-7.7635,-7.6843,-7.5605,-7.4421,-7.3039,-7.1457,-6.9166,-6.7687,-6.6884,-6.5443,-6.4898,-6.4833,-6.4153,-6.3894,-6.3764,0.0,0.0,0.0,0.0,0.0,0.0,0.0,0.0,0.0,-1.0897,-1.1098,-1.1038,-1.0493,-1.0761,-1.1155,-1.1471,-1.2858,-1.4286,-1.5736,-1.6674,-1.7611,-1.8973,-2.0426,-2.1957,-2.3334,-2.5373,-2.6944,-2.8198,-2.8487,-2.8367,-2.7628,-2.5638,-2.4187,-2.35,-2.2378,-2.2978,-2.491,-2.5819,-2.7441,-2.9384,-2.8898,-2.8691,-2.8706,-2.8793,-2.8509,-2.7737,-2.672,-2.6605,0.0,-2.662,-2.6749,-2.7289,-2.8393,-2.9088,-2.9108,-2.8432,-2.9234,0.0,-3.0786,-3.1176,-3.2213,0.0,-3.6784,-3.8118,-4.1444,-4.2258,-4.2635,-4.4517,-4.598,-4.7116,-4.7597,-4.9941,-5.2309,0.0,-5.7533,-6.0701,-6.1843,-6.6657,-7.0107,-7.0107,-7.2922,-7.6214,-7.9726,-8.1544,-8.3537,-8.5781,-8.8168,-8.935,-8.9047,-8.998,-9.0738,-9.1279,-9.057,-9.023,-9.0344,-8.8118,-8.6284,-8.4954,-8.2042,-7.9853,-7.8328,-7.7579,-7.6733,-7.5798,-7.4937,-7.338,-7.1444,-6.9615,-6.8268,-6.7036,-6.6031,-6.5643,-6.5513,-6.4412,-6.4024,-6.3959,0.0,0.0,0.0,0.0,0.0,0.0,0.0,0.0,0.0,0.0,-1.0651,-1.0543,-0.9971,-1.0232,-1.0602,-1.0971,-1.2563,-1.4514,-1.6505,-1.8012,-1.9493,-2.1343,-2.1856,-2.3096,-2.4958,-2.5648,-2.6927,-2.8427,-2.8632,-2.8825,-2.9019,-2.6889,-2.5815,-2.5976,-2.4377,-2.4578,-2.6164,-2.6904,-2.7974,-2.9201,-2.9322,-2.8845,-2.8172,-2.8766,-2.8335,-2.7177,-2.6363,-2.6208,-2.6423,-2.617,-2.6413,-2.6841,-2.7869,-2.8343,-2.8608,-2.8289,-2.8963,-3.046,-3.2811,0.0,0.0,-3.7669,-3.9516,-4.0987,-4.363,-4.4757,-4.5544,-4.6592,-4.819,-4.9473,-4.9962,-5.2423,-5.4714,-5.5876,-5.933,-6.2198,-6.312,-6.6703,-6.9411,-6.9854,-7.2511,-7.5589,-7.9195,-8.2,-8.4694,-8.7121,-8.9614,-9.0944,-9.0662,-9.0818,-9.1257,-9.2025,-9.0564,-8.9888,-9.0128,-8.7024,-8.5143,-8.4474,-8.1114,-7.9311,-7.8976,-7.8108,-7.7348,-7.672,-7.5909,-7.4343,-7.2055,-7.0582,-6.9273,-6.7974,-6.6841,-6.6517,-6.6517,-6.5125,-6.4477,-6.425,0.0,0.0,0.0,0.0,0.0,0.0,0.0,0.0,0.0,0.0,0.0,0.0,0.0,-1.0072,-1.0429,-1.08,-1.2927,-1.55,-1.8549,-1.9088,-2.0701,-2.3621,-2.4204,-2.4732,-2.5636,-2.7366,-2.8463,-2.8982,-2.8994,-2.9006,-2.9019,-2.7057,-2.6164,-2.6175,-2.5976,-2.5976,-2.6363,-2.8712,-2.9784,-2.976,-3.0063,-2.9432,-2.852,-2.8521,-2.7622,-2.6401,-2.6877,-2.6488,-2.5945,-2.519,-2.5066,-2.5251,-2.5852,-2.7018,0.0,-2.7401,-2.7546,0.0,0.0,0.0,-3.586,-4.0137,-4.3297,-4.5806,-4.8178,-4.8733,-4.8755,-4.8798,-5.0591,-5.2189,-5.2671,-5.4603,-5.7072,-5.9747,-6.0713,-6.2505,-6.6146,-6.6861,-6.7639,-6.9118,-6.9674,-7.2086,-7.7613,-8.1506,-8.5341,-8.9524,-9.2156,-9.3783,-9.4329,-9.4315,-9.3892,-9.3176,-9.1412,-8.9664,-8.7994,-8.6535,-8.434,-8.1529,-8.1148,-8.0376,-7.9316,-7.9523,-7.9143,-7.836,-7.7611,-7.5897,-7.3596,-7.2089,-7.1059,-7.0112,-6.7974,-6.7553,-6.7974,-6.655,-6.561,-6.4898,0.0,0.0,0.0,0.0,0.0,0.0,0.0,0.0,0.0,0.0,0.0,0.0,0.0,0.0,0.0,0.0,-1.34,-1.5497,-1.8721,-2.0564,-2.2406,-2.4589,-2.623,-2.7341,-2.7787,-2.8442,-2.8772,-2.9319,-2.8946,-2.8753,-2.8753,-2.805,-2.7696,-2.7696,-2.7696,-2.7891,-2.8268,-2.9163,-2.9704,-3.005,-2.9962,-2.9343,-2.8724,-2.7964,-2.6942,-2.5827,0.0,-2.5506,-2.554,-2.5842,0.0,0.0,-2.7437,0.0,0.0,-2.8511,0.0,0.0,0.0,0.0,-3.9838,-4.3739,-4.5639,-4.7199,-4.9285,-4.9847,-4.9847,-4.9847,-4.9763,-4.967,-4.9829,-5.2679,-5.5629,-5.8037,-6.1782,-6.5404,-6.8096,-6.972,-7.0793,-7.1247,-7.2739,0.0,0.0,-8.0594,-8.3466,-8.9526,-9.1112,-9.2317,-9.3361,-9.3361,-9.2935,-9.2083,-9.0664,-8.9235,-8.7851,-8.5813,-8.4059,-8.2523,-8.0945,-7.9965,-7.9559,-7.9071,-7.8752,-7.8377,-7.6505,-7.4956,-7.3696,-7.2114,-7.0831,-6.9594,-6.8849,-6.8428,-6.8072,-6.7165,-6.6679,-6.629,0.0,0.0,0.0,0.0,0.0,0.0,0.0,0.0,0.0,0.0,0.0,0.0,0.0,0.0,0.0,0.0,0.0,-1.565,-1.8747,-2.0946,-2.2891,-2.4341,-2.6045,-2.698,-2.7184,-2.7359,-2.7324,-2.7595,-2.7524,-2.7486,-2.7486,-2.7872,-2.8101,-2.8198,-2.8375,-2.8613,-2.909,-2.9369,-2.9581,-2.9525,-2.9221,-2.8629,-2.7721,-2.6913,-2.6004,0.0,-2.5368,-2.5544,-2.5859,-2.5689,0.0,0.0,0.0,0.0,0.0,0.0,0.0,0.0,0.0,-3.9301,-4.2665,-4.6342,-4.7617,-4.8619,-5.0565,-5.1092,-5.1048,-5.0873,-5.0142,-4.9545,-4.936,-5.2583,-5.5553,-5.6185,-6.0642,-6.4938,-6.7523,-6.8536,-6.9764,-7.2239,-7.3596,-7.6149,0.0,0.0,0.0,-8.9793,-9.1262,-9.2423,-9.3678,-9.3882,-9.338,-9.2244,-9.0764,-8.9057,-8.7025,-8.4946,-8.333,-8.2331,-8.0896,-8.018,-8.008,-7.9315,-7.8788,-7.8385,-7.621,-7.4837,-7.4034,-7.2482,-7.1284,-7.0371,-6.9885,-6.9529,-6.9237,-6.8266,-6.778,-6.7294,0.0,0.0,0.0,0.0,0.0,0.0,0.0,0.0,0.0,0.0,0.0,0.0,0.0,0.0,0.0,0.0,0.0,0.0,-1.8383,-2.0303,-2.1914,-2.3261,-2.3744,-2.4171,-2.4246,-2.443,-2.4258,-2.4214,-2.4975,-2.5361,-2.5373,-2.6375,-2.6979,-2.722,-2.7755,-2.8074,-2.8297,-2.8988,-2.9104,-2.8504,-2.8193,-2.7357,-2.5974,-2.5285,-2.4829,-2.4796,-2.5982,-2.664,-2.6712,0.0,0.0,0.0,0.0,0.0,0.0,0.0,0.0,-3.5171,-3.8359,-4.1483,-4.4646,-4.7832,-4.9406,-5.0379,-5.2189,-5.2637,-5.244,-5.1849,-5.1684,-5.1369,0.0,0.0,-5.6278,-5.4746,-5.8032,-6.2078,-6.5679,-6.4405,-6.5555,0.0,0.0,0.0,0.0,0.0,0.0,-9.0587,-9.2641,-9.4136,-9.527,-9.5786,-9.5225,-9.3437,-9.1711,-8.9138,-8.5628,-8.3944,-8.2406,-8.1048,-8.1048,-8.0984,-8.084,-8.0068,-7.9249,-7.8252,-7.6634,-7.5546,-7.4736,-7.3243,-7.2527,-7.2314,-7.0986,-7.0824,-7.1213,-6.9788,-6.8849,-6.7942,0.0,0.0,0.0,0.0,0.0,0.0,0.0,0.0,0.0,0.0,0.0,0.0,0.0,0.0,0.0,0.0,0.0,0.0,-1.7349,-1.9815,-2.1319,-2.1684,-2.3287,-2.4201,-2.4163,-2.4225,-2.4252,-2.4579,-2.4304,-2.4251,-2.4251,-2.4323,-2.4395,-2.4468,-2.4784,-2.52,-2.5425,-2.6259,-2.6698,-2.6666,-2.66,-2.6119,-2.5398,-2.5352,-2.4939,-2.4627,-2.5983,-2.6641,0.0,0.0,0.0,0.0,0.0,0.0,-3.2266,0.0,0.0,-4.0124,-4.2452,-4.6088,-4.936,-5.066,-5.1612,-5.2752,-5.3963,-5.398,-5.3378,-5.207,-5.0362,-4.8664,0.0,0.0,0.0,-5.839,-6.3262,0.0,-7.269,-7.3265,0.0,-7.7083,0.0,-8.1078,-8.5323,-8.648,0.0,0.0,-9.3231,-9.3926,-9.5646,-9.6366,-9.5652,-9.3243,-9.164,-8.9138,-8.5639,-8.3907,-8.266,-8.1893,-8.1893,-8.1223,-7.9992,-7.9762,-7.8529,-7.6634,-7.5642,-7.477,-7.397,-7.2881,-7.2201,-7.1666,-7.131,-7.0954,-7.0565,-6.9626,-6.8968,-6.8171,0.0,0.0,0.0,0.0,0.0,0.0,0.0,0.0,0.0,0.0,0.0,0.0,0.0,0.0,0.0,0.0,0.0,0.0,0.0,-1.8776,-1.997,-2.0094,-2.128,-2.1745,-2.1658,-2.1912,-2.1982,-2.2005,-2.2311,-2.2452,-2.2452,-2.2778,-2.2995,-2.3104,-2.3723,-2.4007,-2.429,-2.5114,-2.5264,0.0,0.0,-2.4671,-2.4595,-2.4429,-2.4855,-2.5581,-2.6382,0.0,0.0,0.0,0.0,-3.4332,-3.5433,-3.607,-3.677,-3.8655,0.0,-4.4141,-4.61,-4.9403,-5.2381,-5.2193,-5.3532,-5.4691,-5.3251,-5.3543,-5.3265,-5.0435,-4.8518,0.0,-4.536,-5.0243,0.0,0.0,0.0,0.0,-7.4034,-7.4989,-7.6539,0.0,-8.2276,0.0,-8.8712,-9.0253,-9.2252,0.0,-9.4593,-9.4677,-9.6005,-9.6628,-9.5512,-9.2405,-9.1174,-8.8933,-8.5437,-8.3559,-8.2681,-8.2737,-8.1965,-8.0947,-7.9721,-7.9329,-7.7977,-7.5986,-7.5161,-7.4473,-7.3665,-7.2794,-7.2249,-7.1893,-7.1893,-7.1666,-7.1213,-7.0144,-6.9446,-6.8668,0.0,0.0,0.0,0.0,0.0,0.0,0.0,0.0,0.0,0.0,0.0,0.0,0.0,0.0,0.0,0.0,0.0,0.0,0.0,0.0,-1.8298,-1.8765,-1.8893,-1.869,-1.8369,-1.8865,-1.9013,-1.8686,-1.9869,-2.046,-2.0472,-2.1366,-2.1909,-2.2275,-2.3016,-2.3426,-2.3753,-2.4475,-2.4526,-2.3944,-2.3201,-2.335,-2.4065,0.0,-2.4885,-2.6953,0.0,0.0,0.0,0.0,-3.6913,-3.8153,-3.931,-3.9983,-4.082,-4.2882,-4.5315,-4.7517,-4.9298,-5.1767,-5.38,-5.3059,-5.5152,-5.6074,-5.185,-5.269,-5.3032,-4.857,0.0,-4.6325,-4.5166,-5.1595,-5.7132,-5.7242,0.0,-7.0371,-7.4076,-7.4605,-7.6635,-8.2147,-8.505,-8.7931,-9.1271,-9.3392,-9.5365,-9.7362,-9.6631,-9.6243,-9.652,-9.6888,-9.5225,-9.117,-9.0135,-8.8098,-8.4867,-8.3189,-8.2663,-8.3251,-8.1881,-8.0728,-7.9786,-7.9047,-7.7648,-7.5967,-7.5198,-7.4372,-7.3492,-7.2794,-7.2508,-7.2508,-7.2508,-7.2508,-7.2346,-7.0914,-7.0018,-6.9106,0.0,0.0,0.0,0.0,0.0,0.0,0.0,0.0,0.0,0.0,-1.5322,-1.4895,0.0,0.0,0.0,0.0,0.0,0.0,0.0,0.0,0.0,-1.8415,-1.8466,-1.837,-1.7985,-1.8545,-1.8704,-1.8686,-1.9132,-1.935,-1.935,-1.9314,-1.9455,-1.9881,-2.027,-2.0426,-2.068,-2.2622,-2.3235,-2.2904,-2.299,-2.3678,-2.4558,-2.4624,0.0,0.0,0.0,0.0,0.0,0.0,-3.907,-4.1041,-4.2535,-4.3609,-4.464,-4.692,-4.8206,-4.9361,-5.1893,-5.3496,-5.4521,-5.4301,-5.5727,-5.656,-5.3959,-5.4427,0.0,0.0,-4.8784,-4.8492,-4.6724,-5.0925,-5.7052,-6.4159,0.0,0.0,0.0,0.0,-8.3606,0.0,-8.9423,-9.2033,-9.4993,-9.5856,0.0,0.0,-9.9514,-9.8904,-9.8019,-9.7974,-9.5436,-8.9892,-8.7529,-8.5375,-8.3392,-8.3235,-8.292,-8.2406,-8.2718,-8.2061,-8.0606,-7.9686,-7.8074,-7.597,-7.5068,-7.3914,-7.2688,-7.2615,-7.2508,-7.2508,-7.2508,-7.2508,-7.2272,-7.0974,-6.9765,-6.8622,0.0,0.0,0.0,0.0,0.0,0.0,0.0,-1.5813,-1.5994,-1.6247,-1.6074,-1.6023,-1.6149,-1.4621,0.0,0.0,0.0,0.0,0.0,0.0,0.0,0.0,0.0,0.0,-1.7672,-1.8046,-1.8325,-1.8481,0.0,-1.8939,-1.9072,-1.8951,-1.9132,-1.9385,-1.9764,-2.0078,-2.0349,-2.2338,-2.2988,-2.298,-2.3746,-2.4822,-2.5907,0.0,0.0,0.0,0.0,0.0,0.0,0.0,-3.9682,-4.387,-4.6058,-4.7448,-4.8497,-4.986,-5.0929,-5.2003,-5.3234,-5.4652,-5.6083,-5.6909,-5.7768,-5.7645,-5.4034,0.0,0.0,0.0,-4.8004,-4.8419,-4.811,0.0,0.0,0.0,0.0,0.0,0.0,0.0,0.0,0.0,0.0,-9.4368,0.0,-9.7616,-9.8515,-10.0507,-10.0782,-10.011,-9.8122,-9.5524,-9.2366,-8.8628,-8.6114,-8.4423,-8.3626,-8.306,-8.2538,-8.2162,-8.2068,-8.1377,-8.0176,-7.9276,-7.7754,-7.5973,-7.5062,-7.3836,-7.2508,-7.2508,-7.2508,-7.2508,-7.2508,-7.2508,-7.2304,-7.0995,-6.9753,-6.8545,0.0,0.0,0.0,0.0,0.0,0.0,0.0,-1.6115,-1.6308,-1.6368,-1.6742,-1.7044,-1.7165,-1.6008,-1.5375,0.0,0.0,0.0,0.0,0.0,0.0,0.0,0.0,0.0,0.0,0.0,0.0,-1.8372,-1.8638,0.0,0.0,0.0,0.0,0.0,-1.9903,-2.0423,-2.1362,-2.2841,-2.3683,0.0,0.0,-2.6277,0.0,0.0,0.0,0.0,0.0,0.0,0.0,0.0,-3.9347,-4.4408,-4.7509,-4.9646,-5.1013,-5.1498,-5.3003,-5.4439,-5.5258,-5.6687,-5.8278,-5.9431,-6.0334,-5.9466,-5.4024,-5.3954,0.0,-4.8125,-4.7794,-4.8834,-4.973,0.0,-5.8701,0.0,0.0,0.0,0.0,0.0,0.0,0.0,0.0,0.0,-9.8384,-9.894,0.0,-10.039,-10.0208,-9.9345,-9.7693,-9.2827,-8.9311,-8.7572,-8.5387,-8.4086,-8.3756,-8.272,-8.2121,-8.1817,-8.1311,-8.0529,-7.953,-7.8837,-7.7545,-7.5906,-7.5087,-7.3894,-7.2508,-7.2508,-7.2508,-7.2508,-7.2508,-7.2508,-7.2304,-7.108,-6.9867,-6.8657,0.0,0.0,0.0,0.0,0.0,0.0,0.0,-1.6127,-1.6392,-1.6634,-1.6706,-1.6923,-1.7394,-1.6374,-1.5548,0.0,0.0,0.0,0.0,0.0,0.0,0.0,0.0,0.0,0.0,0.0,0.0,-1.85,-1.8903,0.0,0.0,0.0,0.0,0.0,0.0,-2.1105,-2.3524,-2.4456,0.0,0.0,0.0,0.0,0.0,0.0,0.0,0.0,0.0,0.0,0.0,0.0,0.0,-3.9993,-4.3489,-4.725,-5.0489,-5.1277,0.0,0.0,-5.9403,-6.1025,-6.1939,-6.1437,-6.2904,-6.2611,-5.5707,0.0,-5.6267,-5.094,-5.0762,-5.1748,-5.2545,-5.4132,-5.7309,0.0,0.0,-7.021,0.0,0.0,0.0,0.0,0.0,0.0,-9.8611,-9.9604,-9.9994,-9.9481,-9.6553,-9.542,-9.6908,-9.2204,-8.8733,-8.7116,-8.5242,-8.3682,-8.2426,-8.2202,-8.1743,-8.1056,-8.1531,-8.0981,-7.9554,-7.9259,-7.8007,-7.5878,-7.5027,-7.3847,-7.2508,-7.2508,-7.2508,-7.2508,-7.2508,-7.2508,-7.2369,-7.1076,-7.0188,-6.9383,0.0,0.0,0.0,0.0,0.0,0.0,-1.6103,-1.6368,-1.6634,-1.6899,-1.7068,-1.7249,-1.7455,-1.7009,-1.6762,-1.6762,0.0,0.0,0.0,0.0,0.0,0.0,0.0,0.0,0.0,0.0,-1.7911,-1.8173,-1.8435,0.0,0.0,0.0,0.0,0.0,0.0,-2.1393,-2.3773,-2.4595,0.0,0.0,0.0,0.0,0.0,0.0,0.0,0.0,0.0,0.0,0.0,0.0,0.0,0.0,-3.9681,-4.3075,0.0,0.0,-5.3352,-5.6056,-5.9883,-6.1831,-6.3244,-6.4856,-6.3217,-6.0697,-5.8271,0.0,-5.4551,-5.184,-5.1957,-5.3045,-5.4616,-5.5205,-5.6954,-6.1259,0.0,0.0,0.0,0.0,0.0,0.0,0.0,0.0,0.0,0.0,-9.8815,-9.8646,-9.5296,-9.354,-9.4145,-9.0325,-8.7457,-8.6036,-8.4588,-8.3079,-8.1405,-8.1379,-8.0764,-7.9487,-8.0175,-7.9877,-7.8674,-7.8151,-7.7237,-7.5839,-7.4594,-7.3415,-7.2508,-7.2508,-7.2508,-7.2508,-7.2508,-7.2262,-7.183,-7.106,-7.006,-6.892,0.0,0.0,0.0,0.0,0.0,-1.5982,-1.6235,-1.6525,-1.6791,-1.7056,-1.7322,-1.7479,-1.7479,-1.7479,-1.7479,-1.7479,-1.6644,0.0,0.0,0.0,0.0,0.0,0.0,0.0,0.0,0.0,-1.7985,-1.8273,-1.8524,-1.8728,0.0,0.0,-1.9054,-1.9193,0.0,0.0,0.0,0.0,0.0,0.0,0.0,0.0,0.0,0.0,0.0,0.0,0.0,0.0,0.0,0.0,0.0,0.0,0.0,0.0,0.0,0.0,-5.2595,-5.6122,-6.0512,-6.3444,-6.5849,-6.8219,-6.5404,-6.1631,0.0,0.0,-5.4698,-5.3318,-5.3568,-5.4644,-5.6545,-5.6795,-5.7633,-6.0309,0.0,-6.5948,-7.0869,0.0,0.0,0.0,0.0,0.0,0.0,-9.7197,-9.7499,-9.7421,-9.4312,-9.2065,-9.1245,-8.8116,-8.5991,-8.514,-8.3854,-8.2465,-8.0911,-8.0659,-7.9839,-7.8504,-7.9056,-7.8681,-7.7502,-7.7279,-7.6365,-7.512,-7.4095,-7.3156,-7.2508,-7.2508,-7.2508,-7.2508,-7.2262,-7.1938,-7.147,-7.0694,-6.9691,-6.8582,0.0,0.0,0.0,0.0,0.0,0.0,-1.6235,-1.6525,-1.6791,-1.7056,-1.7322,-1.7479,-1.7479,-1.7479,-1.7479,-1.7479,-1.7479,0.0,0.0,0.0,0.0,0.0,0.0,0.0,0.0,0.0,-1.8556,-1.9099,-1.9079,-1.9139,-1.9145,-1.9162,-1.985,-2.1029,0.0,0.0,0.0,0.0,0.0,0.0,0.0,0.0,0.0,0.0,0.0,0.0,0.0,0.0,0.0,0.0,0.0,0.0,0.0,0.0,0.0,0.0,-5.087,-5.6967,-6.2128,-6.6984,-7.0624,-7.1701,-7.0329,-6.7567,0.0,0.0,-5.8497,-5.6039,-5.6037,-5.6829,-5.8152,-5.8711,-5.9692,-6.1972,-6.255,0.0,-7.0735,0.0,0.0,0.0,0.0,0.0,-8.8791,-9.3735,-9.6386,-9.5606,-9.3153,-9.0731,-8.8556,-8.5896,-8.4494,-8.4667,-8.309,-8.1782,-8.0911,-8.0068,-7.9329,-7.8504,-7.843,-7.7588,-7.5973,-7.6743,-7.579,-7.3577,-7.3577,-7.3156,-7.2508,-7.2508,-7.2508,-7.2401,-7.1798,-7.158,-7.147,-7.0243,-6.935,-6.8582,0.0,0.0,0.0,0.0,0.0,0.0,0.0,-1.6646,-1.6791,-1.7056,-1.7322,-1.7479,-1.7479,-1.7479,-1.7479,-1.7479,-1.7479,0.0,0.0,0.0,0.0,0.0,0.0,0.0,0.0,-1.7733,-1.8009,-1.8692,-1.8961,-1.9815,-2.1149,-2.2497,-2.3843,-2.5015,-2.4007,-2.5242,0.0,0.0,0.0,0.0,0.0,0.0,0.0,0.0,0.0,0.0,0.0,0.0,0.0,0.0,0.0,0.0,0.0,0.0,0.0,0.0,0.0,0.0,-5.8053,-6.0804,-6.2746,-6.4865,-6.3109,-6.044,-5.9439,0.0,-5.6303,-5.5629,-5.6664,-5.8256,-5.9663,-6.0244,-6.1103,-6.3109,-6.3539,0.0,0.0,0.0,0.0,0.0,0.0,0.0,0.0,0.0,-9.6344,-9.3727,-9.1317,-8.9002,-8.677,-8.4713,-8.3655,-8.3789,-8.2307,-8.1053,-8.0068,-7.9249,-7.8504,-7.7632,-7.7554,-7.6982,-7.5939,-7.5705,-7.483,-7.3545,-7.3059,-7.2703,-7.2508,-7.2508,-7.2508,-7.2401,-7.183,-7.136,-7.0854,-6.9628,-6.8748,-6.7981,0.0,0.0,0.0,0.0,0.0,0.0,0.0,-1.6791,-1.6948,-1.7201,-1.7382,-1.7479,-1.7479,-1.7479,-1.7479,-1.7479,-1.7479,0.0,0.0,0.0,0.0,0.0,0.0,0.0,-1.7479,-1.7601,-1.7829,-1.8131,-1.8778,-2.0013,-2.1742,-2.3753,-2.5233,-2.5937,-2.5194,-2.6083,0.0,0.0,0.0,0.0,0.0,0.0,-2.9094,0.0,0.0,0.0,0.0,0.0,0.0,0.0,0.0,0.0,0.0,0.0,0.0,0.0,0.0,0.0,0.0,-5.8325,-6.0198,-6.2463,-6.0714,0.0,0.0,0.0,0.0,-5.6457,-5.7912,-5.9523,-6.1079,-6.1665,-6.2524,-6.4143,-6.4534,0.0,0.0,0.0,0.0,0.0,0.0,0.0,0.0,-9.5833,-9.5313,-9.2486,-9.0132,-8.7803,-8.5442,-8.396,-8.3016,-8.2621,-8.1636,-8.044,-7.9249,-7.8999,-7.831,-7.7223,-7.7534,-7.688,-7.5538,-7.5102,-7.4235,-7.3156,-7.2703,-7.2508,0.0,-7.2508,-7.2401,-7.2046,-7.1502,-7.0759,-6.9835,-6.8831,-6.791,-6.7042,0.0,0.0,0.0,0.0,0.0,0.0,0.0,-1.6923,-1.7153,-1.7418,-1.7467,-1.7479,-1.7479,-1.7479,-1.7479,-1.7479,0.0,0.0,0.0,0.0,0.0,0.0,0.0,0.0,-1.7479,-1.772,-1.7733,-1.7505,-1.852,-1.9645,-2.0967,-2.3048,-2.4161,-2.4427,-2.4547,-2.5463,-2.7263,-2.8498,-2.8975,-2.8993,-2.9094,-2.9094,0.0,0.0,0.0,0.0,0.0,0.0,0.0,0.0,0.0,0.0,0.0,0.0,0.0,0.0,0.0,0.0,0.0,0.0,-6.1465,-6.2933,-6.1933,-6.0422,0.0,0.0,0.0,0.0,0.0,0.0,-6.2218,-6.2992,-6.3791,-6.513,0.0,0.0,0.0,0.0,0.0,0.0,0.0,0.0,-8.923,-9.2326,-9.3593,-9.1672,-8.941,-8.7006,-8.4544,-8.3538,-8.2437,-8.1123,-8.084,-7.9992,-7.8504,-7.9122,-7.8728,-7.7223,-7.7982,-7.7144,-7.4902,-7.4902,-7.4003,-7.2508,-7.2508,-7.2508,-7.2508,-7.2508,-7.2154,-7.158,-7.0886,-6.9916,-6.8789,-6.8042,-6.6981,-6.5903,0.0,0.0,0.0,0.0,0.0,0.0,0.0,0.0,0.0,0.0,-1.7358,-1.7479,-1.7479,-1.7479,-1.7479,0.0,0.0,0.0,0.0,0.0,0.0,0.0,0.0,0.0,-1.7479,-1.7539,-1.7781,-1.8057,-1.7973,-1.8704,-2.0425,-2.1825,-2.3323,-2.5011,-2.5625,-2.6935,-2.8498,-2.8856,-2.8975,-2.9094,-2.9804,-3.0039,0.0,0.0,0.0,0.0,-3.3006,-3.3706,0.0,0.0,0.0,0.0,0.0,0.0,0.0,0.0,-4.9748,0.0,-5.4908,0.0,-5.5533,-5.6675,-5.7441,-5.7893,0.0,0.0,0.0,0.0,0.0,0.0,0.0,0.0,0.0,0.0,0.0,0.0,0.0,0.0,0.0,0.0,-9.4596,-9.5746,-9.1624,-9.3045,-9.3,-8.9917,-8.7533,-8.5372,-8.3488,-8.215,-8.098,-8.0068,-7.9408,-7.8882,-7.8504,-7.8033,-7.754,-7.7223,-7.7396,-7.6539,-7.4902,-7.4902,-7.4003,-7.2508,-7.2508,-7.2508,-7.2508,-7.2508,-7.2154,-7.1548,-7.0347,-6.9476,-6.8664,-6.6961,-6.618,-6.5842,0.0,0.0,0.0,0.0,0.0,0.0,0.0,0.0,0.0,0.0,0.0,0.0,0.0,0.0,0.0,0.0,0.0,0.0,0.0,0.0,0.0,0.0,0.0,-1.7479,-1.7479,-1.7479,-1.7684,-1.8094,-1.7937,-1.8557,-1.995,-2.1418,-2.3187,-2.5131,-2.6883,-2.8181,-2.8975,-2.8975,-2.8975,-2.9094,-3.0039,0.0,0.0,0.0,0.0,0.0,-3.3593,-3.4379,0.0,-3.7853,-3.898,-3.9905,0.0,0.0,0.0,0.0,-5.1997,-5.364,-5.656,-5.604,-5.481,-5.5418,-5.672,-5.7842,0.0,0.0,0.0,0.0,0.0,0.0,0.0,0.0,0.0,0.0,0.0,0.0,0.0,0.0,0.0,0.0,-9.4567,-9.547,0.0,-9.3158,-9.1894,-8.9243,-8.6547,-8.4255,-8.256,-8.1464,-8.0366,-7.917,-7.8718,-7.8336,-7.7945,-7.7836,-7.7568,-7.7223,-7.7171,-7.6394,-7.4902,-7.4506,-7.3698,-7.2508,-7.2508,-7.2508,-7.2508,-7.2508,-7.1938,-7.1076,-7.0046,-6.8938,-6.7745,-6.6386,-6.5719,-6.538,0.0,0.0,0.0,0.0,0.0,0.0,0.0,0.0,0.0,0.0,0.0,0.0,0.0,0.0,0.0,0.0,0.0,0.0,0.0,0.0,0.0,0.0,-1.7479,-1.7479,-1.7479,-1.7527,-1.7672,-1.7937,-1.8179,-1.8692,-1.9614,-2.1582,-2.3505,-2.5522,-2.7944,-2.8975,-2.8975,-2.8975,-2.9094,-2.9331,-3.0255,0.0,0.0,0.0,0.0,0.0,0.0,0.0,0.0,-3.9088,-4.0611,-4.2118,-4.5129,0.0,0.0,0.0,0.0,0.0,-5.8619,-5.8633,-5.7759,-5.7277,-5.8287,-5.9479,-5.987,0.0,0.0,0.0,0.0,0.0,0.0,0.0,0.0,0.0,0.0,0.0,0.0,0.0,0.0,0.0,-9.1926,0.0,-9.399,-9.2486,-9.0652,-8.8605,-8.5747,-8.3404,-8.1754,-8.1051,-7.9992,-7.8587,-7.8336,-7.7945,-7.7223,-7.7879,-7.7879,-7.7223,-7.7076,-7.6284,-7.4902,-7.4072,-7.3285,-7.2508,-7.2508,-7.2508,-7.2508,-7.2508,-7.1766,-7.0473,-6.9809,-6.8451,-6.6673,-6.5996,-6.538,-6.4888,0.0,0.0,0.0,0.0,0.0,0.0,0.0,0.0,0.0,0.0,0.0,0.0,0.0,0.0,0.0,0.0,0.0,0.0,0.0,0.0,0.0,-1.7479,-1.7479,-1.7479,-1.7479,-1.7696,-1.795,-1.8227,-1.8275,-1.8641,-1.9193,-2.1202,-2.3873,-2.7199,-2.8437,-2.8975,-2.8975,-2.8975,-2.945,-3.0274,-3.1189,0.0,0.0,0.0,0.0,0.0,0.0,0.0,0.0,-4.0952,-4.2603,-4.4075,-4.7471,0.0,0.0,0.0,0.0,0.0,-5.9133,-6.1891,-6.3502,-6.0949,-6.1076,-6.1989,-6.2572,0.0,0.0,0.0,0.0,0.0,0.0,0.0,0.0,0.0,0.0,0.0,0.0,0.0,-9.2752,-9.1782,0.0,-9.4682,-8.9528,-9.0135,-8.954,-8.6361,-8.4275,-8.2584,-8.1157,-8.0292,-7.9487,-7.8504,-7.7772,-7.7313,-7.7223,-7.7327,-7.7327,-7.7223,-7.6529,-7.5743,-7.4902,-7.4072,-7.3285,-7.2508,-7.2508,-7.2508,-7.2508,-7.2508,-7.1477,-6.9778,-6.9082,-6.7731,-6.5965,-6.5288,-6.498,-6.4888,0.0,0.0,0.0,0.0,0.0,0.0,0.0,0.0,0.0,0.0,0.0,0.0,0.0,0.0,0.0,0.0,0.0,0.0,0.0,0.0,-1.7418,-1.7274,-1.7873,-1.8064,-1.7479,-1.7744,-1.801,-1.83,-1.8577,-1.8915,-1.9407,-2.2131,-2.4939,-2.7754,-2.8664,-2.8975,-2.8975,-2.8975,-2.9568,-3.0509,0.0,0.0,0.0,0.0,0.0,0.0,0.0,0.0,0.0,0.0,-4.5196,-4.7189,-4.9769,0.0,0.0,0.0,0.0,0.0,-5.9087,-6.1226,-6.3111,-6.3873,-6.5726,-6.7494,-6.8105,0.0,0.0,0.0,0.0,0.0,0.0,0.0,0.0,0.0,0.0,-8.2903,-8.8433,-8.933,-9.005,0.0,0.0,-9.2833,-9.0598,-9.0016,-8.8538,-8.5523,-8.3487,-8.1762,-8.0292,-7.9487,-7.8635,-7.7858,-7.7367,-7.7223,-7.7223,-7.7223,-7.7223,-7.7223,-7.596,-7.5258,-7.4902,-7.3595,-7.29,-7.2508,-7.2508,-7.2508,-7.2476,-7.1735,-7.0735,-6.9556,-6.8155,-6.6931,-6.5842,-6.5165,-6.4888,-6.4888,0.0,0.0,0.0,0.0,0.0,0.0,0.0,0.0,0.0,0.0,0.0,0.0,0.0,0.0,0.0,0.0,0.0,0.0,0.0,-1.7479,-1.7394,-1.7189,-1.83,-1.8377,-1.7394,-1.8007,-1.8349,-1.8384,-1.8915,-1.9641,-2.0734,-2.3333,-2.5934,-2.86,-2.9094,-2.9331,-2.9331,-2.9568,-3.002,-3.084,0.0,0.0,0.0,0.0,0.0,0.0,0.0,0.0,0.0,0.0,0.0,0.0,0.0,0.0,0.0,-5.5369,-5.6152,-5.6999,-5.8718,-6.0392,-6.2376,-6.5833,-6.8316,-7.0453,-7.2248,-7.1881,0.0,0.0,0.0,0.0,0.0,0.0,0.0,0.0,-8.5515,-8.5712,-9.0695,-8.9233,-8.896,-9.2514,-9.2029,-9.1476,-9.1665,-8.9734,-8.7323,-8.4553,-8.2781,-8.116,-7.9487,-7.9152,-7.8466,-7.7223,-7.7396,-7.7396,-7.7223,-7.7223,-7.7223,-7.7223,-7.5676,-7.4902,-7.4803,-7.3181,-7.2508,-7.2476,-7.2314,-7.2249,-7.2184,-7.091,-6.988,-6.9082,-6.7465,-6.6337,-6.5596,-6.5103,-6.4888,-6.4888,0.0,0.0,0.0,0.0,0.0,0.0,0.0,0.0,0.0,0.0,0.0,0.0,0.0,0.0,0.0,0.0,0.0,0.0,0.0,-1.7479,-1.7479,-1.7455,-1.8402,-1.8288,-1.7129,-1.8677,-1.9233,-1.865,-1.9181,-2.1096,-2.4022,-2.4592,-2.6661,-3.0274,-3.0274,-3.0274,-3.0392,-3.1169,-3.1632,-3.1862,-3.3845,0.0,0.0,0.0,0.0,0.0,0.0,0.0,0.0,0.0,0.0,0.0,0.0,0.0,-5.471,-5.5364,-5.6009,-5.6858,-5.8034,-6.119,-6.4546,-6.6194,-6.5878,0.0,-7.1929,-7.0961,0.0,-7.208,0.0,0.0,0.0,0.0,0.0,0.0,-8.5564,-9.0457,-9.4963,0.0,-9.6359,-9.546,-9.4739,-9.2968,-8.9569,-8.7957,-8.5662,-8.2287,-8.2057,-8.1044,-7.8705,-7.9838,-7.9548,-7.7258,-7.7948,-7.7982,-7.7223,-7.7223,-7.7223,-7.7223,-7.5676,-7.4902,-7.4803,-7.3181,-7.2508,-7.2476,-7.1796,-7.1504,-7.1334,-7.0064,-6.8861,-6.7723,-6.7089,-6.6027,-6.498,-6.4918,-6.4888,-6.4888,0.0,0.0,0.0,0.0,0.0,0.0,0.0,0.0,0.0,0.0,0.0,0.0,0.0,0.0,0.0,0.0,0.0,0.0,0.0,-1.7479,-1.764,-1.8045,-1.9137,-1.9639,-1.9172,-1.9679,-1.9649,-1.8927,-2.0273,-2.2096,-2.4094,-2.5603,-2.7554,-2.9766,-3.0524,-3.0976,-3.1285,-3.1632,-3.2509,-3.3733,-3.4493,-3.6202,0.0,0.0,0.0,0.0,0.0,0.0,0.0,0.0,-5.2657,-5.4459,-5.5053,-5.5539,-5.5889,-5.5985,-5.5976,-5.6188,-5.7241,-6.0741,-6.4316,-6.5271,-6.6473,0.0,0.0,-7.4866,-7.3756,-7.4364,-7.5179,0.0,0.0,0.0,0.0,0.0,-9.0111,-9.4692,-9.7409,-9.7223,-9.6512,-9.5824,-9.3644,-9.1124,-8.846,-8.6436,-8.429,-8.1957,-8.1092,-7.9964,-7.8587,-7.8467,-7.8133,-7.7258,-7.7534,-7.7534,-7.7223,-7.7223,-7.6918,-7.6427,-7.5388,-7.4605,-7.4072,-7.2515,-7.1828,-7.1796,-7.1083,-7.0792,-7.0623,-6.901,-6.8033,-6.7458,-6.6184,-6.5324,-6.4888,-6.4888,-6.4888,-6.4888,0.0,0.0,0.0,0.0,0.0,0.0,0.0,0.0,0.0,0.0,0.0,0.0,0.0,0.0,0.0,0.0,0.0,0.0,-1.7824,-1.7737,-1.788,-1.8464,-1.9549,-2.02,-2.0512,-2.0483,-2.0229,-1.9708,-2.1194,-2.2739,-2.4272,-2.6068,-2.8071,-3.0217,-3.0779,-3.1562,-3.2207,-3.2871,-3.3935,-3.5395,-3.6395,-3.8442,0.0,0.0,0.0,0.0,0.0,0.0,0.0,0.0,-5.3854,-5.5521,-5.5402,-5.5777,-5.6223,-5.5984,-5.639,-5.7114,-5.8031,-6.087,-6.3938,0.0,0.0,0.0,-7.5775,-7.6764,-7.6514,-7.7968,-7.8698,-7.8807,-7.7901,0.0,0.0,0.0,-9.1838,-9.5973,-9.746,-9.6348,-9.5124,-9.4496,-9.167,-8.9025,-8.7052,-8.5086,-8.3251,-8.1629,-8.0584,-7.9578,-7.8587,-7.8171,-7.7706,-7.7258,-7.7465,-7.7465,-7.7223,-7.6918,-7.6427,-7.5642,-7.4868,-7.4073,-7.3302,-7.202,-7.131,-7.1051,-7.0338,-7.0047,-6.9879,-6.7991,-6.7067,-6.6573,-6.5156,-6.4549,-6.4549,-6.4549,-6.4549,-6.458,0.0,0.0,0.0,0.0,0.0,0.0,0.0,0.0,0.0,0.0,0.0,0.0,0.0,0.0,0.0,0.0,0.0,0.0,-1.8564,-1.8177,-1.8138,-1.8551,-1.9456,-2.0188,-2.0586,-2.1199,-2.1311,-2.1032,-2.1893,-2.3199,-2.4774,-2.5945,-2.843,-3.1747,-3.1516,-3.1977,-3.3233,-3.509,-3.6071,-3.6637,-3.9804,-4.2258,-4.4196,0.0,0.0,0.0,0.0,0.0,0.0,0.0,-5.4235,-5.4757,-5.5036,-5.5299,-5.5484,-5.5202,-5.7438,-6.0095,-6.0612,-6.1806,0.0,0.0,0.0,0.0,-7.3649,-7.5447,-7.6759,-8.2941,-8.2287,-8.0452,-7.986,-8.1648,0.0,-8.4643,-8.9638,-9.3783,-9.4835,-9.3983,-9.2844,-9.1622,-8.9228,-8.7014,-8.5282,-8.3788,-8.2412,-8.0946,-8.0861,-8.0146,-7.8539,-7.9178,-7.881,-7.7258,-7.7982,-7.8017,-7.7223,-7.6392,-7.5642,-7.4902,-7.4072,-7.3269,-7.2578,-7.1792,-7.1051,-7.0338,-6.9594,-6.927,-6.9103,-6.7292,-6.5947,-6.4826,-6.4118,-6.3841,-6.381,-6.3841,-6.3841,-6.3933,0.0,0.0,0.0,0.0,0.0,0.0,0.0,0.0,0.0,0.0,0.0,0.0,0.0,0.0,0.0,0.0,0.0,0.0,-1.9343,-1.9056,-1.9251,-2.0243,-2.0594,-2.1442,-2.3043,-2.2472,-2.1842,-2.1332,-2.2965,-2.4451,-2.5597,-2.8105,-3.0158,-3.1883,-3.2418,-3.3642,-3.5333,-3.6418,-3.7944,-3.988,-4.2178,-4.428,-4.6343,0.0,0.0,0.0,0.0,0.0,0.0,0.0,0.0,0.0,-5.6544,-5.6973,-5.7388,-5.7157,-5.7492,-5.8063,-5.8616,0.0,0.0,0.0,0.0,0.0,0.0,-7.3044,0.0,0.0,-8.3867,-8.1929,-8.2289,-8.4909,0.0,-8.5778,-9.0139,-9.3661,-9.3805,-9.2955,-9.1455,-8.9123,-8.7269,-8.5338,-8.2986,-8.2547,-8.1556,-7.9353,-7.9768,-7.9337,-7.7632,-7.7817,-7.7706,-7.7223,-7.7465,-7.7159,-7.6392,-7.6114,-7.5321,-7.4072,-7.3239,-7.2503,-7.1721,-7.1512,-7.0759,-6.9594,-6.9367,-6.8978,-6.8392,-6.7101,-6.5665,-6.418,-6.4457,-6.3995,-6.3225,-6.421,-6.4272,-6.3933,0.0,0.0,0.0,0.0,0.0,0.0,0.0,0.0,0.0,0.0,-1.7479,-1.7948,0.0,0.0,0.0,0.0,0.0,0.0,0.0,-2.0491,-2.0461,-2.0943,-2.1212,-2.2154,-2.3634,-2.3142,-2.2723,-2.2263,-2.3332,-2.469,-2.6546,-2.9066,-3.0997,-3.2744,-3.3854,-3.5351,-3.72,-3.8388,-4.0438,-4.2998,-4.4556,-4.6575,-4.8829,0.0,0.0,0.0,0.0,0.0,0.0,0.0,0.0,0.0,-5.6949,-5.7338,-5.7978,-5.8699,-5.871,-5.9077,-6.1403,0.0,0.0,0.0,0.0,0.0,0.0,0.0,0.0,0.0,-8.61,-8.4642,-8.4565,-8.6211,0.0,-8.6615,-8.9311,-9.1548,-9.1731,-9.0785,-8.9359,-8.7389,-8.5842,-8.4242,-8.2442,-8.2202,-8.1428,-7.9609,-7.9589,-7.9089,-7.7772,-7.7367,-7.7223,-7.7223,-7.7223,-7.6828,-7.602,-7.5737,-7.4966,-7.3665,-7.293,-7.2026,-7.0986,-7.0695,-6.995,-6.8849,-6.8646,-6.8022,-6.7042,-6.6143,-6.4889,-6.3441,-6.3595,-6.3164,-6.2548,-6.3656,-6.3779,-6.3456,0.0,0.0,0.0,0.0,0.0,0.0,0.0,0.0,0.0,0.0,-1.7479,-1.8181,0.0,0.0,0.0,0.0,0.0,0.0,0.0,-2.2241,-2.1682,-2.1093,-2.1811,-2.2518,-2.3202,-2.3424,-2.3604,-2.3728,-2.3449,-2.469,-2.7432,-2.9118,-3.1455,-3.4086,-3.5468,-3.704,-3.8825,-4.0875,-4.3148,-4.5668,-4.6837,-4.8829,-5.1252,-5.1816,0.0,0.0,0.0,0.0,0.0,0.0,0.0,0.0,-5.6718,-5.7021,-5.7655,-5.9674,-6.0572,-6.1923,0.0,0.0,0.0,0.0,0.0,0.0,0.0,0.0,0.0,0.0,0.0,-8.7915,-8.6559,-8.6276,-8.6503,-8.7269,-8.7858,-8.8458,-8.9119,-8.813,-8.7033,-8.6235,-8.4826,-8.3634,-8.292,-8.2397,-8.1678,-8.0731,-8.0032,-7.9249,-7.842,-7.7632,-7.7223,-7.7223,-7.7065,-7.6668,-7.5926,-7.5026,-7.4273,-7.3595,-7.2704,-7.1569,-7.0371,-6.9756,-6.9043,-6.8298,-6.7625,-6.6727,-6.5606,-6.4977,-6.4009,-6.2764,-6.221,-6.1871,-6.1809,-6.2548,-6.2764,-6.2779,0.0,0.0,0.0,0.0,0.0,0.0,0.0,0.0,0.0,0.0,0.0,0.0,0.0,0.0,0.0,0.0,0.0,0.0,0.0,-2.3487,-2.3347,-2.3395,-2.4411,-2.4844,-2.4619,-2.3917,-2.4085,-2.504,-2.5702,-2.671,-2.797,-3.0773,-3.3059,-3.469,-3.6364,-3.8515,-4.0952,-4.2484,-4.4578,-4.6837,-4.8502,-5.0211,-5.1816,-5.2561,-5.3482,0.0,0.0,0.0,0.0,0.0,0.0,0.0,-5.7517,-5.7958,-5.8437,-5.8937,-6.0506,-6.2301,0.0,0.0,0.0,0.0,0.0,0.0,0.0,0.0,0.0,0.0,-8.8032,-8.8434,-8.8108,-8.8045,-8.8041,-8.8091,-8.8684,-8.8826,-8.7947,-8.7526,-8.6585,-8.4703,-8.4116,-8.3284,-8.1586,-8.1313,-8.0586,-7.9132,-7.8815,-7.842,-7.7544,-7.7313,-7.7223,-7.7223,-7.6063,-7.5349,-7.5161,-7.3275,-7.2477,-7.2794,-7.0896,-7.0112,-7.0403,-7.0792,-7.0274,-6.9011,-6.785,-6.7014,-6.6365,-6.5696,-6.4443,-6.2856,-6.3256,-6.2425,-6.1163,-6.2364,-6.2487,-6.2148,0.0,0.0,0.0,0.0,0.0,0.0,0.0,0.0,0.0,0.0,0.0,0.0,0.0,0.0,0.0,0.0,0.0,0.0,0.0,0.0,-2.5611,-2.5856,-2.6654,-2.7023,-2.6917,-2.6953,-2.7262,-2.7979,-2.9686,-3.0195,-2.9648,-3.215,-3.4001,-3.5508,-3.8861,-4.1018,-4.2303,-4.4769,-4.6696,-4.8232,-4.9899,-5.1229,-5.2316,-5.3415,-5.4235,-5.471,-5.4992,0.0,0.0,0.0,0.0,0.0,0.0,0.0,-5.8958,-6.011,-6.0646,-6.1558,0.0,0.0,0.0,0.0,0.0,0.0,0.0,0.0,0.0,0.0,-8.7926,-8.8459,-8.8039,-8.7906,-8.778,-8.7682,-8.7797,-8.7578,-8.655,-8.6237,-8.5295,-8.3147,-8.3246,-8.2814,-8.1112,-8.0932,-8.0369,-7.9191,-7.8716,-7.8116,-7.7223,-7.7223,-7.7051,-7.6706,-7.5629,-7.4687,-7.383,-7.2316,-7.1549,-7.1472,-7.0371,-6.982,-6.9853,-6.9885,-6.9464,-6.8752,-6.758,-6.671,-6.5944,-6.4751,-6.3578,-6.2333,-6.2364,-6.1717,-6.0917,-6.1963,-6.2117,-6.1796,0.0,0.0,0.0,0.0,0.0,0.0,0.0,0.0,0.0,0.0,0.0,0.0,0.0,0.0,0.0,0.0,0.0,0.0,0.0,0.0,0.0,-2.7995,-2.8651,-2.9179,-2.9474,-3.0644,-3.1411,-3.1526,-3.3763,-3.4029,-3.2374,-3.3726,-3.5216,-3.6989,-4.1354,-4.3306,-4.3623,-4.7037,-4.8799,-4.9465,-5.0993,-5.2112,-5.297,-5.4514,-5.5015,-5.493,-5.5609,-5.6091,-5.6366,-5.7057,0.0,0.0,0.0,0.0,-5.9107,-6.115,-6.0849,-6.1054,0.0,0.0,0.0,0.0,0.0,0.0,0.0,0.0,0.0,0.0,-8.7555,-8.7932,-8.7143,-8.6754,-8.6561,-8.6466,-8.6088,-8.5522,-8.4897,-8.4618,-8.3737,-8.1829,-8.2288,-8.2214,-8.0699,-8.043,-8.0043,-7.9352,-7.8506,-7.7736,-7.7016,-7.7016,-7.6671,-7.5947,-7.4901,-7.3857,-7.2725,-7.1589,-7.0826,-7.0403,-7.0274,-6.982,-6.9076,-6.846,-6.8101,-6.8,-6.7005,-6.6133,-6.5429,-6.3685,-6.2579,-6.1902,-6.1225,-6.0886,-6.0855,-6.144,-6.1625,-6.1475,0.0,0.0,0.0,0.0,0.0,0.0,0.0,0.0,0.0,0.0,-1.7948,-1.8181,0.0,0.0,0.0,0.0,0.0,0.0,0.0,0.0,0.0,-2.9269,-3.067,-3.1636,-3.2105,-3.2987,-3.3988,-3.5061,-3.639,-3.6991,-3.6885,-3.6645,-3.7645,-3.9798,-4.2009,-4.3822,-4.5335,-4.8172,-4.957,-4.9968,-5.228,-5.3592,-5.4363,-5.605,-5.614,-5.5564,-5.7017,-5.7011,-5.6473,-5.7706,-5.8045,0.0,0.0,0.0,-5.8772,-5.9107,-6.0699,-6.2593,0.0,0.0,0.0,0.0,0.0,0.0,0.0,0.0,0.0,0.0,-8.5882,-8.6237,-8.5974,-8.5322,-8.4738,-8.4382,-8.3876,-8.3355,-8.2909,-8.3036,-8.2547,-8.0953,-8.1434,-8.1205,-7.9085,-7.8315,-7.782,-7.7626,-7.6884,-7.6346,-7.6258,-7.6258,-7.5913,-7.5119,-7.3118,-7.2217,-7.2692,-6.9977,-6.9242,-7.0403,-6.9756,-6.9043,-6.8331,-6.8234,-6.7899,-6.7491,-6.6901,-6.6205,-6.562,-6.4182,-6.3287,-6.261,-6.1933,-6.1317,-6.0824,-6.0886,-6.0948,-6.0844,0.0,0.0,0.0,0.0,0.0,0.0,0.0,0.0,0.0,0.0,0.0,-1.8765,0.0,0.0,0.0,0.0,0.0,0.0,0.0,0.0,0.0,-3.1475,-3.392,-3.5256,-3.5459,-3.7469,-3.8764,-3.9348,-4.0478,-4.1209,0.0,-4.0408,-3.9635,-3.9635,-4.2732,-4.4511,-4.5302,-4.8178,-4.9652,-5.0314,-5.2637,-5.421,-5.5295,-5.667,-5.7115,-5.7164,-5.7409,-5.748,-5.7504,-5.7944,-5.831,-5.8557,-5.8597,0.0,0.0,0.0,-6.011,0.0,0.0,0.0,0.0,0.0,0.0,0.0,0.0,0.0,0.0,0.0,-8.4165,-8.4009,-8.469,-8.425,-8.3837,-8.4146,-8.3211,-8.2433,-8.233,-8.197,-8.1194,-7.9653,-8.0161,-7.9937,-7.8114,-7.7954,-7.7844,-7.7357,-7.6955,-7.6568,-7.612,-7.612,-7.5568,-7.4326,-7.2553,-7.152,-7.1453,-6.9288,-6.8525,-6.9173,-6.8849,-6.8298,-6.7618,-6.7318,-6.7015,-6.6812,-6.6194,-6.567,-6.5045,-6.3348,-6.2733,-6.2702,-6.1656,-6.1071,-6.0794,-6.0794,-6.0794,-6.0586,0.0,0.0,0.0,0.0,0.0,0.0,0.0,0.0,0.0,0.0,0.0,0.0,0.0,0.0,0.0,0.0,0.0,0.0,0.0,0.0,0.0,-3.381,-3.6578,-3.8338,-3.8807,-4.1497,-4.2971,-4.3227,-4.4273,0.0,-4.5477,-4.4065,-4.2393,0.0,-4.3793,-4.5238,-4.5665,-4.8477,-5.0125,-5.0971,-5.3455,-5.5102,-5.627,-5.7874,-5.8577,-5.8611,-5.8089,-5.807,-5.8223,-5.7999,-5.8282,-5.8684,-5.8504,-5.8486,0.0,0.0,0.0,0.0,0.0,0.0,0.0,0.0,0.0,0.0,0.0,0.0,0.0,0.0,-8.2714,-8.213,-8.2757,-8.2624,-8.2553,-8.3131,-8.2095,-8.1167,-8.1281,-8.0693,-7.9813,-7.8431,-7.8993,-7.8857,-7.7192,-7.7414,-7.7405,-7.7027,-7.6972,-7.6712,-7.6158,-7.6123,-7.5396,-7.3837,-7.2169,-7.1017,-7.0482,-6.8961,-6.8104,-6.7942,-6.7942,-6.7486,-6.6708,-6.6277,-6.5879,-6.5415,-6.5164,-6.4831,-6.4364,-6.2576,-6.221,-6.2671,-6.1317,-6.0794,-6.0794,-6.0794,-6.069,-6.0241,0.0,0.0,0.0,0.0,0.0,0.0,0.0,0.0,0.0,0.0,0.0,0.0,-2.1948,-2.3237,-2.4383,-2.5179,-2.6417,-2.7891,-2.9682,-3.0784,-3.2746,-3.5866,-3.8181,0.0,-4.1887,-4.3995,-4.5454,-4.6197,0.0,0.0,-4.7227,-4.6951,-4.6571,-4.6217,-4.5751,-4.6051,-4.7261,0.0,0.0,-5.2299,-5.5446,-5.6734,-5.7185,-6.0393,-6.0769,-5.9482,-5.9482,-5.8857,-5.8084,-5.7889,-5.7717,-5.7679,-5.8223,-5.8393,-5.848,0.0,0.0,0.0,0.0,0.0,0.0,0.0,0.0,0.0,0.0,0.0,0.0,0.0,-8.153,-8.1155,-7.9778,-7.9888,-8.0087,-7.995,-7.9331,-7.884,-7.8723,-7.8812,-7.8541,-7.7488,-7.8148,-7.8041,-7.63,-7.5581,-7.5437,-7.6088,-7.6252,-7.6176,-7.614,-7.614,-7.5439,-7.3826,-7.1708,-7.0515,-7.0482,-6.8961,-6.7877,-6.723,-6.723,-6.6544,-6.544,-6.534,-6.4488,-6.2973,-6.3527,-6.3867,-6.3718,-6.2364,-6.221,-6.2671,-6.1317,-6.0794,-6.0794,-6.0794,-6.0241,-5.9469,0.0,0.0,0.0,0.0,0.0,0.0,0.0,0.0,0.0,0.0,0.0,0.0,0.0,-2.4746,-2.5766,-2.6924,-2.8776,-3.0452,-3.1848,-3.3899,-3.5921,-3.774,-4.0301,-4.2366,-4.4088,-4.602,-4.7302,-4.7981,-4.8377,-4.8714,-4.9017,-4.7762,-4.7585,-4.8163,-4.6588,-4.663,-4.7808,-4.8596,0.0,-5.2363,-5.5534,-5.7364,-5.8298,-5.9563,-6.0636,0.0,0.0,0.0,0.0,0.0,-5.8267,-5.7963,-5.8323,-5.8092,-5.7886,-5.8951,-5.9845,0.0,0.0,0.0,0.0,0.0,0.0,0.0,0.0,0.0,0.0,0.0,-7.9431,-7.9214,-7.816,-7.8604,-7.9349,-7.9934,-7.9396,-7.9074,-7.9537,-7.9533,-7.9092,-7.8222,-7.7952,-7.7181,-7.5548,-7.5205,-7.5081,-7.5393,-7.5884,-7.6146,-7.6086,-7.5204,-7.4185,-7.3132,-7.0481,-6.8619,-6.768,-6.7135,-6.6744,-6.6485,-6.6485,-6.5803,-6.4604,-6.4307,-6.3325,-6.1988,-6.1929,-6.2112,-6.2487,-6.2025,-6.1963,-6.2086,-6.1163,-6.0794,-6.069,-6.0136,-5.9819,-5.9315,0.0,0.0,0.0,0.0,0.0,0.0,0.0,0.0,0.0,-2.2406,0.0,0.0,0.0,0.0,-2.7918,-2.9473,-3.1412,-3.2918,-3.417,-3.6143,-3.8058,-3.9788,-4.1763,-4.3882,-4.6138,-4.7121,-4.8079,-4.9228,-4.901,-4.9384,-5.0206,-4.9042,-4.9038,-5.0064,-4.8445,-4.8257,-4.9178,0.0,0.0,-5.3116,-5.6004,-5.756,-5.8348,0.0,0.0,0.0,0.0,0.0,0.0,0.0,-5.9452,-5.9087,-5.8897,-5.8409,-5.8134,-5.9174,-6.0035,0.0,-6.3971,0.0,0.0,0.0,0.0,0.0,0.0,0.0,0.0,0.0,-7.7409,-7.7287,-7.6653,-7.7059,-7.7752,-7.8516,-7.8574,-7.8688,-7.9264,-7.9606,-7.9507,-7.8699,-7.7903,-7.6869,-7.5512,-7.49,-7.4817,-7.5344,-7.5829,-7.627,-7.6481,-7.5032,-7.3308,-7.1261,-6.9354,-6.7546,-6.6096,-6.6096,-6.5869,-6.5416,-6.5643,-6.4835,-6.3224,-6.3182,-6.2424,-6.1308,-6.1247,-6.1379,-6.1779,-6.1563,-6.1594,-6.1748,-6.0726,-6.0346,-6.0241,-5.9392,-5.8822,-5.8445,0.0,0.0,0.0,0.0,0.0,0.0,0.0,0.0,-2.3022,-2.3038,0.0,0.0,0.0,0.0,0.0,-3.2942,-3.4193,-3.5338,-3.6386,-3.7019,-3.8793,-4.1924,-4.2466,-4.4442,-4.7819,-4.7266,-4.7927,-4.9931,-4.9236,-4.9615,-5.0943,-5.0977,-5.1374,-5.2091,-5.1502,-5.134,-5.1585,0.0,-5.3684,-5.4565,0.0,-5.7566,-5.7322,0.0,0.0,0.0,-6.084,-6.0875,0.0,-6.0936,-6.1029,-6.0762,-5.9669,-5.9283,-5.9289,-5.9484,-6.0204,-6.0993,0.0,0.0,0.0,0.0,0.0,0.0,0.0,0.0,0.0,0.0,0.0,-7.5651,-7.5224,-7.512,-7.5192,-7.5404,-7.6646,-7.7595,-7.7595,-7.8894,-7.9507,-7.8736,-7.7837,-7.698,-7.6117,-7.4688,-7.4431,-7.5941,-7.6092,-7.6482,-7.7257,-7.58,-7.2922,-6.8328,-6.8205,-6.7479,-6.6031,-6.6031,-6.5319,-6.3991,-6.4639,-6.3613,-6.1308,-6.2003,-6.1753,-6.0824,-6.1471,-6.1748,-6.1717,-6.1101,-6.1194,-6.1612,-6.0062,-5.9469,-5.9362,-5.8525,-5.764,-5.6708,0.0,0.0,0.0,0.0,0.0,0.0,-2.3006,-2.3022,-2.3521,0.0,0.0,0.0,-2.9179,-3.0928,-3.2425,-3.3965,-3.5125,-3.6307,-3.7388,-3.8521,-4.0108,-4.2452,-4.2711,-4.4442,-4.7819,-4.7722,-4.8389,-4.9931,-4.971,-4.9837,-5.0216,-5.0781,-5.1443,-5.2133,-5.3599,-5.4226,-5.4109,-5.2499,0.0,-5.4621,-5.8681,-5.9886,0.0,0.0,0.0,0.0,0.0,-6.1668,-6.108,0.0,-5.9768,-5.715,-5.7142,-5.83,-5.951,-5.885,-5.9078,-5.967,-6.0186,0.0,0.0,0.0,0.0,0.0,0.0,0.0,0.0,0.0,0.0,-7.4838,-7.3645,-7.384,-7.3998,-7.3517,-7.5818,-7.7809,-7.8364,-7.9194,-7.9449,-7.8717,-7.7341,-7.6012,-7.454,-7.3577,-7.3647,-7.517,-7.5291,-7.5693,-7.6461,-7.3503,-7.0211,-6.6819,-6.6135,-6.5443,-6.4606,-6.4056,-6.357,-6.3182,-6.2485,-6.163,-6.0581,-6.0415,-6.0297,-6.0086,-6.027,-6.064,-6.1101,-6.1409,-6.1033,-6.0062,-5.9667,-5.9147,-5.8415,-5.7499,-5.7049,-5.6852,0.0,0.0,0.0,0.0,0.0,0.0,-2.3228,-2.3683,-2.4431,0.0,0.0,0.0,-3.1062,-3.2747,-3.406,-3.4845,-3.6179,-3.7394,-3.8607,-3.975,-4.1045,-4.2695,-4.3504,-4.5149,-4.7819,-4.7882,-4.8542,-4.9931,-4.9647,-4.9772,-5.0448,-5.1252,-5.1966,-5.2693,-5.4326,-5.5466,-5.6143,0.0,0.0,0.0,-5.9564,0.0,0.0,-6.3427,-6.4393,0.0,0.0,0.0,-6.265,-6.334,-6.0836,-5.7417,-5.8174,-5.8823,-5.9251,-5.9206,-5.9491,-5.9911,-6.0214,-5.9982,-5.9919,0.0,0.0,0.0,-6.3688,-6.616,-6.8201,0.0,-7.1187,-7.2834,-7.1917,-7.2136,-7.2313,-7.2202,-7.4077,-7.6098,-7.7522,-7.8567,-7.8963,-7.8195,-7.6981,-7.5543,-7.3983,-7.3392,-7.3817,-7.5401,-7.5801,-7.5798,-7.5325,-7.2272,-6.9138,-6.6215,-6.5359,-6.4669,-6.4024,-6.3279,-6.2728,-6.2437,-6.1556,-6.0612,-5.9854,-5.969,-5.9477,-5.9378,-5.9655,-6.0024,-6.0455,-6.0958,-6.0532,-5.9469,-5.8714,-5.8055,-5.7557,-5.691,-5.665,-5.6705,0.0,0.0,0.0,0.0,0.0,0.0,-2.394,-2.4939,-2.5856,0.0,-2.8859,-3.1017,-3.2076,-3.3785,-3.5133,-3.5482,-3.6897,-3.8267,-3.9594,-4.0642,-4.1716,-4.2792,-4.4414,-4.6138,-4.7904,-4.7989,-4.8636,-4.9979,-4.9455,-4.9841,-5.1252,-5.1993,-5.27,-5.3449,-5.4205,-5.5644,-5.7341,0.0,0.0,-5.7158,-5.9972,-6.0384,0.0,0.0,-6.3669,-6.2427,-6.5152,-6.5333,-6.441,-6.483,-6.2821,-6.0254,-6.0912,-6.0231,-5.9244,-6.005,-6.0572,-6.0898,-6.0663,-6.0307,-6.0056,-6.0551,-5.9591,0.0,-6.3259,-6.3984,-6.4734,-6.7622,-6.9102,-6.9793,-6.9758,-6.9876,-7.0153,-7.0742,-7.1711,-7.3287,-7.5711,-7.7326,-7.7944,-7.7266,-7.6458,-7.5344,-7.3782,-7.3721,-7.447,-7.5974,-7.6695,-7.6187,-7.3976,-7.161,-6.9056,-6.6215,-6.5359,-6.4669,-6.4024,-6.3182,-6.2437,-6.1789,-6.1078,-6.0198,-5.9065,-5.9218,-5.9073,-5.8701,-5.9378,-5.9747,-5.9788,-6.0167,-5.9855,-5.9147,-5.7586,-5.6823,-5.6766,-5.6435,-5.6423,-5.6388,0.0,0.0,0.0,0.0,0.0,0.0,0.0,-2.7241,-2.7955,-2.9298,-3.1416,-3.2868,-3.312,-3.3497,-3.4382,-3.5985,-3.6356,-3.7394,-3.9594,-4.0642,-4.1716,-4.2792,-4.4414,-4.6138,-4.7904,-4.845,-4.9393,-5.0908,-5.0747,-5.109,-5.1993,-5.2803,-5.3247,-5.3449,-5.4641,-5.5764,-5.6705,0.0,0.0,-5.9341,-6.0569,0.0,-6.122,-6.4427,-6.6117,-6.6842,-6.7428,-6.6385,-6.4305,-6.2037,-6.2158,-6.2848,-6.0485,-6.0914,-6.1842,-5.9972,-5.9894,-6.0288,-5.9702,-5.8901,-5.8424,-5.914,-5.8781,0.0,-5.9181,-6.0762,-6.2105,0.0,0.0,0.0,-6.553,-6.6456,-6.7163,-6.6564,-6.8859,-7.1759,-7.4886,-7.5513,-7.5662,-7.5613,-7.4808,-7.3947,-7.297,-7.3437,-7.4181,-7.5151,-7.537,-7.4762,-7.3011,-7.0853,-6.8524,-6.6129,-6.5359,-6.4669,-6.4024,-6.2696,-6.1951,-6.1789,-5.9717,-5.8651,-5.8401,-5.7648,-5.7536,-5.7993,-5.867,-5.9154,-5.9455,-5.9339,-5.8977,-5.8364,-5.7884,-5.7165,-5.6463,-5.6367,-5.6423,-5.6626,0.0,0.0,0.0,0.0,0.0,0.0,0.0,-2.884,-2.9565,-3.1016,-3.291,-3.3886,-3.343,-3.3575,-3.4453,-3.6036,-3.5663,-3.6642,-3.9465,-4.0591,-4.1709,-4.319,-4.5393,-4.713,-4.8407,-4.9439,-5.0306,-5.1102,-5.1443,-5.1993,-5.2803,-5.3247,-5.399,-5.5106,-5.4994,-5.6187,0.0,0.0,-5.8245,-5.9517,-6.1445,0.0,-6.3255,-6.5566,-6.6911,-6.7497,-6.7118,-6.5989,-6.4298,-6.2758,-6.2196,-6.2273,-6.2082,-6.2287,-6.2452,-6.1651,-6.1534,-6.1327,-5.9973,-5.9039,-5.8501,-5.8676,-5.8238,0.0,0.0,-5.9294,-6.0331,-6.0713,-6.2399,0.0,0.0,0.0,-6.4941,-6.5297,-6.739,-6.9562,-7.1228,-7.3146,-7.4589,-7.5053,-7.4352,-7.3647,-7.3264,-7.3991,-7.508,-7.6678,-7.5657,-7.4547,-7.3333,-7.0096,-6.7671,-6.6129,-6.5033,-6.4333,-6.4024,-6.2534,-6.1821,-6.1789,-5.9338,-5.8211,-5.8211,-5.7211,-5.6946,-5.7315,-5.8331,-5.8624,-5.849,-5.891,-5.8737,-5.7968,-5.7711,-5.7259,-5.6929,-5.7238,-5.7394,-5.7672,0.0,0.0,0.0,0.0,0.0,0.0,0.0,-3.0451,-3.1206,-3.2415,-3.3923,-3.4631,-3.3969,-3.4403,-3.5359,-3.6725,-3.5912,-3.6543,-3.9668,-4.085,-4.2179,-4.3875,-4.655,-4.8332,-4.9244,-5.0434,-5.1252,-5.1549,-5.2137,-5.2872,-5.3583,-5.3583,-5.4595,-5.6322,-5.5357,-5.6611,0.0,0.0,0.0,-5.9809,0.0,-6.334,-6.3807,-6.5497,-6.629,-6.6497,-6.6339,-6.568,-6.48,-6.43,-6.2982,-6.1852,-6.3418,-6.3451,-6.3067,-6.3359,-6.3425,-6.2888,-6.0797,-5.9866,-5.9358,-5.8777,-5.817,-5.7824,0.0,0.0,0.0,-6.0167,0.0,0.0,0.0,0.0,0.0,0.0,0.0,0.0,0.0,-7.0133,0.0,-7.3475,-7.3677,-7.3669,-7.3393,-7.4041,-7.5538,-7.7976,-7.5675,-7.3976,-7.344,-6.9589,-6.7007,-6.6129,-6.4885,-6.4085,-6.4024,-6.2534,-6.1821,-6.1789,-5.9338,-5.8211,-5.8211,-5.7211,-5.6823,-5.7038,-5.8393,-5.8593,-5.7888,-5.9199,-5.924,-5.826,-5.7866,-5.7676,-5.7966,-5.8455,-5.8827,-5.9015,-2.4734,-2.5044,0.0,0.0,-3.0084,-3.0564,-3.256,-3.2683,-3.2765,-3.3809,-3.4696,-3.5459,-3.5769,-3.6577,-3.7548,-3.8777,-3.8385,-3.873,-4.0445,-4.2016,-4.3414,-4.4566,-4.6693,-4.8845,-5.0714,-5.0991,-5.1736,-5.3179,-5.3247,-5.3649,-5.4367,-5.4367,-5.4534,-5.4805,-5.6012,0.0,0.0,0.0,-5.945,0.0,-6.2385,-6.14,0.0,-6.2151,-6.3807,-6.5193,-6.7043,-6.7263,-6.6284,-6.4385,-6.4603,-6.5113,-6.195,-6.3381,-6.5691,-6.3277,-6.3557,-6.4116,-6.1583,-6.0905,-6.0683,-5.936,-5.9011,-5.8841,-5.8452,0.0,-5.7172,-5.7855,0.0,0.0,0.0,0.0,0.0,0.0,0.0,0.0,-6.4542,-6.6156,-6.7617,-6.8524,-7.1678,-7.3252,-7.1837,-7.2422,-7.3861,-7.6216,-7.2936,-7.1156,-7.1761,-6.9392,-6.7438,-6.6129,-6.527,-6.4577,-6.4024,-6.2534,-6.1821,-6.1789,-5.9338,-5.8211,-5.8211,-5.7211,-5.71,-5.7746,-5.907,-5.9395,-5.9044,-6.1194,-6.1288,-6.022,-5.9065,-5.8979,-5.9529,-5.9801,-5.9912,-6.0023,-2.5301,-2.6919,0.0,0.0,-3.1257,-3.2072,-3.3182,-3.3679,-3.3948,-3.4051,-3.4859,-3.55,-3.5687,0.0,0.0,0.0,0.0,-3.7805,0.0,0.0,-4.1764,-4.2224,-4.5321,-4.7825,-4.9543,-5.1005,-5.2279,-5.3382,-5.3815,-5.4239,-5.4494,-5.4834,-5.532,-5.5874,-5.73,0.0,-5.9495,0.0,-6.1414,0.0,0.0,0.0,0.0,-6.3738,-6.4945,-6.4778,-6.5722,-6.5829,-6.5543,-6.5222,-6.4881,-6.4781,-6.5397,-6.5271,-6.488,-6.4764,-6.4232,-6.3225,-6.1171,-6.1595,-6.2034,-5.9741,-5.9812,-5.9853,-5.7418,-5.6581,-5.6349,-5.6422,0.0,0.0,0.0,0.0,0.0,0.0,-6.0933,-6.2475,0.0,0.0,-6.6295,-6.7573,-6.8421,-6.9528,-7.1201,-7.3325,-7.4832,-7.5425,-7.2701,-7.0912,-7.0876,-6.8429,-6.6742,-6.6095,-6.5033,-6.424,-6.4024,-6.2534,-6.1821,-6.1789,-5.9338,-5.8211,-5.8211,-5.7614,-5.75,-5.7839,-5.9193,-5.9575,-5.9379,-6.0276,-6.0529,-6.0239,-5.9905,-6.0291,-6.0998,-6.1174,-6.1075,-6.0843,-2.6111,0.0,0.0,0.0,-3.1823,-3.2423,-3.2924,-3.3679,-3.4176,-3.4072,-3.4859,0.0,-3.6121,-3.6328,0.0,0.0,-3.8681,-3.8611,0.0,0.0,-4.1485,-4.2409,-4.4769,0.0,0.0,-5.1013,-5.2316,-5.3112,-5.4076,-5.4557,-5.4807,-5.5164,-5.5758,-5.6507,0.0,-5.9478,-6.0806,0.0,0.0,-6.2703,-6.4099,-6.3761,-6.2634,-6.5117,-6.5497,-6.4749,-6.5058,-6.5114,-6.5177,-6.5778,-6.5394,-6.5117,-6.7426,-6.6745,-6.5315,-6.6413,-6.5891,-6.4412,-6.2003,-6.2693,-6.331,-6.0002,-5.9822,-5.9779,-5.7083,-5.6407,-5.6277,-5.6277,-5.6998,0.0,0.0,0.0,-5.8226,-5.8851,0.0,-6.075,0.0,-6.1959,0.0,0.0,-6.5238,-6.6413,-7.002,-7.2255,-7.3337,-7.285,-7.1151,-7.0097,-6.9801,-6.7462,-6.6095,-6.6095,-6.4702,-6.4024,-6.4024,-6.2534,-6.173,-6.1607,-5.9246,-5.8119,-5.7965,-5.7642,-5.7685,-5.8116,-5.9285,-5.9723,-5.9771,-6.0274,-6.0475,-6.0476,-6.0916,-6.1609,-6.2162,-6.1983,-6.1665,-6.1407,-2.7804,-2.8804,0.0,0.0,0.0,-3.1008,-3.194,0.0,0.0,0.0,0.0,0.0,0.0,0.0,0.0,0.0,0.0,-4.2753,-4.3098,0.0,-4.3866,-4.6985,-4.5949,-4.7317,0.0,0.0,-5.1572,-5.2324,-5.3813,-5.4772,-5.5402,-5.5402,-5.5437,-5.5578,-5.7763,-5.8885,-5.9151,-6.0625,-6.2992,-6.5662,-6.4926,-6.5938,-6.7532,-6.4772,-6.4117,-6.4893,-6.6274,-6.654,-6.6203,-6.5769,-6.6548,-6.7464,-6.5828,-6.6984,-6.8723,-6.7839,-6.8893,-6.9421,-6.515,-6.4693,-6.4441,-6.0264,-5.8713,-5.8142,-5.8054,-5.7543,-5.7216,-5.7784,-5.8275,-5.8604,-5.8415,-5.8305,-5.8215,-5.8215,-5.886,0.0,0.0,0.0,0.0,-6.0444,-6.2718,-6.5201,-6.7833,-6.7389,-6.6981,-6.7239,-6.709,-6.7302,-6.8112,-6.6882,-6.6095,-6.6095,-6.4702,-6.4024,-6.4024,-6.2534,-6.1515,-6.1145,-5.9154,-5.7933,-5.7495,-5.705,-5.75,-5.8793,-5.9501,-5.9997,-6.0464,-6.2028,-6.2195,-6.1428,-6.2333,-6.2718,-6.2687,-6.2042,-6.166,-6.1416,0.0,0.0,0.0,0.0,0.0,0.0,0.0,-3.225,0.0,0.0,0.0,0.0,0.0,-4.1421,-4.2456,0.0,0.0,-4.3144,-4.2648,-4.2793,0.0,0.0,0.0,-4.6963,0.0,0.0,0.0,-5.222,-5.328,-5.4072,-5.4626,-5.5565,-5.5999,-5.6141,0.0,-6.1152,0.0,0.0,0.0,0.0,0.0,-6.6215,-6.639,-6.5456,-6.5521,-6.6106,-6.6048,-6.6416,-6.71,-6.7856,-6.8018,-6.8072,-6.9071,-6.8397,-6.7394,-6.82,-6.8188,-6.7561,-6.6101,-6.7379,-6.7767,-6.2259,-6.1752,-6.1403,-5.6762,-5.6389,-5.6832,-5.6492,-5.7771,-5.8837,-5.8474,-5.8535,-5.854,-5.8268,-5.8391,-5.8354,0.0,-5.6826,-5.6479,-5.7562,0.0,0.0,-6.4099,-6.5776,-6.671,-6.6274,-6.7095,-6.7613,-6.7405,-6.6946,-6.6564,-6.6095,-6.5619,-6.5189,-6.4704,-6.3246,-6.2317,-6.185,-5.9376,-5.7933,-5.7495,-5.7514,-5.7931,-5.8824,-5.9501,-6.034,-6.1325,-6.1458,-6.14,-6.1308,-6.0283,-6.0348,-6.1065,-6.1921,-6.2166,-6.1643,-2.7176,0.0,0.0,0.0,0.0,0.0,0.0,0.0,0.0,0.0,-3.786,0.0,-4.2414,0.0,-4.3842,0.0,-4.4927,-4.4236,-4.2679,-4.3828,0.0,-4.3471,-4.5933,0.0,0.0,0.0,0.0,0.0,0.0,-5.4117,-5.4938,-5.609,-5.6599,-5.6707,0.0,-6.1909,-6.3741,0.0,-6.8606,0.0,0.0,-6.7374,-6.671,-6.6673,-6.618,-6.564,-6.6074,-6.679,-6.7778,-6.9206,-6.9413,-6.9322,-7.1065,-7.0039,-6.8369,-6.9306,-6.9007,-6.822,-6.7393,-6.8678,-6.9046,-6.4053,-6.3654,-6.3022,-5.75,-5.7383,-5.8282,-5.7678,-5.8673,-5.9883,-6.0907,-5.9938,-5.9048,-5.9237,-5.85,-5.746,0.0,-5.547,-5.5187,-5.5502,0.0,0.0,0.0,-6.2631,-6.376,-6.3868,-6.5266,-6.606,-6.5773,-6.6622,-6.6825,-6.6095,-6.6324,-6.6029,-6.5027,-6.3862,-6.274,-6.1535,-5.9536,-5.8091,-5.7242,-5.7387,-5.7777,-5.8454,-5.9131,-6.0055,-6.1071,-6.0782,-6.0486,-6.0288,-5.9267,-5.9009,-5.9267,-6.0325,-6.0656,-6.0126,0.0,0.0,0.0,0.0,-3.041,0.0,0.0,0.0,-3.3989,0.0,-3.8502,-4.0323,-4.3511,-4.465,-4.5381,-4.5759,-4.6701,-4.5979,-4.3444,-4.586,0.0,0.0,-4.923,-5.1304,-5.197,0.0,0.0,0.0,0.0,0.0,0.0,0.0,0.0,0.0,-5.8885,0.0,-6.422,-6.5856,-6.858,-7.1818,-7.0483,-6.9479,-6.8669,-6.8291,-6.6209,-6.3825,-6.6427,-6.7737,-6.8398,-6.9828,-7.0657,-7.1215,-7.1628,-7.1719,-7.1495,-7.097,-7.1274,-7.1313,-6.9091,-6.8819,-6.8478,-6.562,-6.4324,-6.2992,-6.0157,-6.0411,-6.1261,-6.1298,-6.1002,-6.1761,-6.5134,-6.2188,-5.9644,0.0,-5.8796,-5.6328,-5.4116,-5.4438,-5.4756,-5.4208,-5.4662,0.0,0.0,-5.8044,-5.8352,-5.9944,-6.1496,-6.2737,0.0,-6.5767,-6.6711,-6.6095,-6.685,-6.6537,-6.5092,-6.4412,-6.2874,-6.0519,-5.9728,-5.8467,-5.692,-5.6858,-5.7259,-5.7869,-5.8485,-5.9162,-5.9839,-6.0175,-5.9516,-5.8486,-5.9009,-5.8436,-5.7411,-5.7552,-5.747,-5.702,-2.7381,-2.9632,-3.1478,0.0,-3.1499,-3.1629,0.0,0.0,0.0,0.0,-4.1483,-4.3834,-4.6373,-4.7526,-4.7791,-4.7168,-4.8944,0.0,0.0,0.0,0.0,-5.2115,-5.3566,-5.4887,-5.5795,-5.4726,0.0,-5.3455,0.0,0.0,-5.5799,0.0,0.0,0.0,0.0,0.0,-6.6015,-6.7691,-7.0358,-7.3329,-7.1727,-7.0634,-6.9927,-6.9781,-6.884,-6.7725,-6.812,-6.9229,-7.0422,-7.0362,-7.0767,-7.1427,-7.1542,-7.1753,-7.1804,-7.0899,-7.1139,-7.1398,-7.0131,-7.0114,-6.9703,-6.6546,-6.5608,-6.4596,-6.1426,-6.1434,-6.2264,-6.2859,-6.3579,-6.3746,-6.265,-6.216,-6.0852,-5.7573,-5.5591,-5.4011,-5.2677,-5.2761,-5.2879,-5.2735,-5.3827,-5.4896,-5.5605,-5.6478,-5.7209,-5.7633,-5.9599,-6.1841,-6.4289,-6.505,-6.5782,-6.6799,-6.8109,-6.7781,-6.5837,-6.5125,-6.403,-6.2428,-6.0642,-5.9253,-5.8148,-5.7555,-5.7766,-5.8516,-5.8701,-5.9061,-5.9471,-5.8761,-5.7803,-5.6683,-5.5791,-5.5193,-5.5205,-5.7254,-5.7282,-5.5964,-2.8047,0.0,0.0,-3.3615,0.0,0.0,-3.441,-3.4337,0.0,-3.9791,-4.2076,0.0,-4.6389,-4.8106,-4.9056,-4.9156,-4.9572,0.0,-4.8846,0.0,0.0,-5.3003,-5.5858,-5.7675,-5.8244,-5.7581,0.0,-5.5425,0.0,0.0,-5.6175,0.0,0.0,0.0,0.0,-6.3237,-6.603,-6.9359,-7.1632,-7.2954,-7.2524,-7.1916,0.0,-7.1319,-7.1256,-7.1044,-7.0916,-7.1052,-7.1341,-7.1668,-7.1836,-7.2021,-7.2538,-7.2342,-7.1904,-7.1555,-7.0989,-7.0548,-7.0546,-7.0448,-6.9955,-6.8134,-6.7688,-6.6834,-6.3527,-6.3713,-6.4679,-6.5125,-6.5552,-6.5988,-6.6444,-6.455,-6.1334,-5.6511,-5.4291,-5.2804,-5.1899,-5.1836,-5.1958,-5.2183,-5.3099,-5.3652,-5.3494,-5.5184,-5.6288,-5.6288,-5.7805,-5.9288,-6.0668,-6.3296,-6.5051,-6.5531,-6.7735,-6.8093,-6.6641,-6.5576,-6.4223,-6.2684,-6.0993,-5.9664,-5.859,-5.7617,-5.7356,-5.7801,-5.8009,-5.8145,-5.8134,-5.7948,-5.7055,-5.5731,-5.4506,-5.4165,-5.4524,-5.5423,-5.5026,-5.3819,0.0,0.0,0.0,0.0,0.0,0.0,0.0,-3.5149,0.0,-4.0453,0.0,-4.3609,-4.5327,-4.7581,-4.9474,-5.078,0.0,-4.907,-4.949,-5.1711,-5.267,-5.2354,-5.7056,-5.9803,-5.9786,-6.0316,-5.9757,0.0,0.0,0.0,0.0,0.0,0.0,0.0,0.0,0.0,0.0,-7.0892,-7.2673,-7.2257,-7.3193,-7.3231,-7.2737,-7.2897,-7.3284,-7.3763,-7.3873,-7.2983,-7.1963,-7.3264,-7.3196,-7.273,-7.3749,-7.3018,-7.1794,-7.2105,-7.0799,-6.9402,-7.0313,-7.0103,-6.9546,-6.9546,-6.9546,-6.8803,-6.5942,-6.65,-6.7651,-6.7763,-6.7523,-6.8406,-7.2099,-6.7262,-6.1353,-5.6891,-5.4669,-5.3346,-5.2683,-5.2648,-5.2671,-5.2814,-5.3246,0.0,-5.2209,-5.4046,-5.5288,-5.5184,-5.5805,-5.6219,-5.6219,-6.122,-6.4084,-6.4051,-6.6892,-6.8011,-6.7081,-6.5831,-6.4159,-6.2363,-6.1154,-5.9949,-5.859,-5.7452,-5.6757,-5.6403,-5.7075,-5.698,-5.6564,-5.7169,-5.6297,-5.4658,-5.3771,-5.3837,-5.4276,-5.2917,-5.2013,-5.1345,0.0,0.0,0.0,0.0,0.0,-3.7742,-3.9122,-4.0106,-4.1514,-4.3882,-4.5676,-4.6907,-4.7678,-4.823,-4.8898,-5.0352,-5.1571,0.0,0.0,0.0,0.0,-5.8172,-5.9881,-6.0996,-6.1529,-6.1251,-6.0305,0.0,0.0,0.0,0.0,0.0,0.0,0.0,0.0,0.0,-6.9556,-7.1952,-7.3705,-7.4775,-7.4285,-7.4402,-7.486,-7.4216,-7.4442,-7.5083,-7.4555,-7.4312,-7.414,-7.3995,-7.3397,-7.2811,-7.3313,-7.2461,-7.1231,-7.0831,-7.0151,-6.9495,-6.9026,-6.884,-6.8729,-6.8729,-6.8729,-6.858,-6.7986,-6.8617,-6.9472,-7.014,-7.0785,-7.0834,-6.9583,-6.5393,-6.1124,-5.8282,-5.7855,-5.8067,-5.858,-5.8667,-5.8,-5.6124,-5.7374,-5.6593,-5.2021,-5.2926,-5.3529,-5.2873,-5.2942,-5.4874,-5.9185,-6.0392,-6.2658,-6.635,-6.8171,-6.8235,-6.629,-6.6064,-6.49,-6.2972,-6.2173,-6.0678,-5.8621,-5.808,-5.7351,-5.6403,-5.6677,-5.6576,-5.6137,-5.4399,-5.2537,-5.098,-5.1007,-5.1078,-5.1176,-5.144,-5.0689,-4.9845,0.0,0.0,0.0,0.0,0.0,0.0,0.0,-4.3657,-4.4621,-4.4704,-4.5497,-4.6214,-4.654,-4.8647,-5.0632,-5.1893,-5.2664,-5.3822,-5.5391,-5.5709,-5.6525,-5.8068,-5.9342,-6.0457,-6.1425,-6.2377,-6.1635,-5.9285,-6.0439,0.0,0.0,0.0,0.0,0.0,0.0,-6.5643,0.0,-7.1412,-7.3284,-7.4813,-7.4851,-7.5386,-7.6036,-7.5195,-7.5221,-7.5577,-7.4923,-7.4827,-7.4965,-7.4677,-7.4054,-7.3501,-7.4267,-7.3236,-7.1712,-7.1638,-7.0378,-6.91,-6.9137,-6.884,-6.8506,-6.8506,-6.8506,-6.8506,-6.8506,-6.9137,-6.9955,-7.0735,-7.1589,-7.1441,-6.8951,-6.5545,-6.2487,-6.0653,-5.9222,-5.8795,-6.0229,-6.0485,-5.9999,-5.8686,-5.8289,-5.6842,-5.3694,-5.2641,-5.2218,-5.2218,-5.2597,-5.4115,-5.7081,-5.8771,-6.1028,-6.4031,-6.635,-6.7098,-6.6148,-6.5157,-6.3967,-6.262,-6.0583,-5.9002,-5.7868,-5.695,-5.603,-5.5296,-5.5661,-5.5526,-5.4909,-5.3646,-5.2543,-5.1673,-5.1323,-5.1136,-5.0733,-4.9796,-4.9113,-4.8675,0.0,-3.3034,0.0,0.0,-3.9759,0.0,-4.3979,-4.6106,-4.6908,-4.552,-4.5391,-4.5595,-4.6279,-4.9379,-5.2195,-5.4135,-5.3631,-5.4146,-5.6178,-5.4704,-5.4549,-5.6415,-5.7876,-5.9349,-6.111,-6.3236,-6.323,-6.0865,-6.1932,-6.1155,-5.8754,-5.9307,-6.0115,0.0,0.0,-6.6445,-6.912,-7.1298,-7.3093,-7.4545,-7.5233,-7.5883,-7.6379,-7.5799,-7.566,-7.5716,-7.4973,-7.4783,-7.4898,-7.4865,-7.4423,-7.4067,-7.4938,-7.3705,-7.1935,-7.2102,-7.0405,-6.8654,-6.9286,-6.8989,-6.8506,-6.8506,-6.8506,-6.8457,-6.8371,-6.8952,-6.973,-7.0258,-7.1235,-7.1301,-6.8951,-6.7074,-6.5409,-6.3774,-6.1661,-6.0834,-6.2674,-6.2968,-6.2524,-6.1298,-5.9726,-5.8017,-5.5872,-5.3775,-5.2666,-5.2908,-5.308,-5.3632,-5.4638,-5.7118,-5.9318,-6.1011,-6.375,-6.5105,-6.495,-6.377,-6.2652,-6.1504,-5.8748,-5.7177,-5.6676,-5.5536,-5.4707,-5.4221,-5.4678,-5.4377,-5.3431,-5.2972,-5.2631,-5.2113,-5.1136,-5.0368,-4.9687,-4.793,-4.7233,-4.7125,0.0,0.0,0.0,0.0,0.0,-4.2118,-4.4474,-4.6931,-4.8692,-4.8533,-4.7839,-4.8276,-5.0854,-5.062,-5.1975,-5.5972,-5.4933,-5.4905,-5.6876,-5.5782,-5.5581,-5.6328,-5.7124,-5.8648,-6.1056,-6.3188,-6.4471,-6.4524,-6.417,-6.3032,-6.1254,-6.0958,-6.2476,-6.5492,-6.693,-6.9387,-7.2597,-7.3552,-7.4507,-7.5386,-7.5462,-7.5539,-7.5612,-7.5731,-7.578,-7.5639,-7.4499,-7.4014,-7.3959,-7.3999,-7.3982,-7.3911,-7.3947,-7.2617,-7.0987,-7.0181,-6.9298,-6.8543,-6.8617,-6.858,-6.8506,-6.8506,-6.8506,-6.8408,-6.7982,-6.8468,-6.8951,-6.8677,-7.0202,-7.0951,-6.8853,-7.014,-7.0546,-6.7752,-6.7945,-6.8777,-7.0085,-7.0274,-6.8786,-6.4697,-6.5105,-6.357,-5.807,-5.7369,-5.6736,-5.5391,-5.346,-5.3225,-5.5201,-5.6263,-5.7668,-5.9809,-6.168,-6.2121,-6.1077,-6.252,-6.1914,-5.942,-5.8514,-5.7105,-5.5196,-5.5219,-5.483,-5.4092,-5.4038,-5.3256,-5.1823,-5.0823,-4.9843,-4.8626,-4.6853,-4.6036,-4.5677,-4.5287,-4.4943,-4.4635,0.0,0.0,0.0,0.0,0.0,0.0,0.0,-4.7718,-4.8385,-4.8385,-4.9332,-5.0193,-5.0723,-5.2712,-5.5032,-5.7219,-5.7509,-5.8178,-5.997,-5.8504,-5.7699,-5.8123,-5.8304,-5.9547,-6.204,-6.4005,-6.5657,-6.6808,-6.5459,-6.4218,-6.3107,-6.2585,-6.4449,-6.8262,-6.907,-7.103,-7.3781,-7.4622,-7.5768,-7.6991,-7.6991,-7.7058,-7.7117,-7.6747,-7.6415,-7.6105,-7.5128,-7.4467,-7.4093,-7.456,-7.4295,-7.3858,-7.4231,-7.3117,-7.1594,-7.1029,-6.9751,-6.8554,-6.8809,-6.8707,-6.8506,-6.8506,-6.8272,-6.8033,-6.7841,-6.7797,-6.7945,-6.8325,-7.0054,-7.1192,-7.0114,-6.9955,-7.0138,-7.0642,-6.9467,-6.9409,-7.206,-7.1537,-6.9911,-6.7132,-6.5054,-6.2577,-5.9214,-5.7413,-5.6188,-5.5472,-5.4578,-5.4303,-5.4686,-5.6576,-5.8106,-5.8993,-6.1717,-6.2759,-6.1892,-6.1598,-6.0438,-5.8607,-5.6445,-5.4886,-5.3886,-5.3862,-5.3852,-5.395,-5.3594,-5.268,-5.157,-5.0761,-4.9308,-4.7546,-4.6707,-4.5797,-4.4906,-4.4098,-4.3733,-4.3365,-3.267,0.0,-3.6669,0.0,-4.2627,-4.4156,-4.7916,-4.8476,-4.8359,-4.8223,-5.0699,-5.2229,-5.1302,-5.4135,-5.6794,-5.8668,-5.9384,-6.0329,-6.1688,-6.0284,-5.9153,-5.8967,-5.9255,-6.0539,-6.3308,-6.5592,-6.7553,-6.9528,-6.8154,-6.6989,-6.597,-6.5198,-6.6918,-7.0642,-7.1512,-7.3017,-7.5004,-7.5883,-7.6761,-7.7602,-7.7708,-7.7845,-7.7892,-7.7429,-7.6962,-7.6381,-7.5658,-7.4993,-7.4593,-7.5113,-7.4629,-7.3889,-7.4219,-7.3532,-7.2391,-7.1476,-7.0079,-6.89,-6.9034,-6.8809,-6.8506,-6.8506,-6.8171,-6.7736,-6.763,-6.7249,-6.7186,-6.8195,-6.9575,-7.0735,-7.119,-7.0363,-7.0374,-7.2889,-7.1212,-7.0515,-7.3054,-7.229,-7.0435,-6.7644,-6.4546,-6.1919,-6.0035,-5.7835,-5.6503,-5.6542,-5.6576,-5.6098,-5.5039,-5.6883,-5.8095,-5.8211,-6.0621,-6.1694,-6.1289,-6.0069,-5.8746,-5.7408,-5.494,-5.3601,-5.3375,-5.3188,-5.3377,-5.3605,-5.3386,-5.2594,-5.1281,-5.0847,-4.9135,-4.6695,-4.6228,-4.5221,-4.394,-4.2827,-4.2398,-4.2138,-3.2354,-3.4725,-3.7647,-4.2055,-4.4418,-4.6653,-4.9059,-4.9141,-4.8691,-4.8262,-5.1914,-5.415,-5.3189,-5.421,-5.6536,-6.0498,-6.0302,-6.0352,-6.0953,-6.0405,-5.9539,-5.8294,-5.9387,-6.151,-6.4648,-6.7904,-7.0667,-7.3046,-7.2894,-7.1973,-7.0396,-6.9252,-7.0203,-7.2868,-7.4638,-7.5883,-7.6723,-7.7602,-7.7487,-7.6759,-7.699,-7.7085,-7.7186,-7.7548,-7.7195,-7.6436,-7.5803,-7.5427,-7.5195,-7.5261,-7.4745,-7.4017,-7.3649,-7.3494,-7.3073,-7.0949,-7.0004,-6.9607,-6.9222,-6.8809,-6.8506,-6.8506,-6.8171,-6.7684,-6.7213,-6.6794,-6.6872,-6.8174,-6.8377,-6.9172,-7.1695,-7.2146,-7.2666,-7.4301,-7.4164,-7.3828,-7.3865,-7.3479,-7.1114,-6.5586,-6.4572,-6.33,-6.0634,-5.9357,-5.8975,-5.9515,-5.9405,-5.8506,-5.6727,-5.6799,-5.6954,-5.7323,-5.738,-5.7496,-5.7643,-5.7776,-5.7113,-5.5581,-5.462,-5.4092,-5.3793,-5.3906,-5.3605,-5.3164,-5.374,-5.2712,-5.0648,-5.0655,-4.8757,-4.5738,-4.4403,-4.3132,-4.1997,-4.1147,-4.074,-4.031,-3.4841,-3.5687,-3.7172,-4.0271,-4.2341,-4.4489,-4.6728,-4.7998,-4.8711,-4.8262,-5.1485,-5.3647,-5.2708,-5.5495,-5.8282,-6.0148,-6.0431,-6.1132,-6.2849,-6.3133,-6.2756,-6.201,-6.3108,-6.4988,-6.7857,-7.0155,-7.2586,-7.51,-7.4057,-7.3055,-7.2028,-7.1727,-7.3364,-7.6701,-7.7037,-7.7335,-7.7602,-7.787,-7.7487,-7.6835,-7.8256,-7.8177,-7.7417,-7.8318,-7.7866,-7.6747,-7.6444,-7.5897,-7.5354,-7.5818,-7.5337,-7.4535,-7.4666,-7.4144,-7.3378,-7.2649,-7.1369,-7.0203,-7.0372,-6.9491,-6.8506,-6.8506,-6.793,-6.7268,-6.7101,-6.6794,-6.6668,-6.7352,-6.8165,-6.9336,-7.1005,-7.1812,-7.2704,-7.4338,-7.401,-7.3717,-7.4273,-7.2336,-6.996,-6.7616,-6.5184,-6.3164,-6.1772,-6.1135,-5.9955,-5.7895,-5.8201,-5.7683,-5.6052,-5.7803,-5.8589,-5.8093,-5.873,-5.9319,-5.9809,-5.7881,-5.7001,-5.6907,-5.5287,-5.4345,-5.3862,-5.3547,-5.3444,-5.3633,-5.2296,-5.1204,-5.0322,-4.8357,-4.6238,-4.4255,-4.3066,-4.2004,-4.1167,-4.1025,-4.0596,-4.0166,-3.6012,-3.6684,-3.7776,-3.9589,-4.2059,-4.4299,-4.5805,-4.7626,-4.875,-4.8476,-5.1465,-5.3321,-5.2559,-5.6467,-5.9464,-6.0507,-6.0912,-6.2149,-6.4749,-6.4769,-6.4614,-6.4793,-6.5141,-6.6971,-7.0372,-7.2116,-7.4248,-7.6517,-7.5405,-7.4595,-7.4146,-7.4711,-7.6278,-7.85,-7.879,-7.8787,-7.8481,-7.8137,-7.7941,-7.7854,-7.8531,-7.8469,-7.8051,-7.853,-7.794,-7.6863,-7.7091,-7.6727,-7.6167,-7.6598,-7.6145,-7.5418,-7.5302,-7.4786,-7.4106,-7.3764,-7.2346,-7.0874,-7.0988,-6.981,-6.8506,-6.8506,-6.793,-6.736,-6.7101,-6.691,-6.6852,-6.7268,-6.8035,-6.9052,-7.0597,-7.1329,-7.2332,-7.4264,-7.4153,-7.3892,-7.4063,-7.1654,-6.915,-6.6967,-6.4079,-6.1988,-6.1273,-6.0671,-5.9763,-5.8518,-5.8241,-5.7931,-5.7413,-5.8203,-5.892,-5.9431,-5.9968,-6.0344,-6.055,-5.8437,-5.7323,-5.7228,-5.553,-5.4508,-5.4118,-5.3434,-5.3095,-5.3143,-5.1986,-5.0709,-4.9358,-4.7783,-4.5518,-4.3134,-4.3088,-4.2039,-4.0655,-4.1226,-4.0862,-4.0022,-3.6085,-3.7669,-3.9194,-3.9842,-4.3156,-4.5732,-4.6133,-4.7778,-4.8867,-4.8867,-5.1631,-5.3604,-5.3123,-5.6983,-6.0322,-6.1816,-6.1887,-6.3216,-6.6105,-6.5422,-6.5315,-6.6308,-6.5948,-6.7799,-7.2215,-7.3843,-7.5627,-7.7476,-7.6863,-7.6517,-7.6548,-7.7968,-7.8634,-7.8656,-7.9934,-8.0009,-7.9169,-7.8328,-7.8543,-7.923,-7.7929,-7.7949,-7.8762,-7.8285,-7.7557,-7.6912,-7.7693,-7.7803,-7.7597,-7.7573,-7.715,-7.6526,-7.5688,-7.5383,-7.5191,-7.4354,-7.2964,-7.16,-7.114,-6.981,-6.8554,-6.8506,-6.8171,-6.7684,-6.7213,-6.7137,-6.7268,-6.7684,-6.7789,-6.8461,-7.0485,-7.092,-7.1701,-7.4115,-7.445,-7.41,-7.3162,-7.1311,-6.8512,-6.4315,-6.1928,-6.0427,-5.9857,-5.8807,-5.8882,-6.0617,-5.9208,-5.8775,-5.9984,-5.8075,-5.8262,-6.1086,-6.0805,-6.0468,-6.0234,-5.9166,-5.7891,-5.6627,-5.5419,-5.4701,-5.4487,-5.353,-5.2601,-5.1927,-5.2602,-5.0934,-4.7808,-4.8509,-4.6422,-4.2809,-4.4291,-4.3001,-4.0542,-4.1924,-4.1247,-3.957,0.0,0.0,-3.7312,-3.7461,-4.0868,-4.3522,-4.3609,-4.6616,-4.8867,-4.8867,-5.1631,-5.3928,-5.423,-5.7448,-6.0761,-6.3711,-6.3515,-6.3286,-6.3722,-6.6119,-6.7243,-6.6467,-6.8352,-7.0568,-7.2868,-7.4844,-7.6639,-7.8385,-7.6657,-7.6557,-7.7899,-7.7941,-7.8686,-8.0049,-8.0354,-7.9665,-7.829,-7.8099,-7.7509,-7.6732,-7.7197,-7.7295,-7.7188,-7.7911,-7.7962,-7.7726,-7.7832,-7.8146,-7.8476,-7.8332,-7.7776,-7.7085,-7.6893,-7.6356,-7.5634,-7.4423,-7.341,-7.2354,-7.1295,-7.0026,-6.8863,-6.8602,-6.8171,-6.7684,-6.7213,-6.7415,-6.7684,-6.7789,-6.8084,-6.889,-7.0573,-7.092,-7.1464,-7.3215,-7.2992,-7.2314,-7.1411,-6.9274,-6.7239,-6.5428,-6.4072,-6.2829,-6.1791,-6.1863,-6.0729,-5.7953,-5.7299,-5.7111,-5.7047,-5.7033,-5.8462,-6.156,-6.0051,-5.9696,-6.0701,-5.8339,-5.6809,-5.6035,-5.5283,-5.4672,-5.4165,-5.3181,-5.2613,-5.2156,-5.079,-4.9732,-4.8748,-4.7199,-4.594,-4.4888,-4.4856,-4.3759,-4.2123,-4.2462,-4.1105,-3.9156,-3.7719,-3.7946,-3.8338,-3.9283,-4.1958,-4.4057,-4.4057,-4.6747,-4.9138,-4.9651,-5.185,-5.3919,-5.5546,-5.8374,-6.1144,-6.4028,-6.3788,-6.4166,-6.5488,-6.6966,-6.8002,-6.8092,-6.9545,-7.1606,-7.4515,-7.5637,-7.7021,-7.8702,-7.6941,-7.6875,-7.8409,-7.8204,-7.9033,-8.0506,-8.0506,-7.978,-7.8557,-7.8279,-7.7713,-7.7064,-7.7016,-7.7098,-7.7261,-7.7438,-7.7641,-7.7833,-7.7697,-7.8085,-7.859,-7.8113,-7.7669,-7.7207,-7.6823,-7.6092,-7.5216,-7.4152,-7.3379,-7.2639,-7.1553,-7.0191,-6.8997,-6.8565,-6.8321,-6.8033,-6.7826,-6.793,-6.8084,-6.8084,-6.8618,-6.9274,-7.0077,-7.0856,-7.1472,-7.1923,-7.0507,-6.9375,-6.9471,-6.6557,-6.4675,-6.5514,-6.4525,-6.3702,-6.3396,-6.328,-6.1999,-5.8899,-5.854,-5.8133,-5.756,-5.805,-5.9154,-6.0801,-6.048,-6.0101,-5.9827,-5.7798,-5.6466,-5.582,-5.5099,-5.4458,-5.4028,-5.2858,-5.1955,-5.1376,-5.0139,-4.9165,-4.8391,-4.6983,-4.6027,-4.5398,-4.5906,-4.4602,-4.2478,-4.3161,-4.163,-3.9011,-3.9299,-3.9673,-4.0239,-4.2341,-4.4436,-4.5755,-4.57,-4.7788,-4.9671,-5.0607,-5.239,-5.4445,-5.6814,-5.9659,-6.2149,-6.4076,-6.4332,-6.5617,-6.8555,-6.8081,-6.8485,-7.015,-7.0169,-7.2021,-7.6081,-7.6579,-7.7393,-7.8702,-7.7456,-7.7279,-7.8251,-7.8588,-7.9236,-8.0163,-8.0277,-7.978,-7.8861,-7.8338,-7.8169,-7.8116,-7.6963,-7.7053,-7.7784,-7.6987,-7.7112,-7.7633,-7.7539,-7.7923,-7.84,-7.7707,-7.74,-7.7169,-7.6438,-7.5592,-7.4707,-7.3783,-7.3261,-7.2773,-7.1713,-7.0309,-6.8997,-6.8565,-6.8506,-6.8506,-6.8506,-6.8506,-6.8543,-6.8605,-6.9199,-6.9669,-6.9642,-7.0739,-7.1279,-7.0048,-6.7834,-6.6537,-6.7112,-6.4001,-6.2568,-6.4913,-6.4273,-6.3924,-6.4464,-6.3766,-6.2789,-6.1466,-6.0811,-6.0259,-5.9736,-6.0033,-6.0121,-5.9725,-6.1027,-6.0626,-5.8414,-5.7124,-5.6318,-5.585,-5.4914,-5.4302,-5.4035,-5.2622,-5.1433,-5.0457,-5.0113,-4.9101,-4.7612,-4.7405,-4.6563,-4.5622,-4.6876,-4.5279,-4.2371,-4.3511,-4.1699,-3.8622,-3.9299,-3.9673,-4.0239,-4.2341,-4.4436,-4.5682,-4.5333,-4.8385,-5.0607,-5.0331,-5.3727,-5.6675,-5.8166,-6.1849,-6.4851,-6.6757,-6.7538,-6.8124,-6.8451,-6.9178,-6.9911,-7.0535,-7.1548,-7.3357,-7.6162,-7.823,-7.9142,-7.8702,-7.8,-7.7614,-7.754,-7.8325,-7.8661,-7.8566,-7.9209,-7.8596,-7.7141,-7.7259,-7.6976,-7.6495,-7.6497,-7.6692,-7.6911,-7.6775,-7.7053,-7.7534,-7.7504,-7.7923,-7.8477,-7.8361,-7.7861,-7.7284,-7.713,-7.6515,-7.5515,-7.3937,-7.3486,-7.2976,-7.1051,-6.9853,-6.8997,-6.8565,-6.8506,-6.8506,-6.8506,-6.8506,-6.8643,-6.9248,-6.942,-6.9716,-7.0228,-7.0507,-6.9794,-6.7067,-6.67,-6.5931,-6.3377,-6.3512,-6.3865,-6.3999,-6.4822,-6.499,-6.412,-6.4029,-6.3628,-6.2486,-6.148,-6.1085,-6.1361,-6.1491,-6.0927,-5.9618,-6.0066,-5.9246,-5.7114,-5.5811,-5.5275,-5.5525,-5.4533,-5.4208,-5.4394,-5.3388,-5.2149,-5.0743,-5.03,-4.9244,-4.8094,-4.8054,-4.791,-4.7648,-4.6636,-4.4888,-4.2944,-4.1299,-3.931,-3.7432,-4.0525,-4.1694,-4.2877,-4.4946,-4.6972,-4.8169,-4.7973,-5.0257,-5.2347,-5.3704,-5.56,-5.7774,-6.0481,-6.3058,-6.5278,-6.6966,-6.8082,-6.9002,-6.9272,-6.9798,-7.0431,-7.1292,-7.2069,-7.3856,-7.6795,-7.8818,-7.9638,-7.9075,-7.8073,-7.766,-7.7752,-7.7942,-7.8312,-7.8889,-7.877,-7.8256,-7.7538,-7.737,-7.6907,-7.6341,-7.6586,-7.6722,-7.67,-7.6663,-7.6993,-7.7418,-7.6907,-7.7169,-7.7784,-7.7323,-7.6899,-7.6592,-7.6592,-7.6015,-7.5053,-7.386,-7.286,-7.1785,-7.0362,-6.9702,-6.9303,-6.866,-6.884,-6.9174,-6.9174,-6.9088,-6.9211,-6.9976,-6.9739,-6.9451,-6.97,-6.9798,-6.9059,-6.6713,-6.4495,-6.3128,-6.3236,-6.1953,-6.1792,-6.3973,-6.4889,-6.5227,-6.492,-6.4697,-6.4153,-6.3195,-6.2444,-6.1977,-6.1821,-6.1591,-6.1281,-6.049,-5.8966,-5.7446,-5.6071,-5.5167,-5.4711,-5.4678,-5.4252,-5.4127,-5.4232,-5.3159,-5.2218,-5.1367,-5.002,-4.914,-4.8643,-4.8329,-4.8055,-4.7755,-4.6534,-4.4673,-4.2548,-4.0657,-3.8427,-3.6274,-4.2894,-4.4249,-4.5838,-4.8414,-4.999,-5.0827,-5.0722,-5.2562,-5.4546,-5.6347,-5.7566,-5.9448,-6.2641,-6.4553,-6.6003,-6.6956,-6.8519,-6.9648,-7.0059,-7.015,-7.0766,-7.1999,-7.2912,-7.4607,-7.7339,-7.9177,-7.9808,-7.9238,-7.8389,-7.7952,-7.7931,-7.757,-7.7885,-7.8632,-7.793,-7.753,-7.7393,-7.6982,-7.6588,-7.6241,-7.6698,-7.6756,-7.663,-7.6576,-7.6803,-7.7048,-7.6293,-7.6438,-7.6899,-7.6245,-7.6015,-7.6015,-7.6015,-7.5553,-7.4861,-7.4014,-7.2611,-7.1091,-7.0001,-6.9854,-6.9811,-6.8968,-6.9348,-6.9942,-6.9942,-6.9841,-6.9962,-7.0724,-7.0191,-6.9442,-6.9119,-6.9055,-6.815,-6.5779,-6.2718,-6.1212,-6.2962,-6.0865,-6.0469,-6.4059,-6.4673,-6.4972,-6.5447,-6.4893,-6.4211,-6.3654,-6.3459,-6.2959,-6.1938,-6.1822,-6.146,-6.0521,-5.8008,-5.6238,-5.5416,-5.4699,-5.4417,-5.446,-5.4351,-5.4255,-5.4318,-5.3027,-5.2244,-5.1728,-4.9983,-4.927,-4.9218,-4.8486,-4.8016,-4.7555,-4.5773,-4.3702,-4.1544,-3.9416,-3.7073,-3.4844,-4.6713,-4.7096,-4.8255,-5.185,-5.2563,-5.2584,-5.215,-5.4705,-5.6486,-5.631,-5.9716,-6.2762,-6.4409,-6.6788,-6.8369,-6.8564,-7.0302,-7.0901,-7.0131,-7.0502,-7.1218,-7.2432,-7.4773,-7.6444,-7.751,-7.9506,-7.9974,-7.8771,-7.9099,-7.8661,-7.7565,-7.7437,-7.6958,-7.6144,-7.5977,-7.5475,-7.4811,-7.4982,-7.5178,-7.5376,-7.6327,-7.6638,-7.652,-7.6361,-7.6237,-7.6082,-7.6015,-7.6053,-7.6092,-7.6015,-7.6015,-7.6015,-7.6015,-7.5976,-7.5745,-7.4861,-7.3691,-7.2223,-7.0232,-7.027,-7.0602,-6.9825,-7.0114,-7.0643,-7.0643,-7.0502,-7.0602,-7.1305,-7.0772,-7.0018,-6.9236,-6.8476,-6.6571,-6.2316,-6.2357,-6.2266,-6.0244,-6.1347,-6.2876,-6.4199,-6.4153,-6.4203,-6.4681,-6.4134,-6.3654,-6.3588,-6.4402,-6.4127,-6.2421,-6.2925,-6.1699,-5.8369,-5.7423,-5.6492,-5.5416,-5.4425,-5.4604,-5.5785,-5.5253,-5.488,-5.4831,-5.3937,-5.2796,-5.1629,-5.0443,-4.9819,-4.974,-4.8643,-4.8132,-4.7707,-4.385,-4.1474,-3.9671,-3.6093,-3.3933,-3.2858,-4.9192,-5.029,-5.1461,-5.2886,-5.3691,-5.4432,-5.5201,-5.6876,-5.8517,-5.9998,-6.1895,-6.3857,-6.5553,-6.7497,-6.8724,-6.8758,-7.0137,-7.0648,-7.0099,-7.0927,-7.2021,-7.3276,-7.6221,-7.7916,-7.8231,-7.9998,-8.0317,-7.9142,-7.8971,-7.8383,-7.7174,-7.7192,-7.7008,-7.6691,-7.655,-7.6079,-7.5591,-7.5799,-7.5742,-7.5584,-7.6397,-7.6634,-7.6537,-7.6376,-7.6186,-7.6015,-7.6015,-7.6015,-7.6015,-7.6015,-7.6015,-7.6015,-7.6015,-7.6015,-7.5793,-7.4657,-7.3614,-7.2536,-7.1206,-7.1115,-7.1206,-7.0487,-7.0865,-7.1405,-7.1353,-7.0823,-7.0568,-7.1324,-6.9705,-6.8117,-6.8295,-6.7007,-6.5242,-6.3409,-6.2717,-6.2174,-6.1586,-6.1917,-6.2514,-6.3314,-6.3568,-6.3715,-6.355,-6.3232,-6.3073,-6.3407,-6.3594,-6.3576,-6.3357,-6.1964,-5.9685,-5.6525,-5.5664,-5.5226,-5.5198,-5.4748,-5.4845,-5.5395,-5.4683,-5.453,-5.4616,-5.3565,-5.2727,-5.2242,-5.0926,-5.0237,-4.9819,-4.8797,-4.7172,-4.4962,-4.2143,-3.9282,-3.6302,-3.3872,-3.2034,-3.0893,-5.223,-5.332,-5.4275,-5.4806,-5.5735,-5.6861,-5.7646,-5.8954,-6.0812,-6.2884,-6.3911,-6.5363,-6.7644,-6.8619,-6.9286,-6.9945,-7.037,-7.0652,-7.0582,-7.1766,-7.3046,-7.4146,-7.6877,-7.8303,-7.8303,-7.9783,-8.0099,-7.9208,-7.8753,-7.8062,-7.713,-7.6836,-7.6749,-7.6893,-7.6381,-7.6087,-7.5896,-7.607,-7.5989,-7.5741,-7.6106,-7.6222,-7.6125,-7.5647,-7.5335,-7.5245,-7.5515,-7.5592,-7.5668,-7.6207,-7.6399,-7.6399,-7.6399,-7.6109,-7.5641,-7.4729,-7.3873,-7.304,-7.2498,-7.2257,-7.1936,-7.1264,-7.1664,-7.2203,-7.2041,-7.1305,-7.079,-7.1342,-6.9091,-6.7161,-6.7522,-6.5901,-6.4393,-6.4076,-6.319,-6.261,-6.2973,-6.265,-6.2445,-6.275,-6.2643,-6.2466,-6.2253,-6.2059,-6.2124,-6.2574,-6.2815,-6.2805,-6.2716,-6.0004,-5.7497,-5.5018,-5.4396,-5.415,-5.439,-5.4562,-5.4854,-5.4965,-5.4474,-5.411,-5.3899,-5.2834,-5.2262,-5.1804,-5.0734,-4.9923,-4.9334,-4.8163,-4.5885,-4.2942,-4.0456,-3.7205,-3.3857,-3.2053,-3.0551,-2.9266,-5.6257,-5.6184,-5.6531,-5.8256,-5.9096,-5.9657,-5.9657,-6.1324,-6.3058,-6.4553,-6.5723,-6.7564,-7.0509,-7.0201,-7.0489,-7.2485,-7.1721,-7.1266,-7.1787,-7.3121,-7.4223,-7.5118,-7.6622,-7.7507,-7.7507,-7.8734,-7.9135,-7.8702,-7.8406,-7.8005,-7.7434,-7.6533,-7.6124,-7.6141,-7.5163,-7.4888,-7.5215,-7.5335,-7.5501,-7.5662,-7.5404,-7.5305,-7.5137,-7.3961,-7.3514,-7.363,-7.4399,-7.4707,-7.4976,-7.6707,-7.7284,-7.7284,-7.7284,-7.6377,-7.531,-7.531,-7.4708,-7.3972,-7.4009,-7.3604,-7.3013,-7.2124,-7.2462,-7.2927,-7.2723,-7.1985,-7.1321,-7.1284,-6.9508,-6.7656,-6.6896,-6.5435,-6.4076,-6.3452,-6.3531,-6.3788,-6.3788,-6.3414,-6.3135,-6.2843,-6.1306,-6.0391,-6.0637,-6.0496,-6.0619,-6.1075,-6.2172,-6.1949,-5.9827,-5.7353,-5.5456,-5.4165,-5.4057,-5.3841,-5.3213,-5.3836,-5.4374,-5.497,-5.4616,-5.3779,-5.2588,-5.2218,-5.1433,-5.024,-4.9302,-4.88,-4.8328,-4.639,-4.4208,-4.2017,-3.8509,-3.5495,-3.2829,-3.0667,-2.9122,-2.813,-5.8705,-5.8924,-5.9213,-6.0311,-6.028,-6.0555,-6.2019,-6.3229,-6.4581,-6.5751,-6.768,-6.9175,-6.9982,-7.0679,-7.1339,-7.1844,-7.1731,-7.2271,-7.3947,-7.4939,-7.6045,-7.7593,-7.8056,-7.8593,-7.9173,-7.9529,-7.9384,-7.8702,-7.8073,-7.732,-7.6558,-7.6581,-7.6406,-7.6076,-7.63,-7.5963,-7.5324,-7.617,-7.5898,-7.4931,-7.5931,-7.5556,-7.4416,-7.4525,-7.4128,-7.363,-7.4399,-7.5091,-7.5784,-7.6899,-7.7284,-7.7169,-7.6592,-7.5916,-7.531,-7.531,-7.4904,-7.4374,-7.3972,-7.3725,-7.3479,-7.2865,-7.2706,-7.2576,-7.1912,-7.1027,-7.0293,-6.9743,-6.7846,-6.6173,-6.5818,-6.4603,-6.3639,-6.3677,-6.3716,-6.3687,-6.345,-6.3102,-6.2472,-6.1177,-6.0909,-6.0528,-5.981,-6.0083,-6.0533,-6.081,-6.1627,-6.1527,-6.0132,-5.8085,-5.6323,-5.5217,-5.3568,-5.2731,-5.2603,-5.398,-5.4456,-5.3979,-5.3974,-5.3227,-5.2002,-5.1391,-5.0584,-4.9645,-4.9341,-4.8544,-4.7428,-4.6167,-4.2818,-3.8551,-3.6912,-3.3502,-2.9568,-2.8837,-2.7985,-2.7274,-6.0003,-6.048,-6.071,-6.1184,-6.1425,-6.189,-6.3113,-6.4554,-6.578,-6.681,-6.8591,-7.0073,-7.08,-7.1347,-7.1949,-7.2806,-7.294,-7.3525,-7.4868,-7.5379,-7.6447,-7.8162,-7.8521,-7.8919,-7.9426,-7.91,-7.8702,-7.8231,-7.7274,-7.6537,-7.6111,-7.6297,-7.6286,-7.6157,-7.6636,-7.6505,-7.5959,-7.671,-7.6243,-7.5104,-7.5962,-7.5431,-7.4126,-7.4051,-7.3828,-7.3639,-7.4043,-7.4784,-7.5707,-7.7246,-7.7746,-7.7669,-7.713,-7.6223,-7.531,-7.5274,-7.4981,-7.454,-7.3916,-7.3725,-7.3492,-7.2647,-7.23,-7.2041,-7.1431,-7.044,-6.9486,-6.9009,-6.7065,-6.5462,-6.5332,-6.4323,-6.3462,-6.3335,-6.3868,-6.4062,-6.326,-6.2868,-6.2185,-6.0865,-6.0449,-5.998,-5.9398,-5.969,-6.0108,-6.0299,-6.0753,-6.0404,-5.9128,-5.7634,-5.6204,-5.4834,-5.2902,-5.1846,-5.1766,-5.2853,-5.3121,-5.2552,-5.2577,-5.1977,-5.1028,-5.0446,-4.9741,-4.8807,-4.8333,-4.7172,-4.5404,-4.3464,-4.0002,-3.5801,-3.4105,-3.1167,-2.794,-2.7719,-2.742,-2.6983,-6.0267,-6.0825,-6.1247,-6.131,-6.2509,-6.3336,-6.3584,-6.5396,-6.6923,-6.7754,-6.9139,-7.0768,-7.2306,-7.2135,-7.2696,-7.4761,-7.4829,-7.4808,-7.4892,-7.5168,-7.6021,-7.755,-7.8412,-7.881,-7.881,-7.8014,-7.7579,-7.7507,-7.6364,-7.5946,-7.6138,-7.5831,-7.5932,-7.6306,-7.6436,-7.6649,-7.6917,-7.6912,-7.6475,-7.5768,-7.5659,-7.5062,-7.4158,-7.3161,-7.3132,-7.3682,-7.3636,-7.413,-7.5168,-7.7592,-7.84,-7.8361,-7.8284,-7.6914,-7.531,-7.5277,-7.4942,-7.445,-7.3906,-7.3579,-7.3052,-7.1765,-7.1398,-7.1232,-7.1101,-6.9963,-6.8898,-6.8825,-6.6933,-6.5397,-6.5397,-6.4495,-6.3585,-6.2891,-6.4081,-6.459,-6.328,-6.2737,-6.2149,-6.1397,-5.9993,-5.9141,-5.9333,-5.9362,-5.9435,-5.9652,-5.9716,-5.903,-5.7496,-5.6607,-5.533,-5.3547,-5.2056,-5.11,-5.0795,-5.078,-5.0775,-5.0777,-5.083,-5.0472,-4.9819,-4.9482,-4.8928,-4.7974,-4.6787,-4.5034,-4.2848,-3.9588,-3.6577,-3.369,-3.1149,-2.9007,-2.7575,-2.7171,-2.6983,-2.7129,-6.0916,-6.1046,-6.1482,-6.2638,-6.3066,-6.3926,-6.5628,-6.7097,-6.8392,-6.9228,-7.1414,-7.2551,-7.1875,-7.3231,-7.4215,-7.4202,-7.5635,-7.61,-7.486,-7.7203,-7.8609,-7.8416,-7.9215,-7.9643,-7.9643,-7.8847,-7.8122,-7.7507,-7.6544,-7.605,-7.6181,-7.6019,-7.6114,-7.6458,-7.6519,-7.6716,-7.6951,-7.6316,-7.5941,-7.5813,-7.5762,-7.5084,-7.4094,-7.4533,-7.4221,-7.3636,-7.4235,-7.4976,-7.5899,-7.713,-7.7553,-7.7438,-7.6746,-7.5993,-7.5379,-7.5724,-7.5241,-7.4497,-7.4243,-7.3344,-7.2309,-7.1545,-7.0422,-6.9467,-6.9412,-6.9155,-6.866,-6.7927,-6.6939,-6.6064,-6.5815,-6.4645,-6.3855,-6.4357,-6.4219,-6.3775,-6.3171,-6.3,-6.2301,-6.0497,-6.0313,-6.0011,-5.9348,-5.9479,-5.9642,-5.9716,-5.9716,-5.912,-5.7714,-5.648,-5.52,-5.3802,-5.1948,-5.0767,-5.0235,-4.9778,-4.9694,-5.0191,-5.0644,-5.0261,-4.927,-4.915,-4.8573,-4.7359,-4.6205,-4.4569,-4.248,-3.9209,-3.6012,-3.2918,-3.0746,-2.8694,-2.7186,-2.6969,-2.742,-2.8,-6.1592,-6.1951,-6.2509,-6.3166,-6.3575,-6.4462,-6.6258,-6.7673,-6.8913,-6.9994,-7.1862,-7.3029,-7.2811,-7.3815,-7.4806,-7.5417,-7.6416,-7.692,-7.6631,-7.8221,-7.8981,-7.8674,-7.9431,-7.9716,-7.9354,-7.9521,-7.9105,-7.7997,-7.6994,-7.6536,-7.6701,-7.6185,-7.634,-7.712,-7.6895,-7.7094,-7.7578,-7.6775,-7.6164,-7.5852,-7.6242,-7.5737,-7.4817,-7.5167,-7.5098,-7.4822,-7.4725,-7.5515,-7.6669,-7.713,-7.7284,-7.7207,-7.6746,-7.6164,-7.5577,-7.5387,-7.4771,-7.3985,-7.3237,-7.2332,-7.1329,-7.0386,-6.9522,-6.8898,-6.8898,-6.8605,-6.8147,-6.7634,-6.6852,-6.6186,-6.5914,-6.4828,-6.4031,-6.4081,-6.3811,-6.33,-6.2344,-6.2124,-6.1682,-6.0617,-6.0348,-6.0059,-5.9703,-5.9664,-5.9716,-5.9716,-5.954,-5.876,-5.7434,-5.6091,-5.4798,-5.3518,-5.1512,-5.0348,-5.001,-4.9098,-4.8795,-4.8852,-4.9402,-4.9285,-4.8669,-4.8525,-4.7715,-4.6535,-4.5271,-4.3048,-4.0241,-3.7487,-3.4296,-3.1199,-3.002,-2.88,-2.7774,-2.8061,-2.8289,-2.8738,-6.2351,-6.2996,-6.3336,-6.3381,-6.4169,-6.5121,-6.6622,-6.8103,-6.9535,-7.0677,-7.2118,-7.3302,-7.3968,-7.4306,-7.519,-7.6906,-7.7352,-7.7782,-7.8306,-7.8798,-7.8923,-7.8709,-7.9643,-7.9892,-7.9239,-8.0217,-7.9947,-7.8394,-7.7515,-7.7174,-7.7341,-7.6569,-7.6808,-7.787,-7.7434,-7.7539,-7.8045,-7.7239,-7.6555,-7.6086,-7.662,-7.6409,-7.5742,-7.5555,-7.5777,-7.6108,-7.5253,-7.5745,-7.6823,-7.6707,-7.663,-7.663,-7.663,-7.613,-7.5408,-7.452,-7.3858,-7.3193,-7.1901,-7.105,-7.0235,-6.9154,-6.8788,-6.866,-6.866,-6.811,-6.7633,-6.747,-6.6794,-6.615,-6.5894,-6.5001,-6.4028,-6.3306,-6.3207,-6.2759,-6.1538,-6.1295,-6.1155,-6.1037,-6.027,-5.9807,-6.0001,-5.9804,-5.9716,-5.9716,-5.9152,-5.818,-5.6896,-5.55,-5.4215,-5.2808,-5.0989,-5.001,-5.001,-4.8753,-4.8055,-4.7703,-4.8042,-4.816,-4.8055,-4.7703,-4.7041,-4.5775,-4.4259,-4.1685,-3.824,-3.5794,-3.2991,-3.0258,-2.9595,-2.907,-2.8881,-2.9488,-2.9521,-2.9553,-6.3439,-6.3607,-6.3505,-6.4061,-6.5319,-6.6622,-6.8083,-6.9883,-7.1384,-7.2253,-7.365,-7.4488,-7.4003,-7.5574,-7.6815,-7.712,-7.8517,-7.8851,-7.7555,-7.9562,-8.008,-7.8699,-8.0509,-8.1459,-8.1349,-8.1287,-7.9965,-7.7487,-7.7842,-7.7859,-7.7559,-7.755,-7.7767,-7.8136,-7.8118,-7.7808,-7.719,-7.6326,-7.632,-7.6861,-7.6127,-7.6054,-7.6432,-7.6221,-7.6108,-7.6034,-7.589,-7.5476,-7.4938,-7.4245,-7.4014,-7.4014,-7.4014,-7.3937,-7.3726,-7.3046,-7.2472,-7.1954,-7.1257,-7.0175,-6.9117,-6.8935,-6.8275,-6.7707,-6.7707,-6.7634,-6.747,-6.7266,-6.704,-6.6649,-6.5786,-6.4852,-6.4,-6.3454,-6.2637,-6.2021,-6.1716,-6.2161,-6.2118,-6.093,-6.0324,-5.9968,-5.9804,-5.9716,-5.9716,-5.9716,-5.8605,-5.7339,-5.5993,-5.4696,-5.3308,-5.1976,-5.0683,-5.001,-5.001,-4.8753,-4.8055,-4.7703,-4.8195,-4.805,-4.7324,-4.7324,-4.6662,-4.5515,-4.4023,-4.2041,-3.9758,-3.5916,-3.3709,-3.2384,-3.0102,-2.9504,-2.9774,-3.0469,-3.0759,-3.071,-6.3708,-6.3968,-6.4289,-6.5292,-6.6089,-6.7289,-6.9428,-7.0718,-7.1987,-7.3434,-7.4449,-7.5004,-7.4935,-7.6266,-7.7493,-7.8482,-7.9329,-7.9691,-7.9446,-8.0514,-8.0768,-8.0007,-8.1154,-8.1593,-8.1154,-8.18,-8.0875,-7.8452,-7.8708,-7.8482,-7.7703,-7.7787,-7.8009,-7.8233,-7.7809,-7.7708,-7.7765,-7.6906,-7.675,-7.7056,-7.6497,-7.6105,-7.5853,-7.5636,-7.5453,-7.5361,-7.5822,-7.5438,-7.4668,-7.4284,-7.386,-7.3514,-7.3514,-7.3292,-7.2882,-7.2147,-7.1329,-7.0488,-6.9798,-6.8911,-6.8238,-6.8129,-6.7817,-6.747,-6.7359,-6.6938,-6.6644,-6.7024,-6.704,-6.6707,-6.5678,-6.4708,-6.3644,-6.2451,-6.1787,-6.126,-6.0809,-6.1405,-6.1525,-6.0654,-6.0627,-6.0402,-5.9749,-5.9716,-5.9628,-5.9363,-5.8056,-5.6769,-5.54,-5.4112,-5.2914,-5.1787,-5.0683,-5.001,-5.001,-4.8637,-4.7703,-4.7442,-4.7368,-4.7401,-4.7692,-4.7332,-4.6371,-4.4948,-4.3048,-4.0814,-3.8335,-3.6172,-3.3785,-3.1513,-3.109,-3.0365,-2.9536,-3.0163,-3.026,-3.0081]}]]